<?xml version="1.0" encoding="UTF-8" standalone="no" ?>
<gpx xmlns="http://www.topografix.com/GPX/1/1" xmlns:xsi="http://www.w3.org/2001/XMLSchema-instance" xsi:schemaLocation="http://www.topografix.com/GPX/1/1 http://www.topografix.com/GPX/1/1/gpx.xsd" version="1.1" creator="VisuGPX - https://www.visugpx.com">
  <metadata>
    <name>Lagrasse</name>
    <desc><![CDATA[Lagrasse --> ND du Carla]]></desc>
  </metadata>
  <trk>
    <name><![CDATA[2012-03-08T10:34:57Z]]></name>
    <trkseg>
      <trkpt lat="43.09035" lon="2.62051">
        <ele>133.962</ele>
        <time>2012-03-08T10:34:57Z</time>
      </trkpt>
      <trkpt lat="43.09042" lon="2.62051">
        <ele>135.518</ele>
        <time>2012-03-08T10:35:05Z</time>
      </trkpt>
      <trkpt lat="43.09047" lon="2.62051">
        <ele>133.597</ele>
        <time>2012-03-08T10:35:10Z</time>
      </trkpt>
      <trkpt lat="43.09056" lon="2.62053">
        <ele>128.216</ele>
        <time>2012-03-08T10:35:19Z</time>
      </trkpt>
      <trkpt lat="43.09058" lon="2.62057">
        <ele>128.037</ele>
        <time>2012-03-08T10:35:25Z</time>
      </trkpt>
      <trkpt lat="43.0906" lon="2.62055">
        <ele>128.647</ele>
        <time>2012-03-08T10:35:32Z</time>
      </trkpt>
      <trkpt lat="43.09064" lon="2.62055">
        <ele>126.086</ele>
        <time>2012-03-08T10:35:37Z</time>
      </trkpt>
      <trkpt lat="43.09072" lon="2.62058">
        <ele>127.867</ele>
        <time>2012-03-08T10:35:43Z</time>
      </trkpt>
      <trkpt lat="43.09078" lon="2.62059">
        <ele>128.007</ele>
        <time>2012-03-08T10:35:48Z</time>
      </trkpt>
      <trkpt lat="43.09084" lon="2.62064">
        <ele>128.868</ele>
        <time>2012-03-08T10:35:55Z</time>
      </trkpt>
      <trkpt lat="43.09084" lon="2.62064">
        <ele>128.918</ele>
        <time>2012-03-08T10:35:56Z</time>
      </trkpt>
      <trkpt lat="43.0909" lon="2.62065">
        <ele>131.809</ele>
        <time>2012-03-08T10:36:01Z</time>
      </trkpt>
      <trkpt lat="43.09093" lon="2.62066">
        <ele>132.979</ele>
        <time>2012-03-08T10:36:03Z</time>
      </trkpt>
      <trkpt lat="43.09104" lon="2.62069">
        <ele>130.307</ele>
        <time>2012-03-08T10:36:11Z</time>
      </trkpt>
      <trkpt lat="43.09106" lon="2.62069">
        <ele>130.267</ele>
        <time>2012-03-08T10:36:13Z</time>
      </trkpt>
      <trkpt lat="43.09112" lon="2.62073">
        <ele>130.078</ele>
        <time>2012-03-08T10:36:18Z</time>
      </trkpt>
      <trkpt lat="43.09115" lon="2.62075">
        <ele>129.349</ele>
        <time>2012-03-08T10:36:23Z</time>
      </trkpt>
      <trkpt lat="43.09117" lon="2.62077">
        <ele>129.769</ele>
        <time>2012-03-08T10:36:26Z</time>
      </trkpt>
      <trkpt lat="43.09124" lon="2.62074">
        <ele>129.218</ele>
        <time>2012-03-08T10:36:32Z</time>
      </trkpt>
      <trkpt lat="43.09126" lon="2.62068">
        <ele>126.738</ele>
        <time>2012-03-08T10:36:38Z</time>
      </trkpt>
      <trkpt lat="43.09128" lon="2.62067">
        <ele>125.187</ele>
        <time>2012-03-08T10:36:40Z</time>
      </trkpt>
      <trkpt lat="43.0913" lon="2.62057">
        <ele>123.867</ele>
        <time>2012-03-08T10:36:47Z</time>
      </trkpt>
      <trkpt lat="43.09133" lon="2.6205">
        <ele>122.687</ele>
        <time>2012-03-08T10:36:52Z</time>
      </trkpt>
      <trkpt lat="43.09134" lon="2.62047">
        <ele>122.027</ele>
        <time>2012-03-08T10:36:54Z</time>
      </trkpt>
      <trkpt lat="43.09135" lon="2.62036">
        <ele>126.339</ele>
        <time>2012-03-08T10:36:59Z</time>
      </trkpt>
      <trkpt lat="43.09137" lon="2.62025">
        <ele>124.697</ele>
        <time>2012-03-08T10:37:05Z</time>
      </trkpt>
      <trkpt lat="43.0914" lon="2.62023">
        <ele>123.998</ele>
        <time>2012-03-08T10:37:11Z</time>
      </trkpt>
      <trkpt lat="43.0914" lon="2.62024">
        <ele>128.819</ele>
        <time>2012-03-08T10:37:18Z</time>
      </trkpt>
      <trkpt lat="43.0914" lon="2.62023">
        <ele>127.808</ele>
        <time>2012-03-08T10:37:28Z</time>
      </trkpt>
      <trkpt lat="43.09137" lon="2.62022">
        <ele>127.239</ele>
        <time>2012-03-08T10:37:42Z</time>
      </trkpt>
      <trkpt lat="43.0914" lon="2.62023">
        <ele>123.988</ele>
        <time>2012-03-08T10:37:52Z</time>
      </trkpt>
      <trkpt lat="43.09142" lon="2.62025">
        <ele>123.567</ele>
        <time>2012-03-08T10:37:59Z</time>
      </trkpt>
      <trkpt lat="43.09141" lon="2.62023">
        <ele>121.758</ele>
        <time>2012-03-08T10:38:14Z</time>
      </trkpt>
      <trkpt lat="43.09142" lon="2.62026">
        <ele>125.641</ele>
        <time>2012-03-08T10:38:22Z</time>
      </trkpt>
      <trkpt lat="43.09146" lon="2.62032">
        <ele>127.801</ele>
        <time>2012-03-08T10:38:28Z</time>
      </trkpt>
      <trkpt lat="43.09148" lon="2.6203">
        <ele>141.344</ele>
        <time>2012-03-08T10:38:39Z</time>
      </trkpt>
      <trkpt lat="43.09147" lon="2.62026">
        <ele>139.481</ele>
        <time>2012-03-08T10:38:42Z</time>
      </trkpt>
      <trkpt lat="43.09145" lon="2.62023">
        <ele>136.429</ele>
        <time>2012-03-08T10:38:44Z</time>
      </trkpt>
      <trkpt lat="43.09144" lon="2.62013">
        <ele>132.537</ele>
        <time>2012-03-08T10:38:50Z</time>
      </trkpt>
      <trkpt lat="43.09144" lon="2.61998">
        <ele>138.589</ele>
        <time>2012-03-08T10:38:56Z</time>
      </trkpt>
      <trkpt lat="43.09144" lon="2.61992">
        <ele>133.576</ele>
        <time>2012-03-08T10:39:03Z</time>
      </trkpt>
      <trkpt lat="43.09147" lon="2.61986">
        <ele>127.363</ele>
        <time>2012-03-08T10:39:09Z</time>
      </trkpt>
      <trkpt lat="43.09147" lon="2.61982">
        <ele>128.674</ele>
        <time>2012-03-08T10:39:11Z</time>
      </trkpt>
      <trkpt lat="43.09151" lon="2.61972">
        <ele>124.694</ele>
        <time>2012-03-08T10:39:18Z</time>
      </trkpt>
      <trkpt lat="43.09153" lon="2.61963">
        <ele>130.617</ele>
        <time>2012-03-08T10:39:26Z</time>
      </trkpt>
      <trkpt lat="43.09155" lon="2.61958">
        <ele>126.515</ele>
        <time>2012-03-08T10:39:38Z</time>
      </trkpt>
      <trkpt lat="43.09164" lon="2.61961">
        <ele>127.784</ele>
        <time>2012-03-08T10:39:43Z</time>
      </trkpt>
      <trkpt lat="43.09167" lon="2.61961">
        <ele>128.656</ele>
        <time>2012-03-08T10:39:47Z</time>
      </trkpt>
      <trkpt lat="43.09171" lon="2.61968">
        <ele>124.814</ele>
        <time>2012-03-08T10:39:54Z</time>
      </trkpt>
      <trkpt lat="43.09173" lon="2.6197">
        <ele>125.026</ele>
        <time>2012-03-08T10:39:56Z</time>
      </trkpt>
      <trkpt lat="43.09185" lon="2.61972">
        <ele>129.027</ele>
        <time>2012-03-08T10:40:03Z</time>
      </trkpt>
      <trkpt lat="43.09188" lon="2.61972">
        <ele>126.836</ele>
        <time>2012-03-08T10:40:09Z</time>
      </trkpt>
      <trkpt lat="43.09193" lon="2.61971">
        <ele>133.171</ele>
        <time>2012-03-08T10:40:15Z</time>
      </trkpt>
      <trkpt lat="43.09192" lon="2.61971">
        <ele>135.981</ele>
        <time>2012-03-08T10:40:17Z</time>
      </trkpt>
      <trkpt lat="43.09195" lon="2.61965">
        <ele>141.182</ele>
        <time>2012-03-08T10:40:21Z</time>
      </trkpt>
      <trkpt lat="43.092" lon="2.61962">
        <ele>143.363</ele>
        <time>2012-03-08T10:40:24Z</time>
      </trkpt>
      <trkpt lat="43.09204" lon="2.61955">
        <ele>143.364</ele>
        <time>2012-03-08T10:40:28Z</time>
      </trkpt>
      <trkpt lat="43.09207" lon="2.61947">
        <ele>138.185</ele>
        <time>2012-03-08T10:40:36Z</time>
      </trkpt>
      <trkpt lat="43.09208" lon="2.61934">
        <ele>135.854</ele>
        <time>2012-03-08T10:40:44Z</time>
      </trkpt>
      <trkpt lat="43.09203" lon="2.61925">
        <ele>133.483</ele>
        <time>2012-03-08T10:40:50Z</time>
      </trkpt>
      <trkpt lat="43.09203" lon="2.61913">
        <ele>133.073</ele>
        <time>2012-03-08T10:40:58Z</time>
      </trkpt>
      <trkpt lat="43.09202" lon="2.6191">
        <ele>130.652</ele>
        <time>2012-03-08T10:41:00Z</time>
      </trkpt>
      <trkpt lat="43.09202" lon="2.61906">
        <ele>128.141</ele>
        <time>2012-03-08T10:41:04Z</time>
      </trkpt>
      <trkpt lat="43.09202" lon="2.61898">
        <ele>126.593</ele>
        <time>2012-03-08T10:41:08Z</time>
      </trkpt>
      <trkpt lat="43.09204" lon="2.61889">
        <ele>122.279</ele>
        <time>2012-03-08T10:41:14Z</time>
      </trkpt>
      <trkpt lat="43.09207" lon="2.61885">
        <ele>123.105</ele>
        <time>2012-03-08T10:41:19Z</time>
      </trkpt>
      <trkpt lat="43.09213" lon="2.61873">
        <ele>127.128</ele>
        <time>2012-03-08T10:41:26Z</time>
      </trkpt>
      <trkpt lat="43.09216" lon="2.61868">
        <ele>129.329</ele>
        <time>2012-03-08T10:41:30Z</time>
      </trkpt>
      <trkpt lat="43.09217" lon="2.61862">
        <ele>129.779</ele>
        <time>2012-03-08T10:41:34Z</time>
      </trkpt>
      <trkpt lat="43.09222" lon="2.61847">
        <ele>130.779</ele>
        <time>2012-03-08T10:41:45Z</time>
      </trkpt>
      <trkpt lat="43.09227" lon="2.61839">
        <ele>132.709</ele>
        <time>2012-03-08T10:41:54Z</time>
      </trkpt>
      <trkpt lat="43.09228" lon="2.61832">
        <ele>131.278</ele>
        <time>2012-03-08T10:42:01Z</time>
      </trkpt>
      <trkpt lat="43.09232" lon="2.61822">
        <ele>129.827</ele>
        <time>2012-03-08T10:42:08Z</time>
      </trkpt>
      <trkpt lat="43.09234" lon="2.61812">
        <ele>131.789</ele>
        <time>2012-03-08T10:42:15Z</time>
      </trkpt>
      <trkpt lat="43.09233" lon="2.61811">
        <ele>135.159</ele>
        <time>2012-03-08T10:42:23Z</time>
      </trkpt>
      <trkpt lat="43.09233" lon="2.61812">
        <ele>135.379</ele>
        <time>2012-03-08T10:42:26Z</time>
      </trkpt>
      <trkpt lat="43.0923" lon="2.61807">
        <ele>133.428</ele>
        <time>2012-03-08T10:42:34Z</time>
      </trkpt>
      <trkpt lat="43.09231" lon="2.61805">
        <ele>130.737</ele>
        <time>2012-03-08T10:42:44Z</time>
      </trkpt>
      <trkpt lat="43.09232" lon="2.61806">
        <ele>131.268</ele>
        <time>2012-03-08T10:42:45Z</time>
      </trkpt>
      <trkpt lat="43.09233" lon="2.6181">
        <ele>130.008</ele>
        <time>2012-03-08T10:42:49Z</time>
      </trkpt>
      <trkpt lat="43.09244" lon="2.61815">
        <ele>130.899</ele>
        <time>2012-03-08T10:42:57Z</time>
      </trkpt>
      <trkpt lat="43.09254" lon="2.61816">
        <ele>131.029</ele>
        <time>2012-03-08T10:43:04Z</time>
      </trkpt>
      <trkpt lat="43.09263" lon="2.61815">
        <ele>132.669</ele>
        <time>2012-03-08T10:43:11Z</time>
      </trkpt>
      <trkpt lat="43.09266" lon="2.61814">
        <ele>132.479</ele>
        <time>2012-03-08T10:43:14Z</time>
      </trkpt>
      <trkpt lat="43.09273" lon="2.61809">
        <ele>134.579</ele>
        <time>2012-03-08T10:43:21Z</time>
      </trkpt>
      <trkpt lat="43.09283" lon="2.618">
        <ele>134.758</ele>
        <time>2012-03-08T10:43:30Z</time>
      </trkpt>
      <trkpt lat="43.09285" lon="2.61794">
        <ele>134.908</ele>
        <time>2012-03-08T10:43:34Z</time>
      </trkpt>
      <trkpt lat="43.09283" lon="2.61793">
        <ele>134.288</ele>
        <time>2012-03-08T10:43:36Z</time>
      </trkpt>
      <trkpt lat="43.09285" lon="2.6179">
        <ele>133.549</ele>
        <time>2012-03-08T10:43:44Z</time>
      </trkpt>
      <trkpt lat="43.09286" lon="2.61786">
        <ele>135.369</ele>
        <time>2012-03-08T10:44:03Z</time>
      </trkpt>
      <trkpt lat="43.09284" lon="2.61784">
        <ele>135.719</ele>
        <time>2012-03-08T10:44:06Z</time>
      </trkpt>
      <trkpt lat="43.09278" lon="2.61777">
        <ele>135.529</ele>
        <time>2012-03-08T10:44:12Z</time>
      </trkpt>
      <trkpt lat="43.09273" lon="2.61773">
        <ele>135.999</ele>
        <time>2012-03-08T10:44:19Z</time>
      </trkpt>
      <trkpt lat="43.09265" lon="2.61764">
        <ele>137.079</ele>
        <time>2012-03-08T10:44:29Z</time>
      </trkpt>
      <trkpt lat="43.09264" lon="2.61764">
        <ele>137.229</ele>
        <time>2012-03-08T10:44:30Z</time>
      </trkpt>
      <trkpt lat="43.09258" lon="2.61755">
        <ele>138.189</ele>
        <time>2012-03-08T10:44:39Z</time>
      </trkpt>
      <trkpt lat="43.09253" lon="2.61749">
        <ele>139.639</ele>
        <time>2012-03-08T10:44:46Z</time>
      </trkpt>
      <trkpt lat="43.09249" lon="2.61744">
        <ele>139.939</ele>
        <time>2012-03-08T10:44:53Z</time>
      </trkpt>
      <trkpt lat="43.09245" lon="2.61738">
        <ele>140.329</ele>
        <time>2012-03-08T10:45:00Z</time>
      </trkpt>
      <trkpt lat="43.09244" lon="2.61738">
        <ele>140.179</ele>
        <time>2012-03-08T10:45:01Z</time>
      </trkpt>
      <trkpt lat="43.09238" lon="2.61731">
        <ele>141.819</ele>
        <time>2012-03-08T10:45:10Z</time>
      </trkpt>
      <trkpt lat="43.09233" lon="2.61728">
        <ele>143.91</ele>
        <time>2012-03-08T10:45:16Z</time>
      </trkpt>
      <trkpt lat="43.0923" lon="2.61728">
        <ele>144.409</ele>
        <time>2012-03-08T10:45:22Z</time>
      </trkpt>
      <trkpt lat="43.0923" lon="2.61722">
        <ele>144.929</ele>
        <time>2012-03-08T10:45:26Z</time>
      </trkpt>
      <trkpt lat="43.09227" lon="2.6171">
        <ele>147.38</ele>
        <time>2012-03-08T10:45:35Z</time>
      </trkpt>
      <trkpt lat="43.09225" lon="2.61708">
        <ele>147.33</ele>
        <time>2012-03-08T10:45:39Z</time>
      </trkpt>
      <trkpt lat="43.09222" lon="2.61704">
        <ele>147.809</ele>
        <time>2012-03-08T10:45:43Z</time>
      </trkpt>
      <trkpt lat="43.09215" lon="2.61696">
        <ele>151.11</ele>
        <time>2012-03-08T10:45:52Z</time>
      </trkpt>
      <trkpt lat="43.09209" lon="2.61691">
        <ele>152.059</ele>
        <time>2012-03-08T10:46:00Z</time>
      </trkpt>
      <trkpt lat="43.09204" lon="2.61685">
        <ele>152.499</ele>
        <time>2012-03-08T10:46:08Z</time>
      </trkpt>
      <trkpt lat="43.09199" lon="2.61683">
        <ele>154.06</ele>
        <time>2012-03-08T10:46:15Z</time>
      </trkpt>
      <trkpt lat="43.09194" lon="2.61674">
        <ele>156.22</ele>
        <time>2012-03-08T10:46:24Z</time>
      </trkpt>
      <trkpt lat="43.09192" lon="2.61669">
        <ele>158.01</ele>
        <time>2012-03-08T10:46:29Z</time>
      </trkpt>
      <trkpt lat="43.09191" lon="2.61662">
        <ele>158.8</ele>
        <time>2012-03-08T10:46:35Z</time>
      </trkpt>
      <trkpt lat="43.09186" lon="2.61656">
        <ele>158.999</ele>
        <time>2012-03-08T10:46:44Z</time>
      </trkpt>
      <trkpt lat="43.09184" lon="2.61658">
        <ele>159.628</ele>
        <time>2012-03-08T10:46:47Z</time>
      </trkpt>
      <trkpt lat="43.09178" lon="2.61661">
        <ele>160.048</ele>
        <time>2012-03-08T10:46:55Z</time>
      </trkpt>
      <trkpt lat="43.09179" lon="2.61661">
        <ele>159.978</ele>
        <time>2012-03-08T10:46:56Z</time>
      </trkpt>
      <trkpt lat="43.0918" lon="2.61662">
        <ele>159.358</ele>
        <time>2012-03-08T10:47:03Z</time>
      </trkpt>
      <trkpt lat="43.09178" lon="2.61663">
        <ele>160.178</ele>
        <time>2012-03-08T10:47:44Z</time>
      </trkpt>
      <trkpt lat="43.09178" lon="2.61666">
        <ele>160.679</ele>
        <time>2012-03-08T10:48:01Z</time>
      </trkpt>
      <trkpt lat="43.09177" lon="2.6167">
        <ele>163.649</ele>
        <time>2012-03-08T10:48:16Z</time>
      </trkpt>
      <trkpt lat="43.09182" lon="2.61676">
        <ele>160.167</ele>
        <time>2012-03-08T10:48:23Z</time>
      </trkpt>
      <trkpt lat="43.09185" lon="2.61679">
        <ele>158.247</ele>
        <time>2012-03-08T10:48:42Z</time>
      </trkpt>
      <trkpt lat="43.09185" lon="2.61677">
        <ele>156.987</ele>
        <time>2012-03-08T10:48:49Z</time>
      </trkpt>
      <trkpt lat="43.09182" lon="2.61673">
        <ele>157.148</ele>
        <time>2012-03-08T10:48:53Z</time>
      </trkpt>
      <trkpt lat="43.0918" lon="2.61664">
        <ele>157.969</ele>
        <time>2012-03-08T10:49:01Z</time>
      </trkpt>
      <trkpt lat="43.09184" lon="2.61657">
        <ele>158.568</ele>
        <time>2012-03-08T10:49:07Z</time>
      </trkpt>
      <trkpt lat="43.09181" lon="2.61646">
        <ele>159.769</ele>
        <time>2012-03-08T10:49:15Z</time>
      </trkpt>
      <trkpt lat="43.09178" lon="2.61639">
        <ele>159.859</ele>
        <time>2012-03-08T10:49:21Z</time>
      </trkpt>
      <trkpt lat="43.09175" lon="2.61629">
        <ele>161.019</ele>
        <time>2012-03-08T10:49:28Z</time>
      </trkpt>
      <trkpt lat="43.09173" lon="2.61618">
        <ele>163.209</ele>
        <time>2012-03-08T10:49:35Z</time>
      </trkpt>
      <trkpt lat="43.09169" lon="2.61609">
        <ele>165.549</ele>
        <time>2012-03-08T10:49:43Z</time>
      </trkpt>
      <trkpt lat="43.09166" lon="2.61604">
        <ele>166.659</ele>
        <time>2012-03-08T10:49:50Z</time>
      </trkpt>
      <trkpt lat="43.09164" lon="2.61598">
        <ele>168.219</ele>
        <time>2012-03-08T10:49:56Z</time>
      </trkpt>
      <trkpt lat="43.0916" lon="2.61592">
        <ele>169.479</ele>
        <time>2012-03-08T10:50:03Z</time>
      </trkpt>
      <trkpt lat="43.09157" lon="2.61585">
        <ele>168.468</ele>
        <time>2012-03-08T10:50:10Z</time>
      </trkpt>
      <trkpt lat="43.09156" lon="2.61583">
        <ele>168.298</ele>
        <time>2012-03-08T10:50:12Z</time>
      </trkpt>
      <trkpt lat="43.09154" lon="2.61573">
        <ele>167.748</ele>
        <time>2012-03-08T10:50:20Z</time>
      </trkpt>
      <trkpt lat="43.0915" lon="2.61567">
        <ele>167.629</ele>
        <time>2012-03-08T10:50:28Z</time>
      </trkpt>
      <trkpt lat="43.09146" lon="2.61559">
        <ele>166.638</ele>
        <time>2012-03-08T10:50:36Z</time>
      </trkpt>
      <trkpt lat="43.09142" lon="2.61554">
        <ele>169.019</ele>
        <time>2012-03-08T10:50:43Z</time>
      </trkpt>
      <trkpt lat="43.09137" lon="2.61547">
        <ele>171.169</ele>
        <time>2012-03-08T10:50:51Z</time>
      </trkpt>
      <trkpt lat="43.09134" lon="2.61537">
        <ele>172.559</ele>
        <time>2012-03-08T10:50:59Z</time>
      </trkpt>
      <trkpt lat="43.09131" lon="2.6153">
        <ele>172.439</ele>
        <time>2012-03-08T10:51:08Z</time>
      </trkpt>
      <trkpt lat="43.09128" lon="2.61524">
        <ele>173.999</ele>
        <time>2012-03-08T10:51:16Z</time>
      </trkpt>
      <trkpt lat="43.09125" lon="2.61517">
        <ele>174.348</ele>
        <time>2012-03-08T10:51:23Z</time>
      </trkpt>
      <trkpt lat="43.09121" lon="2.61514">
        <ele>173.918</ele>
        <time>2012-03-08T10:51:28Z</time>
      </trkpt>
      <trkpt lat="43.09116" lon="2.61508">
        <ele>173.788</ele>
        <time>2012-03-08T10:51:35Z</time>
      </trkpt>
      <trkpt lat="43.09113" lon="2.61504">
        <ele>176.258</ele>
        <time>2012-03-08T10:51:41Z</time>
      </trkpt>
      <trkpt lat="43.09109" lon="2.615">
        <ele>177.338</ele>
        <time>2012-03-08T10:51:47Z</time>
      </trkpt>
      <trkpt lat="43.09104" lon="2.61495">
        <ele>181.369</ele>
        <time>2012-03-08T10:51:56Z</time>
      </trkpt>
      <trkpt lat="43.09099" lon="2.61491">
        <ele>183.499</ele>
        <time>2012-03-08T10:52:03Z</time>
      </trkpt>
      <trkpt lat="43.09092" lon="2.61488">
        <ele>185.829</ele>
        <time>2012-03-08T10:52:10Z</time>
      </trkpt>
      <trkpt lat="43.0909" lon="2.61481">
        <ele>185.038</ele>
        <time>2012-03-08T10:52:16Z</time>
      </trkpt>
      <trkpt lat="43.09087" lon="2.61474">
        <ele>185.808</ele>
        <time>2012-03-08T10:52:24Z</time>
      </trkpt>
      <trkpt lat="43.09084" lon="2.61467">
        <ele>185.708</ele>
        <time>2012-03-08T10:52:31Z</time>
      </trkpt>
      <trkpt lat="43.09079" lon="2.61457">
        <ele>186.429</ele>
        <time>2012-03-08T10:52:40Z</time>
      </trkpt>
      <trkpt lat="43.09077" lon="2.6145">
        <ele>188.088</ele>
        <time>2012-03-08T10:52:47Z</time>
      </trkpt>
      <trkpt lat="43.09069" lon="2.61446">
        <ele>190.219</ele>
        <time>2012-03-08T10:52:56Z</time>
      </trkpt>
      <trkpt lat="43.09067" lon="2.61442">
        <ele>191.179</ele>
        <time>2012-03-08T10:53:02Z</time>
      </trkpt>
      <trkpt lat="43.09061" lon="2.61438">
        <ele>193.859</ele>
        <time>2012-03-08T10:53:10Z</time>
      </trkpt>
      <trkpt lat="43.09058" lon="2.6143">
        <ele>193.698</ele>
        <time>2012-03-08T10:53:18Z</time>
      </trkpt>
      <trkpt lat="43.09055" lon="2.61424">
        <ele>193.648</ele>
        <time>2012-03-08T10:53:26Z</time>
      </trkpt>
      <trkpt lat="43.09051" lon="2.61417">
        <ele>193.928</ele>
        <time>2012-03-08T10:53:34Z</time>
      </trkpt>
      <trkpt lat="43.0905" lon="2.61416">
        <ele>194.157</ele>
        <time>2012-03-08T10:53:35Z</time>
      </trkpt>
      <trkpt lat="43.09046" lon="2.61408">
        <ele>193.938</ele>
        <time>2012-03-08T10:53:44Z</time>
      </trkpt>
      <trkpt lat="43.09042" lon="2.61403">
        <ele>196.009</ele>
        <time>2012-03-08T10:53:52Z</time>
      </trkpt>
      <trkpt lat="43.09037" lon="2.61399">
        <ele>201.109</ele>
        <time>2012-03-08T10:54:01Z</time>
      </trkpt>
      <trkpt lat="43.09032" lon="2.61394">
        <ele>202.849</ele>
        <time>2012-03-08T10:54:08Z</time>
      </trkpt>
      <trkpt lat="43.09028" lon="2.61387">
        <ele>202.227</ele>
        <time>2012-03-08T10:54:16Z</time>
      </trkpt>
      <trkpt lat="43.09023" lon="2.61386">
        <ele>206.069</ele>
        <time>2012-03-08T10:54:22Z</time>
      </trkpt>
      <trkpt lat="43.09018" lon="2.61392">
        <ele>206.577</ele>
        <time>2012-03-08T10:54:29Z</time>
      </trkpt>
      <trkpt lat="43.09017" lon="2.61393">
        <ele>206.206</ele>
        <time>2012-03-08T10:54:30Z</time>
      </trkpt>
      <trkpt lat="43.09017" lon="2.61396">
        <ele>206.336</ele>
        <time>2012-03-08T10:54:32Z</time>
      </trkpt>
      <trkpt lat="43.09017" lon="2.61401">
        <ele>201.386</ele>
        <time>2012-03-08T10:54:40Z</time>
      </trkpt>
      <trkpt lat="43.09017" lon="2.61397">
        <ele>202.747</ele>
        <time>2012-03-08T10:54:55Z</time>
      </trkpt>
      <trkpt lat="43.09017" lon="2.61395">
        <ele>204.156</ele>
        <time>2012-03-08T10:55:05Z</time>
      </trkpt>
      <trkpt lat="43.09014" lon="2.61398">
        <ele>208.386</ele>
        <time>2012-03-08T10:57:12Z</time>
      </trkpt>
      <trkpt lat="43.09016" lon="2.61394">
        <ele>208.507</ele>
        <time>2012-03-08T10:57:35Z</time>
      </trkpt>
      <trkpt lat="43.09017" lon="2.61392">
        <ele>208.177</ele>
        <time>2012-03-08T10:57:37Z</time>
      </trkpt>
      <trkpt lat="43.09018" lon="2.61384">
        <ele>210.437</ele>
        <time>2012-03-08T10:57:45Z</time>
      </trkpt>
      <trkpt lat="43.09017" lon="2.61376">
        <ele>209.276</ele>
        <time>2012-03-08T10:57:51Z</time>
      </trkpt>
      <trkpt lat="43.09013" lon="2.61369">
        <ele>208.026</ele>
        <time>2012-03-08T10:57:56Z</time>
      </trkpt>
      <trkpt lat="43.09013" lon="2.61362">
        <ele>210.407</ele>
        <time>2012-03-08T10:58:02Z</time>
      </trkpt>
      <trkpt lat="43.09012" lon="2.6136">
        <ele>211.558</ele>
        <time>2012-03-08T10:58:04Z</time>
      </trkpt>
      <trkpt lat="43.09006" lon="2.61351">
        <ele>213.428</ele>
        <time>2012-03-08T10:58:12Z</time>
      </trkpt>
      <trkpt lat="43.09003" lon="2.61348">
        <ele>214.617</ele>
        <time>2012-03-08T10:58:18Z</time>
      </trkpt>
      <trkpt lat="43.09001" lon="2.61342">
        <ele>214.516</ele>
        <time>2012-03-08T10:58:25Z</time>
      </trkpt>
      <trkpt lat="43.08999" lon="2.61338">
        <ele>213.185</ele>
        <time>2012-03-08T10:58:30Z</time>
      </trkpt>
      <trkpt lat="43.08997" lon="2.61334">
        <ele>212.016</ele>
        <time>2012-03-08T10:58:38Z</time>
      </trkpt>
      <trkpt lat="43.08994" lon="2.61328">
        <ele>212.357</ele>
        <time>2012-03-08T10:58:45Z</time>
      </trkpt>
      <trkpt lat="43.08993" lon="2.61325">
        <ele>210.586</ele>
        <time>2012-03-08T10:58:51Z</time>
      </trkpt>
      <trkpt lat="43.08988" lon="2.61318">
        <ele>213.077</ele>
        <time>2012-03-08T10:58:59Z</time>
      </trkpt>
      <trkpt lat="43.08982" lon="2.61313">
        <ele>214.586</ele>
        <time>2012-03-08T10:59:06Z</time>
      </trkpt>
      <trkpt lat="43.08977" lon="2.61308">
        <ele>216.408</ele>
        <time>2012-03-08T10:59:14Z</time>
      </trkpt>
      <trkpt lat="43.08973" lon="2.61303">
        <ele>215.917</ele>
        <time>2012-03-08T10:59:22Z</time>
      </trkpt>
      <trkpt lat="43.08972" lon="2.613">
        <ele>214.072</ele>
        <time>2012-03-08T10:59:25Z</time>
      </trkpt>
      <trkpt lat="43.08963" lon="2.61291">
        <ele>215.657</ele>
        <time>2012-03-08T10:59:35Z</time>
      </trkpt>
      <trkpt lat="43.08958" lon="2.61285">
        <ele>216.857</ele>
        <time>2012-03-08T10:59:42Z</time>
      </trkpt>
      <trkpt lat="43.08954" lon="2.61278">
        <ele>218.517</ele>
        <time>2012-03-08T10:59:50Z</time>
      </trkpt>
      <trkpt lat="43.08949" lon="2.61273">
        <ele>221.617</ele>
        <time>2012-03-08T10:59:57Z</time>
      </trkpt>
      <trkpt lat="43.08946" lon="2.61268">
        <ele>219.776</ele>
        <time>2012-03-08T11:00:04Z</time>
      </trkpt>
      <trkpt lat="43.08944" lon="2.6126">
        <ele>226.007</ele>
        <time>2012-03-08T11:00:11Z</time>
      </trkpt>
      <trkpt lat="43.08944" lon="2.61251">
        <ele>228.217</ele>
        <time>2012-03-08T11:00:20Z</time>
      </trkpt>
      <trkpt lat="43.08943" lon="2.61239">
        <ele>230.347</ele>
        <time>2012-03-08T11:00:28Z</time>
      </trkpt>
      <trkpt lat="43.08943" lon="2.61237">
        <ele>231.257</ele>
        <time>2012-03-08T11:00:29Z</time>
      </trkpt>
      <trkpt lat="43.08941" lon="2.61235">
        <ele>232.128</ele>
        <time>2012-03-08T11:00:31Z</time>
      </trkpt>
      <trkpt lat="43.08938" lon="2.61222">
        <ele>229.435</ele>
        <time>2012-03-08T11:00:41Z</time>
      </trkpt>
      <trkpt lat="43.08936" lon="2.61217">
        <ele>225.024</ele>
        <time>2012-03-08T11:00:48Z</time>
      </trkpt>
      <trkpt lat="43.08931" lon="2.6121">
        <ele>221.584</ele>
        <time>2012-03-08T11:00:56Z</time>
      </trkpt>
      <trkpt lat="43.08929" lon="2.61203">
        <ele>218.713</ele>
        <time>2012-03-08T11:01:03Z</time>
      </trkpt>
      <trkpt lat="43.08926" lon="2.61188">
        <ele>222.045</ele>
        <time>2012-03-08T11:01:12Z</time>
      </trkpt>
      <trkpt lat="43.08923" lon="2.61179">
        <ele>224.655</ele>
        <time>2012-03-08T11:01:19Z</time>
      </trkpt>
      <trkpt lat="43.08918" lon="2.61173">
        <ele>223.805</ele>
        <time>2012-03-08T11:01:27Z</time>
      </trkpt>
      <trkpt lat="43.08916" lon="2.61164">
        <ele>225.685</ele>
        <time>2012-03-08T11:01:33Z</time>
      </trkpt>
      <trkpt lat="43.08913" lon="2.61154">
        <ele>231.257</ele>
        <time>2012-03-08T11:01:40Z</time>
      </trkpt>
      <trkpt lat="43.08911" lon="2.61149">
        <ele>234.177</ele>
        <time>2012-03-08T11:01:45Z</time>
      </trkpt>
      <trkpt lat="43.08908" lon="2.6114">
        <ele>233.945</ele>
        <time>2012-03-08T11:01:52Z</time>
      </trkpt>
      <trkpt lat="43.08902" lon="2.6113">
        <ele>236.826</ele>
        <time>2012-03-08T11:01:59Z</time>
      </trkpt>
      <trkpt lat="43.08898" lon="2.61119">
        <ele>233.724</ele>
        <time>2012-03-08T11:02:07Z</time>
      </trkpt>
      <trkpt lat="43.08896" lon="2.61115">
        <ele>234.345</ele>
        <time>2012-03-08T11:02:13Z</time>
      </trkpt>
      <trkpt lat="43.08896" lon="2.6111">
        <ele>230.834</ele>
        <time>2012-03-08T11:02:17Z</time>
      </trkpt>
      <trkpt lat="43.08897" lon="2.61102">
        <ele>234.316</ele>
        <time>2012-03-08T11:02:24Z</time>
      </trkpt>
      <trkpt lat="43.08896" lon="2.611">
        <ele>234.635</ele>
        <time>2012-03-08T11:02:28Z</time>
      </trkpt>
      <trkpt lat="43.08893" lon="2.61093">
        <ele>234.006</ele>
        <time>2012-03-08T11:02:34Z</time>
      </trkpt>
      <trkpt lat="43.08893" lon="2.61087">
        <ele>235.817</ele>
        <time>2012-03-08T11:02:39Z</time>
      </trkpt>
      <trkpt lat="43.08888" lon="2.61075">
        <ele>239.886</ele>
        <time>2012-03-08T11:02:47Z</time>
      </trkpt>
      <trkpt lat="43.08885" lon="2.61064">
        <ele>245.526</ele>
        <time>2012-03-08T11:02:53Z</time>
      </trkpt>
      <trkpt lat="43.08884" lon="2.61059">
        <ele>243.984</ele>
        <time>2012-03-08T11:02:56Z</time>
      </trkpt>
      <trkpt lat="43.08881" lon="2.61048">
        <ele>243.064</ele>
        <time>2012-03-08T11:03:02Z</time>
      </trkpt>
      <trkpt lat="43.08881" lon="2.61038">
        <ele>245.226</ele>
        <time>2012-03-08T11:03:08Z</time>
      </trkpt>
      <trkpt lat="43.0888" lon="2.61037">
        <ele>245.386</ele>
        <time>2012-03-08T11:03:09Z</time>
      </trkpt>
      <trkpt lat="43.08877" lon="2.61026">
        <ele>247.146</ele>
        <time>2012-03-08T11:03:14Z</time>
      </trkpt>
      <trkpt lat="43.08878" lon="2.61022">
        <ele>246.255</ele>
        <time>2012-03-08T11:03:16Z</time>
      </trkpt>
      <trkpt lat="43.08878" lon="2.6101">
        <ele>244.775</ele>
        <time>2012-03-08T11:03:25Z</time>
      </trkpt>
      <trkpt lat="43.08878" lon="2.61002">
        <ele>245.416</ele>
        <time>2012-03-08T11:03:33Z</time>
      </trkpt>
      <trkpt lat="43.0888" lon="2.60996">
        <ele>246.986</ele>
        <time>2012-03-08T11:03:41Z</time>
      </trkpt>
      <trkpt lat="43.08881" lon="2.60993">
        <ele>247.436</ele>
        <time>2012-03-08T11:03:43Z</time>
      </trkpt>
      <trkpt lat="43.08881" lon="2.60987">
        <ele>247.656</ele>
        <time>2012-03-08T11:03:47Z</time>
      </trkpt>
      <trkpt lat="43.08885" lon="2.60979">
        <ele>241.614</ele>
        <time>2012-03-08T11:03:54Z</time>
      </trkpt>
      <trkpt lat="43.08886" lon="2.60971">
        <ele>242.085</ele>
        <time>2012-03-08T11:04:00Z</time>
      </trkpt>
      <trkpt lat="43.08887" lon="2.6096">
        <ele>243.196</ele>
        <time>2012-03-08T11:04:08Z</time>
      </trkpt>
      <trkpt lat="43.08889" lon="2.60953">
        <ele>249.117</ele>
        <time>2012-03-08T11:04:15Z</time>
      </trkpt>
      <trkpt lat="43.0889" lon="2.60946">
        <ele>251.007</ele>
        <time>2012-03-08T11:04:22Z</time>
      </trkpt>
      <trkpt lat="43.0889" lon="2.60945">
        <ele>251.668</ele>
        <time>2012-03-08T11:04:23Z</time>
      </trkpt>
      <trkpt lat="43.08891" lon="2.60942">
        <ele>252.638</ele>
        <time>2012-03-08T11:04:25Z</time>
      </trkpt>
      <trkpt lat="43.08892" lon="2.60939">
        <ele>251.627</ele>
        <time>2012-03-08T11:04:28Z</time>
      </trkpt>
      <trkpt lat="43.08898" lon="2.60928">
        <ele>250.576</ele>
        <time>2012-03-08T11:04:38Z</time>
      </trkpt>
      <trkpt lat="43.08898" lon="2.60926">
        <ele>250.386</ele>
        <time>2012-03-08T11:04:40Z</time>
      </trkpt>
      <trkpt lat="43.08899" lon="2.60922">
        <ele>251.656</ele>
        <time>2012-03-08T11:04:44Z</time>
      </trkpt>
      <trkpt lat="43.08904" lon="2.60915">
        <ele>248.304</ele>
        <time>2012-03-08T11:04:51Z</time>
      </trkpt>
      <trkpt lat="43.08906" lon="2.60909">
        <ele>250.677</ele>
        <time>2012-03-08T11:04:58Z</time>
      </trkpt>
      <trkpt lat="43.08907" lon="2.60906">
        <ele>250.486</ele>
        <time>2012-03-08T11:05:01Z</time>
      </trkpt>
      <trkpt lat="43.08908" lon="2.609">
        <ele>252.076</ele>
        <time>2012-03-08T11:05:07Z</time>
      </trkpt>
      <trkpt lat="43.08909" lon="2.60895">
        <ele>254.886</ele>
        <time>2012-03-08T11:05:12Z</time>
      </trkpt>
      <trkpt lat="43.08909" lon="2.60888">
        <ele>259.077</ele>
        <time>2012-03-08T11:05:19Z</time>
      </trkpt>
      <trkpt lat="43.0891" lon="2.60878">
        <ele>256.085</ele>
        <time>2012-03-08T11:05:28Z</time>
      </trkpt>
      <trkpt lat="43.08912" lon="2.60868">
        <ele>258.436</ele>
        <time>2012-03-08T11:05:38Z</time>
      </trkpt>
      <trkpt lat="43.08911" lon="2.60861">
        <ele>257.335</ele>
        <time>2012-03-08T11:05:46Z</time>
      </trkpt>
      <trkpt lat="43.0891" lon="2.60851">
        <ele>254.274</ele>
        <time>2012-03-08T11:05:54Z</time>
      </trkpt>
      <trkpt lat="43.0891" lon="2.60845">
        <ele>251.493</ele>
        <time>2012-03-08T11:06:01Z</time>
      </trkpt>
      <trkpt lat="43.08909" lon="2.60836">
        <ele>252.805</ele>
        <time>2012-03-08T11:06:10Z</time>
      </trkpt>
      <trkpt lat="43.08906" lon="2.60824">
        <ele>256.326</ele>
        <time>2012-03-08T11:06:18Z</time>
      </trkpt>
      <trkpt lat="43.08904" lon="2.60811">
        <ele>257.506</ele>
        <time>2012-03-08T11:06:27Z</time>
      </trkpt>
      <trkpt lat="43.08902" lon="2.60798">
        <ele>257.755</ele>
        <time>2012-03-08T11:06:36Z</time>
      </trkpt>
      <trkpt lat="43.08901" lon="2.60785">
        <ele>258.675</ele>
        <time>2012-03-08T11:06:45Z</time>
      </trkpt>
      <trkpt lat="43.089" lon="2.60776">
        <ele>256.471</ele>
        <time>2012-03-08T11:06:54Z</time>
      </trkpt>
      <trkpt lat="43.08901" lon="2.60767">
        <ele>257.205</ele>
        <time>2012-03-08T11:07:01Z</time>
      </trkpt>
      <trkpt lat="43.08899" lon="2.60762">
        <ele>259.465</ele>
        <time>2012-03-08T11:07:03Z</time>
      </trkpt>
      <trkpt lat="43.08896" lon="2.60747">
        <ele>261.415</ele>
        <time>2012-03-08T11:07:12Z</time>
      </trkpt>
      <trkpt lat="43.08897" lon="2.6074">
        <ele>263.606</ele>
        <time>2012-03-08T11:07:18Z</time>
      </trkpt>
      <trkpt lat="43.08892" lon="2.60725">
        <ele>269.027</ele>
        <time>2012-03-08T11:07:28Z</time>
      </trkpt>
      <trkpt lat="43.08886" lon="2.60723">
        <ele>273.676</ele>
        <time>2012-03-08T11:07:34Z</time>
      </trkpt>
      <trkpt lat="43.08884" lon="2.60723">
        <ele>274.726</ele>
        <time>2012-03-08T11:07:40Z</time>
      </trkpt>
      <trkpt lat="43.08884" lon="2.60723">
        <ele>274.525</ele>
        <time>2012-03-08T11:07:43Z</time>
      </trkpt>
      <trkpt lat="43.08883" lon="2.60719">
        <ele>275.296</ele>
        <time>2012-03-08T11:07:48Z</time>
      </trkpt>
      <trkpt lat="43.08883" lon="2.6072">
        <ele>273.174</ele>
        <time>2012-03-08T11:07:54Z</time>
      </trkpt>
      <trkpt lat="43.08885" lon="2.60717">
        <ele>277.325</ele>
        <time>2012-03-08T11:08:08Z</time>
      </trkpt>
      <trkpt lat="43.08886" lon="2.60716">
        <ele>276.705</ele>
        <time>2012-03-08T11:08:10Z</time>
      </trkpt>
      <trkpt lat="43.08887" lon="2.60709">
        <ele>272.903</ele>
        <time>2012-03-08T11:08:18Z</time>
      </trkpt>
      <trkpt lat="43.08887" lon="2.60705">
        <ele>273.034</ele>
        <time>2012-03-08T11:08:23Z</time>
      </trkpt>
      <trkpt lat="43.08887" lon="2.607">
        <ele>273.144</ele>
        <time>2012-03-08T11:08:26Z</time>
      </trkpt>
      <trkpt lat="43.08886" lon="2.60685">
        <ele>274.325</ele>
        <time>2012-03-08T11:08:36Z</time>
      </trkpt>
      <trkpt lat="43.08885" lon="2.60679">
        <ele>273.855</ele>
        <time>2012-03-08T11:08:40Z</time>
      </trkpt>
      <trkpt lat="43.08886" lon="2.60666">
        <ele>270.764</ele>
        <time>2012-03-08T11:08:49Z</time>
      </trkpt>
      <trkpt lat="43.08886" lon="2.60651">
        <ele>273.355</ele>
        <time>2012-03-08T11:08:58Z</time>
      </trkpt>
      <trkpt lat="43.08888" lon="2.6064">
        <ele>273.085</ele>
        <time>2012-03-08T11:09:05Z</time>
      </trkpt>
      <trkpt lat="43.08889" lon="2.60628">
        <ele>275.245</ele>
        <time>2012-03-08T11:09:14Z</time>
      </trkpt>
      <trkpt lat="43.08888" lon="2.60618">
        <ele>276.805</ele>
        <time>2012-03-08T11:09:20Z</time>
      </trkpt>
      <trkpt lat="43.08887" lon="2.60606">
        <ele>279.445</ele>
        <time>2012-03-08T11:09:26Z</time>
      </trkpt>
      <trkpt lat="43.08889" lon="2.60595">
        <ele>279.645</ele>
        <time>2012-03-08T11:09:33Z</time>
      </trkpt>
      <trkpt lat="43.08889" lon="2.60583">
        <ele>275.574</ele>
        <time>2012-03-08T11:09:41Z</time>
      </trkpt>
      <trkpt lat="43.08889" lon="2.6057">
        <ele>273.724</ele>
        <time>2012-03-08T11:09:49Z</time>
      </trkpt>
      <trkpt lat="43.08889" lon="2.60553">
        <ele>275.475</ele>
        <time>2012-03-08T11:09:59Z</time>
      </trkpt>
      <trkpt lat="43.0889" lon="2.60537">
        <ele>275.334</ele>
        <time>2012-03-08T11:10:08Z</time>
      </trkpt>
      <trkpt lat="43.08888" lon="2.60521">
        <ele>275.405</ele>
        <time>2012-03-08T11:10:17Z</time>
      </trkpt>
      <trkpt lat="43.08885" lon="2.60508">
        <ele>275.095</ele>
        <time>2012-03-08T11:10:25Z</time>
      </trkpt>
      <trkpt lat="43.08882" lon="2.60493">
        <ele>274.675</ele>
        <time>2012-03-08T11:10:34Z</time>
      </trkpt>
      <trkpt lat="43.08878" lon="2.60478">
        <ele>276.345</ele>
        <time>2012-03-08T11:10:44Z</time>
      </trkpt>
      <trkpt lat="43.08875" lon="2.60467">
        <ele>276.805</ele>
        <time>2012-03-08T11:10:51Z</time>
      </trkpt>
      <trkpt lat="43.0887" lon="2.6045">
        <ele>276.965</ele>
        <time>2012-03-08T11:11:01Z</time>
      </trkpt>
      <trkpt lat="43.08867" lon="2.60436">
        <ele>276.034</ele>
        <time>2012-03-08T11:11:10Z</time>
      </trkpt>
      <trkpt lat="43.08865" lon="2.60422">
        <ele>275.004</ele>
        <time>2012-03-08T11:11:18Z</time>
      </trkpt>
      <trkpt lat="43.08861" lon="2.60403">
        <ele>275.174</ele>
        <time>2012-03-08T11:11:29Z</time>
      </trkpt>
      <trkpt lat="43.08859" lon="2.60394">
        <ele>275.575</ele>
        <time>2012-03-08T11:11:36Z</time>
      </trkpt>
      <trkpt lat="43.08855" lon="2.60382">
        <ele>274.423</ele>
        <time>2012-03-08T11:11:43Z</time>
      </trkpt>
      <trkpt lat="43.0885" lon="2.60372">
        <ele>271.573</ele>
        <time>2012-03-08T11:11:51Z</time>
      </trkpt>
      <trkpt lat="43.08844" lon="2.60355">
        <ele>269.523</ele>
        <time>2012-03-08T11:12:02Z</time>
      </trkpt>
      <trkpt lat="43.08839" lon="2.60344">
        <ele>267.523</ele>
        <time>2012-03-08T11:12:10Z</time>
      </trkpt>
      <trkpt lat="43.08832" lon="2.6033">
        <ele>269.185</ele>
        <time>2012-03-08T11:12:20Z</time>
      </trkpt>
      <trkpt lat="43.08828" lon="2.60319">
        <ele>268.073</ele>
        <time>2012-03-08T11:12:28Z</time>
      </trkpt>
      <trkpt lat="43.08825" lon="2.60308">
        <ele>268.564</ele>
        <time>2012-03-08T11:12:35Z</time>
      </trkpt>
      <trkpt lat="43.08823" lon="2.60293">
        <ele>270.664</ele>
        <time>2012-03-08T11:12:42Z</time>
      </trkpt>
      <trkpt lat="43.08821" lon="2.60276">
        <ele>274.754</ele>
        <time>2012-03-08T11:12:49Z</time>
      </trkpt>
      <trkpt lat="43.08816" lon="2.60264">
        <ele>278.114</ele>
        <time>2012-03-08T11:12:57Z</time>
      </trkpt>
      <trkpt lat="43.08807" lon="2.60253">
        <ele>278.123</ele>
        <time>2012-03-08T11:13:05Z</time>
      </trkpt>
      <trkpt lat="43.08798" lon="2.60238">
        <ele>278.014</ele>
        <time>2012-03-08T11:13:15Z</time>
      </trkpt>
      <trkpt lat="43.0879" lon="2.60228">
        <ele>276.713</ele>
        <time>2012-03-08T11:13:24Z</time>
      </trkpt>
      <trkpt lat="43.08785" lon="2.60215">
        <ele>273.602</ele>
        <time>2012-03-08T11:13:32Z</time>
      </trkpt>
      <trkpt lat="43.0878" lon="2.602">
        <ele>275.384</ele>
        <time>2012-03-08T11:13:40Z</time>
      </trkpt>
      <trkpt lat="43.08774" lon="2.60188">
        <ele>279.915</ele>
        <time>2012-03-08T11:13:47Z</time>
      </trkpt>
      <trkpt lat="43.08768" lon="2.60177">
        <ele>279.384</ele>
        <time>2012-03-08T11:13:55Z</time>
      </trkpt>
      <trkpt lat="43.08763" lon="2.60168">
        <ele>279.964</ele>
        <time>2012-03-08T11:14:01Z</time>
      </trkpt>
      <trkpt lat="43.0876" lon="2.60162">
        <ele>280.144</ele>
        <time>2012-03-08T11:14:05Z</time>
      </trkpt>
      <trkpt lat="43.0875" lon="2.60144">
        <ele>281.244</ele>
        <time>2012-03-08T11:14:17Z</time>
      </trkpt>
      <trkpt lat="43.08744" lon="2.6013">
        <ele>280.803</ele>
        <time>2012-03-08T11:14:26Z</time>
      </trkpt>
      <trkpt lat="43.08739" lon="2.60116">
        <ele>280.803</ele>
        <time>2012-03-08T11:14:35Z</time>
      </trkpt>
      <trkpt lat="43.08736" lon="2.601">
        <ele>279.263</ele>
        <time>2012-03-08T11:14:44Z</time>
      </trkpt>
      <trkpt lat="43.08732" lon="2.60086">
        <ele>277.972</ele>
        <time>2012-03-08T11:14:52Z</time>
      </trkpt>
      <trkpt lat="43.0873" lon="2.60082">
        <ele>277.652</ele>
        <time>2012-03-08T11:14:54Z</time>
      </trkpt>
      <trkpt lat="43.08724" lon="2.60067">
        <ele>281.374</ele>
        <time>2012-03-08T11:15:01Z</time>
      </trkpt>
      <trkpt lat="43.08718" lon="2.60047">
        <ele>286.944</ele>
        <time>2012-03-08T11:15:12Z</time>
      </trkpt>
      <trkpt lat="43.08718" lon="2.60038">
        <ele>288.633</ele>
        <time>2012-03-08T11:15:18Z</time>
      </trkpt>
      <trkpt lat="43.08717" lon="2.60025">
        <ele>286.262</ele>
        <time>2012-03-08T11:15:24Z</time>
      </trkpt>
      <trkpt lat="43.08717" lon="2.60022">
        <ele>286.542</ele>
        <time>2012-03-08T11:15:26Z</time>
      </trkpt>
      <trkpt lat="43.08717" lon="2.60014">
        <ele>284.752</ele>
        <time>2012-03-08T11:15:30Z</time>
      </trkpt>
      <trkpt lat="43.08717" lon="2.60006">
        <ele>284.772</ele>
        <time>2012-03-08T11:15:34Z</time>
      </trkpt>
      <trkpt lat="43.08714" lon="2.59995">
        <ele>285.133</ele>
        <time>2012-03-08T11:15:41Z</time>
      </trkpt>
      <trkpt lat="43.08708" lon="2.59982">
        <ele>288.724</ele>
        <time>2012-03-08T11:15:50Z</time>
      </trkpt>
      <trkpt lat="43.08704" lon="2.59974">
        <ele>288.992</ele>
        <time>2012-03-08T11:15:56Z</time>
      </trkpt>
      <trkpt lat="43.08699" lon="2.59965">
        <ele>288.452</ele>
        <time>2012-03-08T11:16:03Z</time>
      </trkpt>
      <trkpt lat="43.08696" lon="2.59951">
        <ele>288.403</ele>
        <time>2012-03-08T11:16:11Z</time>
      </trkpt>
      <trkpt lat="43.08694" lon="2.59935">
        <ele>287.922</ele>
        <time>2012-03-08T11:16:21Z</time>
      </trkpt>
      <trkpt lat="43.08694" lon="2.59923">
        <ele>284.721</ele>
        <time>2012-03-08T11:16:30Z</time>
      </trkpt>
      <trkpt lat="43.08694" lon="2.59921">
        <ele>284.491</ele>
        <time>2012-03-08T11:16:31Z</time>
      </trkpt>
      <trkpt lat="43.08692" lon="2.59916">
        <ele>284.682</ele>
        <time>2012-03-08T11:16:35Z</time>
      </trkpt>
      <trkpt lat="43.08689" lon="2.599">
        <ele>286.602</ele>
        <time>2012-03-08T11:16:44Z</time>
      </trkpt>
      <trkpt lat="43.08687" lon="2.59889">
        <ele>287.613</ele>
        <time>2012-03-08T11:16:52Z</time>
      </trkpt>
      <trkpt lat="43.08685" lon="2.59876">
        <ele>288.793</ele>
        <time>2012-03-08T11:16:59Z</time>
      </trkpt>
      <trkpt lat="43.08682" lon="2.59866">
        <ele>287.892</ele>
        <time>2012-03-08T11:17:08Z</time>
      </trkpt>
      <trkpt lat="43.08677" lon="2.59856">
        <ele>288.513</ele>
        <time>2012-03-08T11:17:15Z</time>
      </trkpt>
      <trkpt lat="43.08671" lon="2.59842">
        <ele>286.612</ele>
        <time>2012-03-08T11:17:24Z</time>
      </trkpt>
      <trkpt lat="43.08665" lon="2.59827">
        <ele>286.012</ele>
        <time>2012-03-08T11:17:32Z</time>
      </trkpt>
      <trkpt lat="43.08661" lon="2.59816">
        <ele>286.292</ele>
        <time>2012-03-08T11:17:39Z</time>
      </trkpt>
      <trkpt lat="43.08655" lon="2.59803">
        <ele>288.013</ele>
        <time>2012-03-08T11:17:47Z</time>
      </trkpt>
      <trkpt lat="43.08653" lon="2.598">
        <ele>288.502</ele>
        <time>2012-03-08T11:17:50Z</time>
      </trkpt>
      <trkpt lat="43.08649" lon="2.598">
        <ele>287.791</ele>
        <time>2012-03-08T11:17:55Z</time>
      </trkpt>
      <trkpt lat="43.08639" lon="2.59799">
        <ele>289.05</ele>
        <time>2012-03-08T11:18:03Z</time>
      </trkpt>
      <trkpt lat="43.08629" lon="2.59802">
        <ele>289.811</ele>
        <time>2012-03-08T11:18:11Z</time>
      </trkpt>
      <trkpt lat="43.08618" lon="2.59808">
        <ele>288.171</ele>
        <time>2012-03-08T11:18:21Z</time>
      </trkpt>
      <trkpt lat="43.08612" lon="2.59806">
        <ele>286.891</ele>
        <time>2012-03-08T11:18:29Z</time>
      </trkpt>
      <trkpt lat="43.08611" lon="2.59806">
        <ele>289.552</ele>
        <time>2012-03-08T11:18:32Z</time>
      </trkpt>
      <trkpt lat="43.08607" lon="2.598">
        <ele>291.202</ele>
        <time>2012-03-08T11:18:36Z</time>
      </trkpt>
      <trkpt lat="43.08605" lon="2.59794">
        <ele>291.863</ele>
        <time>2012-03-08T11:18:41Z</time>
      </trkpt>
      <trkpt lat="43.08605" lon="2.59783">
        <ele>291.942</ele>
        <time>2012-03-08T11:18:48Z</time>
      </trkpt>
      <trkpt lat="43.08606" lon="2.59773">
        <ele>293.543</ele>
        <time>2012-03-08T11:18:53Z</time>
      </trkpt>
      <trkpt lat="43.08606" lon="2.59755">
        <ele>297.152</ele>
        <time>2012-03-08T11:19:04Z</time>
      </trkpt>
      <trkpt lat="43.08606" lon="2.59738">
        <ele>297.893</ele>
        <time>2012-03-08T11:19:14Z</time>
      </trkpt>
      <trkpt lat="43.08606" lon="2.59723">
        <ele>298.012</ele>
        <time>2012-03-08T11:19:24Z</time>
      </trkpt>
      <trkpt lat="43.08607" lon="2.5972">
        <ele>296.701</ele>
        <time>2012-03-08T11:19:26Z</time>
      </trkpt>
      <trkpt lat="43.08607" lon="2.59711">
        <ele>295.002</ele>
        <time>2012-03-08T11:19:34Z</time>
      </trkpt>
      <trkpt lat="43.08607" lon="2.59706">
        <ele>294.442</ele>
        <time>2012-03-08T11:19:38Z</time>
      </trkpt>
      <trkpt lat="43.08603" lon="2.5969">
        <ele>292.701</ele>
        <time>2012-03-08T11:19:47Z</time>
      </trkpt>
      <trkpt lat="43.08603" lon="2.59679">
        <ele>294.172</ele>
        <time>2012-03-08T11:19:56Z</time>
      </trkpt>
      <trkpt lat="43.08603" lon="2.59667">
        <ele>294.842</ele>
        <time>2012-03-08T11:20:05Z</time>
      </trkpt>
      <trkpt lat="43.08603" lon="2.5966">
        <ele>294.382</ele>
        <time>2012-03-08T11:20:11Z</time>
      </trkpt>
      <trkpt lat="43.086" lon="2.59643">
        <ele>295.071</ele>
        <time>2012-03-08T11:20:19Z</time>
      </trkpt>
      <trkpt lat="43.08599" lon="2.59629">
        <ele>293.99</ele>
        <time>2012-03-08T11:20:26Z</time>
      </trkpt>
      <trkpt lat="43.08598" lon="2.59611">
        <ele>293.811</ele>
        <time>2012-03-08T11:20:36Z</time>
      </trkpt>
      <trkpt lat="43.08598" lon="2.59604">
        <ele>295.251</ele>
        <time>2012-03-08T11:20:39Z</time>
      </trkpt>
      <trkpt lat="43.08599" lon="2.59597">
        <ele>294.611</ele>
        <time>2012-03-08T11:20:43Z</time>
      </trkpt>
      <trkpt lat="43.08599" lon="2.59584">
        <ele>292.93</ele>
        <time>2012-03-08T11:20:52Z</time>
      </trkpt>
      <trkpt lat="43.08598" lon="2.59569">
        <ele>295.701</ele>
        <time>2012-03-08T11:20:59Z</time>
      </trkpt>
      <trkpt lat="43.086" lon="2.59557">
        <ele>293.56</ele>
        <time>2012-03-08T11:21:06Z</time>
      </trkpt>
      <trkpt lat="43.08602" lon="2.5954">
        <ele>294.111</ele>
        <time>2012-03-08T11:21:16Z</time>
      </trkpt>
      <trkpt lat="43.08602" lon="2.59521">
        <ele>295.492</ele>
        <time>2012-03-08T11:21:26Z</time>
      </trkpt>
      <trkpt lat="43.08603" lon="2.59518">
        <ele>295.662</ele>
        <time>2012-03-08T11:21:28Z</time>
      </trkpt>
      <trkpt lat="43.08602" lon="2.595">
        <ele>302.612</ele>
        <time>2012-03-08T11:21:37Z</time>
      </trkpt>
      <trkpt lat="43.08602" lon="2.59497">
        <ele>308.591</ele>
        <time>2012-03-08T11:21:54Z</time>
      </trkpt>
      <trkpt lat="43.08602" lon="2.59498">
        <ele>308.431</ele>
        <time>2012-03-08T11:21:55Z</time>
      </trkpt>
      <trkpt lat="43.08601" lon="2.59502">
        <ele>308.191</ele>
        <time>2012-03-08T11:22:01Z</time>
      </trkpt>
      <trkpt lat="43.08602" lon="2.59501">
        <ele>312.851</ele>
        <time>2012-03-08T11:22:56Z</time>
      </trkpt>
      <trkpt lat="43.08606" lon="2.5949">
        <ele>312.22</ele>
        <time>2012-03-08T11:23:04Z</time>
      </trkpt>
      <trkpt lat="43.08607" lon="2.59477">
        <ele>311.151</ele>
        <time>2012-03-08T11:23:12Z</time>
      </trkpt>
      <trkpt lat="43.08608" lon="2.59463">
        <ele>309.956</ele>
        <time>2012-03-08T11:23:21Z</time>
      </trkpt>
      <trkpt lat="43.08606" lon="2.59457">
        <ele>306.468</ele>
        <time>2012-03-08T11:23:28Z</time>
      </trkpt>
      <trkpt lat="43.08605" lon="2.59452">
        <ele>305.349</ele>
        <time>2012-03-08T11:23:33Z</time>
      </trkpt>
      <trkpt lat="43.086" lon="2.59442">
        <ele>302.042</ele>
        <time>2012-03-08T11:23:41Z</time>
      </trkpt>
      <trkpt lat="43.08595" lon="2.59433">
        <ele>301.649</ele>
        <time>2012-03-08T11:23:49Z</time>
      </trkpt>
      <trkpt lat="43.08588" lon="2.59424">
        <ele>300.506</ele>
        <time>2012-03-08T11:23:58Z</time>
      </trkpt>
      <trkpt lat="43.08581" lon="2.59419">
        <ele>299.955</ele>
        <time>2012-03-08T11:24:06Z</time>
      </trkpt>
      <trkpt lat="43.08575" lon="2.59416">
        <ele>300.604</ele>
        <time>2012-03-08T11:24:13Z</time>
      </trkpt>
      <trkpt lat="43.08568" lon="2.59414">
        <ele>298.424</ele>
        <time>2012-03-08T11:24:21Z</time>
      </trkpt>
      <trkpt lat="43.08557" lon="2.59411">
        <ele>297.709</ele>
        <time>2012-03-08T11:24:30Z</time>
      </trkpt>
      <trkpt lat="43.08548" lon="2.59409">
        <ele>297.489</ele>
        <time>2012-03-08T11:24:38Z</time>
      </trkpt>
      <trkpt lat="43.08539" lon="2.59399">
        <ele>301.018</ele>
        <time>2012-03-08T11:24:47Z</time>
      </trkpt>
      <trkpt lat="43.08535" lon="2.59388">
        <ele>301.488</ele>
        <time>2012-03-08T11:24:55Z</time>
      </trkpt>
      <trkpt lat="43.08532" lon="2.59383">
        <ele>305.701</ele>
        <time>2012-03-08T11:25:02Z</time>
      </trkpt>
      <trkpt lat="43.08529" lon="2.59374">
        <ele>312.91</ele>
        <time>2012-03-08T11:25:42Z</time>
      </trkpt>
      <trkpt lat="43.08526" lon="2.59361">
        <ele>310.68</ele>
        <time>2012-03-08T11:25:51Z</time>
      </trkpt>
      <trkpt lat="43.08525" lon="2.59357">
        <ele>309.61</ele>
        <time>2012-03-08T11:25:57Z</time>
      </trkpt>
      <trkpt lat="43.08522" lon="2.59351">
        <ele>308.31</ele>
        <time>2012-03-08T11:26:04Z</time>
      </trkpt>
      <trkpt lat="43.0852" lon="2.59344">
        <ele>306.209</ele>
        <time>2012-03-08T11:26:08Z</time>
      </trkpt>
      <trkpt lat="43.08513" lon="2.59326">
        <ele>304.569</ele>
        <time>2012-03-08T11:26:16Z</time>
      </trkpt>
      <trkpt lat="43.08511" lon="2.5932">
        <ele>299.369</ele>
        <time>2012-03-08T11:26:24Z</time>
      </trkpt>
      <trkpt lat="43.08511" lon="2.59319">
        <ele>299.239</ele>
        <time>2012-03-08T11:26:25Z</time>
      </trkpt>
      <trkpt lat="43.08507" lon="2.59302">
        <ele>299.32</ele>
        <time>2012-03-08T11:26:35Z</time>
      </trkpt>
      <trkpt lat="43.08505" lon="2.59291">
        <ele>298.79</ele>
        <time>2012-03-08T11:26:42Z</time>
      </trkpt>
      <trkpt lat="43.08506" lon="2.59278">
        <ele>295.148</ele>
        <time>2012-03-08T11:26:50Z</time>
      </trkpt>
      <trkpt lat="43.08505" lon="2.59259">
        <ele>294.319</ele>
        <time>2012-03-08T11:27:00Z</time>
      </trkpt>
      <trkpt lat="43.08505" lon="2.59245">
        <ele>294.359</ele>
        <time>2012-03-08T11:27:07Z</time>
      </trkpt>
      <trkpt lat="43.08505" lon="2.59239">
        <ele>292.698</ele>
        <time>2012-03-08T11:27:11Z</time>
      </trkpt>
      <trkpt lat="43.085" lon="2.59217">
        <ele>293.678</ele>
        <time>2012-03-08T11:27:20Z</time>
      </trkpt>
      <trkpt lat="43.085" lon="2.59201">
        <ele>296.589</ele>
        <time>2012-03-08T11:27:29Z</time>
      </trkpt>
      <trkpt lat="43.08499" lon="2.59185">
        <ele>297.079</ele>
        <time>2012-03-08T11:27:37Z</time>
      </trkpt>
      <trkpt lat="43.085" lon="2.59167">
        <ele>297.629</ele>
        <time>2012-03-08T11:27:46Z</time>
      </trkpt>
      <trkpt lat="43.08501" lon="2.59147">
        <ele>297.99</ele>
        <time>2012-03-08T11:27:57Z</time>
      </trkpt>
      <trkpt lat="43.08499" lon="2.59125">
        <ele>299.46</ele>
        <time>2012-03-08T11:28:07Z</time>
      </trkpt>
      <trkpt lat="43.085" lon="2.59111">
        <ele>298.159</ele>
        <time>2012-03-08T11:28:15Z</time>
      </trkpt>
      <trkpt lat="43.085" lon="2.59096">
        <ele>299.809</ele>
        <time>2012-03-08T11:28:25Z</time>
      </trkpt>
      <trkpt lat="43.085" lon="2.59082">
        <ele>299.379</ele>
        <time>2012-03-08T11:28:33Z</time>
      </trkpt>
      <trkpt lat="43.08498" lon="2.59063">
        <ele>299.319</ele>
        <time>2012-03-08T11:28:42Z</time>
      </trkpt>
      <trkpt lat="43.08498" lon="2.59047">
        <ele>298.458</ele>
        <time>2012-03-08T11:28:50Z</time>
      </trkpt>
      <trkpt lat="43.08497" lon="2.5903">
        <ele>298.679</ele>
        <time>2012-03-08T11:28:59Z</time>
      </trkpt>
      <trkpt lat="43.08498" lon="2.59012">
        <ele>304.32</ele>
        <time>2012-03-08T11:29:09Z</time>
      </trkpt>
      <trkpt lat="43.08495" lon="2.58992">
        <ele>304.789</ele>
        <time>2012-03-08T11:29:19Z</time>
      </trkpt>
      <trkpt lat="43.08489" lon="2.58967">
        <ele>308.62</ele>
        <time>2012-03-08T11:29:28Z</time>
      </trkpt>
      <trkpt lat="43.08486" lon="2.5895">
        <ele>308.129</ele>
        <time>2012-03-08T11:29:37Z</time>
      </trkpt>
      <trkpt lat="43.08484" lon="2.58936">
        <ele>309.089</ele>
        <time>2012-03-08T11:29:45Z</time>
      </trkpt>
      <trkpt lat="43.08478" lon="2.58917">
        <ele>311.8</ele>
        <time>2012-03-08T11:29:54Z</time>
      </trkpt>
      <trkpt lat="43.08472" lon="2.58901">
        <ele>310.539</ele>
        <time>2012-03-08T11:30:04Z</time>
      </trkpt>
      <trkpt lat="43.08467" lon="2.58884">
        <ele>311.039</ele>
        <time>2012-03-08T11:30:13Z</time>
      </trkpt>
      <trkpt lat="43.08462" lon="2.58871">
        <ele>309.949</ele>
        <time>2012-03-08T11:30:22Z</time>
      </trkpt>
      <trkpt lat="43.08456" lon="2.58854">
        <ele>304.937</ele>
        <time>2012-03-08T11:30:33Z</time>
      </trkpt>
      <trkpt lat="43.08453" lon="2.58843">
        <ele>300.196</ele>
        <time>2012-03-08T11:30:40Z</time>
      </trkpt>
      <trkpt lat="43.08448" lon="2.5883">
        <ele>304.139</ele>
        <time>2012-03-08T11:30:48Z</time>
      </trkpt>
      <trkpt lat="43.08448" lon="2.58829">
        <ele>306.88</ele>
        <time>2012-03-08T11:30:53Z</time>
      </trkpt>
      <trkpt lat="43.08448" lon="2.58826">
        <ele>308.179</ele>
        <time>2012-03-08T11:30:56Z</time>
      </trkpt>
      <trkpt lat="43.08446" lon="2.58821">
        <ele>308.479</ele>
        <time>2012-03-08T11:31:01Z</time>
      </trkpt>
      <trkpt lat="43.08443" lon="2.58806">
        <ele>311.189</ele>
        <time>2012-03-08T11:31:10Z</time>
      </trkpt>
      <trkpt lat="43.0844" lon="2.5879">
        <ele>313.438</ele>
        <time>2012-03-08T11:31:20Z</time>
      </trkpt>
      <trkpt lat="43.08438" lon="2.58776">
        <ele>313.338</ele>
        <time>2012-03-08T11:31:29Z</time>
      </trkpt>
      <trkpt lat="43.08437" lon="2.58766">
        <ele>308.235</ele>
        <time>2012-03-08T11:31:37Z</time>
      </trkpt>
      <trkpt lat="43.08435" lon="2.58761">
        <ele>302.895</ele>
        <time>2012-03-08T11:31:43Z</time>
      </trkpt>
      <trkpt lat="43.0843" lon="2.58748">
        <ele>302.437</ele>
        <time>2012-03-08T11:31:51Z</time>
      </trkpt>
      <trkpt lat="43.08428" lon="2.58739">
        <ele>300.957</ele>
        <time>2012-03-08T11:31:57Z</time>
      </trkpt>
      <trkpt lat="43.08423" lon="2.58727">
        <ele>301.758</ele>
        <time>2012-03-08T11:32:04Z</time>
      </trkpt>
      <trkpt lat="43.08421" lon="2.58719">
        <ele>300.928</ele>
        <time>2012-03-08T11:32:09Z</time>
      </trkpt>
      <trkpt lat="43.08418" lon="2.58707">
        <ele>301.177</ele>
        <time>2012-03-08T11:32:16Z</time>
      </trkpt>
      <trkpt lat="43.08412" lon="2.58692">
        <ele>299.916</ele>
        <time>2012-03-08T11:32:25Z</time>
      </trkpt>
      <trkpt lat="43.08408" lon="2.58676">
        <ele>301.495</ele>
        <time>2012-03-08T11:32:33Z</time>
      </trkpt>
      <trkpt lat="43.08404" lon="2.58665">
        <ele>300.937</ele>
        <time>2012-03-08T11:32:40Z</time>
      </trkpt>
      <trkpt lat="43.08399" lon="2.58654">
        <ele>301.618</ele>
        <time>2012-03-08T11:32:48Z</time>
      </trkpt>
      <trkpt lat="43.08393" lon="2.58642">
        <ele>304.037</ele>
        <time>2012-03-08T11:32:56Z</time>
      </trkpt>
      <trkpt lat="43.08386" lon="2.58631">
        <ele>302.877</ele>
        <time>2012-03-08T11:33:03Z</time>
      </trkpt>
      <trkpt lat="43.08375" lon="2.58619">
        <ele>302.897</ele>
        <time>2012-03-08T11:33:12Z</time>
      </trkpt>
      <trkpt lat="43.08369" lon="2.58613">
        <ele>305.447</ele>
        <time>2012-03-08T11:33:19Z</time>
      </trkpt>
      <trkpt lat="43.0836" lon="2.58601">
        <ele>303.617</ele>
        <time>2012-03-08T11:33:28Z</time>
      </trkpt>
      <trkpt lat="43.08351" lon="2.5859">
        <ele>301.236</ele>
        <time>2012-03-08T11:33:35Z</time>
      </trkpt>
      <trkpt lat="43.08346" lon="2.58583">
        <ele>301.117</ele>
        <time>2012-03-08T11:33:42Z</time>
      </trkpt>
      <trkpt lat="43.08346" lon="2.58583">
        <ele>301.177</ele>
        <time>2012-03-08T11:33:43Z</time>
      </trkpt>
      <trkpt lat="43.08337" lon="2.58565">
        <ele>299.476</ele>
        <time>2012-03-08T11:33:52Z</time>
      </trkpt>
      <trkpt lat="43.08336" lon="2.58563">
        <ele>299.686</ele>
        <time>2012-03-08T11:33:53Z</time>
      </trkpt>
      <trkpt lat="43.08329" lon="2.58549">
        <ele>297.676</ele>
        <time>2012-03-08T11:34:01Z</time>
      </trkpt>
      <trkpt lat="43.08325" lon="2.58539">
        <ele>292.896</ele>
        <time>2012-03-08T11:34:09Z</time>
      </trkpt>
      <trkpt lat="43.0832" lon="2.58531">
        <ele>297.569</ele>
        <time>2012-03-08T11:34:17Z</time>
      </trkpt>
      <trkpt lat="43.08316" lon="2.5852">
        <ele>300.107</ele>
        <time>2012-03-08T11:34:24Z</time>
      </trkpt>
      <trkpt lat="43.08312" lon="2.58508">
        <ele>300.316</ele>
        <time>2012-03-08T11:34:31Z</time>
      </trkpt>
      <trkpt lat="43.08302" lon="2.58486">
        <ele>296.183</ele>
        <time>2012-03-08T11:34:44Z</time>
      </trkpt>
      <trkpt lat="43.08299" lon="2.58477">
        <ele>295.785</ele>
        <time>2012-03-08T11:34:50Z</time>
      </trkpt>
      <trkpt lat="43.08294" lon="2.58467">
        <ele>295.375</ele>
        <time>2012-03-08T11:34:55Z</time>
      </trkpt>
      <trkpt lat="43.0829" lon="2.58455">
        <ele>295.365</ele>
        <time>2012-03-08T11:35:01Z</time>
      </trkpt>
      <trkpt lat="43.08284" lon="2.58443">
        <ele>296.837</ele>
        <time>2012-03-08T11:35:07Z</time>
      </trkpt>
      <trkpt lat="43.08277" lon="2.58419">
        <ele>299.006</ele>
        <time>2012-03-08T11:35:21Z</time>
      </trkpt>
      <trkpt lat="43.08273" lon="2.5841">
        <ele>297.955</ele>
        <time>2012-03-08T11:35:28Z</time>
      </trkpt>
      <trkpt lat="43.08269" lon="2.58402">
        <ele>294.084</ele>
        <time>2012-03-08T11:35:34Z</time>
      </trkpt>
      <trkpt lat="43.08263" lon="2.58384">
        <ele>293.164</ele>
        <time>2012-03-08T11:35:42Z</time>
      </trkpt>
      <trkpt lat="43.08256" lon="2.5837">
        <ele>294.806</ele>
        <time>2012-03-08T11:35:50Z</time>
      </trkpt>
      <trkpt lat="43.08255" lon="2.58361">
        <ele>296.147</ele>
        <time>2012-03-08T11:35:56Z</time>
      </trkpt>
      <trkpt lat="43.0825" lon="2.58354">
        <ele>296.406</ele>
        <time>2012-03-08T11:36:02Z</time>
      </trkpt>
      <trkpt lat="43.08242" lon="2.58341">
        <ele>302.098</ele>
        <time>2012-03-08T11:36:08Z</time>
      </trkpt>
      <trkpt lat="43.08238" lon="2.58331">
        <ele>303.057</ele>
        <time>2012-03-08T11:36:14Z</time>
      </trkpt>
      <trkpt lat="43.08231" lon="2.58314">
        <ele>306.758</ele>
        <time>2012-03-08T11:36:21Z</time>
      </trkpt>
      <trkpt lat="43.08225" lon="2.58298">
        <ele>298.283</ele>
        <time>2012-03-08T11:36:32Z</time>
      </trkpt>
      <trkpt lat="43.08224" lon="2.58291">
        <ele>296.344</ele>
        <time>2012-03-08T11:36:38Z</time>
      </trkpt>
      <trkpt lat="43.08219" lon="2.58281">
        <ele>295.194</ele>
        <time>2012-03-08T11:36:44Z</time>
      </trkpt>
      <trkpt lat="43.08217" lon="2.58272">
        <ele>299.007</ele>
        <time>2012-03-08T11:36:49Z</time>
      </trkpt>
      <trkpt lat="43.08215" lon="2.58264">
        <ele>297.105</ele>
        <time>2012-03-08T11:36:53Z</time>
      </trkpt>
      <trkpt lat="43.08213" lon="2.58246">
        <ele>298.326</ele>
        <time>2012-03-08T11:37:00Z</time>
      </trkpt>
      <trkpt lat="43.0821" lon="2.58228">
        <ele>300.817</ele>
        <time>2012-03-08T11:37:07Z</time>
      </trkpt>
      <trkpt lat="43.08209" lon="2.58214">
        <ele>307.198</ele>
        <time>2012-03-08T11:37:12Z</time>
      </trkpt>
      <trkpt lat="43.08211" lon="2.58192">
        <ele>310.99</ele>
        <time>2012-03-08T11:37:23Z</time>
      </trkpt>
      <trkpt lat="43.08213" lon="2.58182">
        <ele>310.537</ele>
        <time>2012-03-08T11:37:28Z</time>
      </trkpt>
      <trkpt lat="43.08221" lon="2.58171">
        <ele>308.482</ele>
        <time>2012-03-08T11:37:35Z</time>
      </trkpt>
      <trkpt lat="43.08225" lon="2.58166">
        <ele>306.458</ele>
        <time>2012-03-08T11:37:39Z</time>
      </trkpt>
      <trkpt lat="43.08227" lon="2.58164">
        <ele>306.854</ele>
        <time>2012-03-08T11:37:46Z</time>
      </trkpt>
      <trkpt lat="43.0823" lon="2.58163">
        <ele>308.557</ele>
        <time>2012-03-08T11:37:53Z</time>
      </trkpt>
      <trkpt lat="43.08238" lon="2.58163">
        <ele>310.007</ele>
        <time>2012-03-08T11:38:01Z</time>
      </trkpt>
      <trkpt lat="43.08246" lon="2.58165">
        <ele>314.678</ele>
        <time>2012-03-08T11:38:09Z</time>
      </trkpt>
      <trkpt lat="43.08255" lon="2.58169">
        <ele>312.695</ele>
        <time>2012-03-08T11:38:17Z</time>
      </trkpt>
      <trkpt lat="43.0826" lon="2.58171">
        <ele>310.085</ele>
        <time>2012-03-08T11:38:22Z</time>
      </trkpt>
      <trkpt lat="43.08263" lon="2.58172">
        <ele>313.747</ele>
        <time>2012-03-08T11:38:28Z</time>
      </trkpt>
      <trkpt lat="43.08267" lon="2.58175">
        <ele>310.935</ele>
        <time>2012-03-08T11:38:33Z</time>
      </trkpt>
      <trkpt lat="43.08278" lon="2.58178">
        <ele>310.995</ele>
        <time>2012-03-08T11:38:38Z</time>
      </trkpt>
      <trkpt lat="43.08285" lon="2.58179">
        <ele>308.154</ele>
        <time>2012-03-08T11:38:44Z</time>
      </trkpt>
      <trkpt lat="43.08289" lon="2.58179">
        <ele>305.813</ele>
        <time>2012-03-08T11:38:48Z</time>
      </trkpt>
      <trkpt lat="43.08296" lon="2.58179">
        <ele>303.294</ele>
        <time>2012-03-08T11:38:55Z</time>
      </trkpt>
      <trkpt lat="43.08314" lon="2.58185">
        <ele>308.496</ele>
        <time>2012-03-08T11:39:03Z</time>
      </trkpt>
      <trkpt lat="43.08326" lon="2.58187">
        <ele>304.284</ele>
        <time>2012-03-08T11:39:10Z</time>
      </trkpt>
      <trkpt lat="43.08333" lon="2.58189">
        <ele>308.348</ele>
        <time>2012-03-08T11:39:16Z</time>
      </trkpt>
      <trkpt lat="43.0834" lon="2.5819">
        <ele>310.667</ele>
        <time>2012-03-08T11:39:23Z</time>
      </trkpt>
      <trkpt lat="43.0834" lon="2.5819">
        <ele>312.478</ele>
        <time>2012-03-08T11:39:28Z</time>
      </trkpt>
      <trkpt lat="43.08341" lon="2.58194">
        <ele>313.118</ele>
        <time>2012-03-08T11:39:32Z</time>
      </trkpt>
      <trkpt lat="43.08345" lon="2.58196">
        <ele>314.947</ele>
        <time>2012-03-08T11:39:37Z</time>
      </trkpt>
      <trkpt lat="43.08353" lon="2.58197">
        <ele>317.139</ele>
        <time>2012-03-08T11:39:44Z</time>
      </trkpt>
      <trkpt lat="43.08361" lon="2.58198">
        <ele>320.238</ele>
        <time>2012-03-08T11:39:50Z</time>
      </trkpt>
      <trkpt lat="43.08367" lon="2.58196">
        <ele>321.248</ele>
        <time>2012-03-08T11:39:54Z</time>
      </trkpt>
      <trkpt lat="43.08379" lon="2.582">
        <ele>319.336</ele>
        <time>2012-03-08T11:40:03Z</time>
      </trkpt>
      <trkpt lat="43.08383" lon="2.582">
        <ele>319.336</ele>
        <time>2012-03-08T11:40:06Z</time>
      </trkpt>
      <trkpt lat="43.08395" lon="2.58206">
        <ele>318.596</ele>
        <time>2012-03-08T11:40:12Z</time>
      </trkpt>
      <trkpt lat="43.08399" lon="2.58206">
        <ele>320.657</ele>
        <time>2012-03-08T11:40:17Z</time>
      </trkpt>
      <trkpt lat="43.08406" lon="2.58207">
        <ele>320.567</ele>
        <time>2012-03-08T11:40:24Z</time>
      </trkpt>
      <trkpt lat="43.08415" lon="2.58211">
        <ele>320.057</ele>
        <time>2012-03-08T11:40:30Z</time>
      </trkpt>
      <trkpt lat="43.08424" lon="2.5821">
        <ele>319.516</ele>
        <time>2012-03-08T11:40:36Z</time>
      </trkpt>
      <trkpt lat="43.08431" lon="2.5821">
        <ele>321.618</ele>
        <time>2012-03-08T11:40:39Z</time>
      </trkpt>
      <trkpt lat="43.08432" lon="2.58204">
        <ele>320.137</ele>
        <time>2012-03-08T11:40:44Z</time>
      </trkpt>
      <trkpt lat="43.08431" lon="2.582">
        <ele>319.467</ele>
        <time>2012-03-08T11:40:47Z</time>
      </trkpt>
      <trkpt lat="43.08432" lon="2.58191">
        <ele>320.158</ele>
        <time>2012-03-08T11:40:52Z</time>
      </trkpt>
      <trkpt lat="43.08434" lon="2.58175">
        <ele>320.577</ele>
        <time>2012-03-08T11:41:02Z</time>
      </trkpt>
      <trkpt lat="43.08437" lon="2.58159">
        <ele>320.457</ele>
        <time>2012-03-08T11:41:12Z</time>
      </trkpt>
      <trkpt lat="43.08438" lon="2.58144">
        <ele>320.987</ele>
        <time>2012-03-08T11:41:21Z</time>
      </trkpt>
      <trkpt lat="43.08439" lon="2.58127">
        <ele>322.645</ele>
        <time>2012-03-08T11:41:31Z</time>
      </trkpt>
      <trkpt lat="43.08439" lon="2.58116">
        <ele>324.499</ele>
        <time>2012-03-08T11:41:39Z</time>
      </trkpt>
      <trkpt lat="43.08439" lon="2.58111">
        <ele>323.849</ele>
        <time>2012-03-08T11:41:42Z</time>
      </trkpt>
      <trkpt lat="43.0844" lon="2.58108">
        <ele>321.71</ele>
        <time>2012-03-08T11:41:45Z</time>
      </trkpt>
      <trkpt lat="43.08438" lon="2.58093">
        <ele>317.522</ele>
        <time>2012-03-08T11:41:53Z</time>
      </trkpt>
      <trkpt lat="43.08439" lon="2.58079">
        <ele>312.555</ele>
        <time>2012-03-08T11:42:01Z</time>
      </trkpt>
      <trkpt lat="43.08439" lon="2.58066">
        <ele>307.939</ele>
        <time>2012-03-08T11:42:09Z</time>
      </trkpt>
      <trkpt lat="43.0844" lon="2.58053">
        <ele>307.034</ele>
        <time>2012-03-08T11:42:16Z</time>
      </trkpt>
      <trkpt lat="43.08441" lon="2.58046">
        <ele>306.66</ele>
        <time>2012-03-08T11:42:20Z</time>
      </trkpt>
      <trkpt lat="43.08441" lon="2.58031">
        <ele>304.158</ele>
        <time>2012-03-08T11:42:28Z</time>
      </trkpt>
      <trkpt lat="43.08442" lon="2.58015">
        <ele>301.666</ele>
        <time>2012-03-08T11:42:37Z</time>
      </trkpt>
      <trkpt lat="43.08443" lon="2.57998">
        <ele>300.937</ele>
        <time>2012-03-08T11:42:45Z</time>
      </trkpt>
      <trkpt lat="43.08443" lon="2.57982">
        <ele>300.894</ele>
        <time>2012-03-08T11:42:53Z</time>
      </trkpt>
      <trkpt lat="43.08444" lon="2.57964">
        <ele>301.828</ele>
        <time>2012-03-08T11:43:02Z</time>
      </trkpt>
      <trkpt lat="43.08444" lon="2.57951">
        <ele>301.122</ele>
        <time>2012-03-08T11:43:09Z</time>
      </trkpt>
      <trkpt lat="43.08446" lon="2.57936">
        <ele>301.333</ele>
        <time>2012-03-08T11:43:17Z</time>
      </trkpt>
      <trkpt lat="43.08448" lon="2.57919">
        <ele>299.593</ele>
        <time>2012-03-08T11:43:25Z</time>
      </trkpt>
      <trkpt lat="43.08448" lon="2.57907">
        <ele>298.144</ele>
        <time>2012-03-08T11:43:31Z</time>
      </trkpt>
      <trkpt lat="43.0845" lon="2.57893">
        <ele>297.485</ele>
        <time>2012-03-08T11:43:39Z</time>
      </trkpt>
      <trkpt lat="43.0845" lon="2.57877">
        <ele>298.184</ele>
        <time>2012-03-08T11:43:47Z</time>
      </trkpt>
      <trkpt lat="43.08452" lon="2.57864">
        <ele>298.697</ele>
        <time>2012-03-08T11:43:54Z</time>
      </trkpt>
      <trkpt lat="43.08453" lon="2.57849">
        <ele>299.307</ele>
        <time>2012-03-08T11:44:03Z</time>
      </trkpt>
      <trkpt lat="43.08452" lon="2.57834">
        <ele>298.815</ele>
        <time>2012-03-08T11:44:11Z</time>
      </trkpt>
      <trkpt lat="43.0845" lon="2.57818">
        <ele>298.425</ele>
        <time>2012-03-08T11:44:19Z</time>
      </trkpt>
      <trkpt lat="43.0845" lon="2.57799">
        <ele>301.266</ele>
        <time>2012-03-08T11:44:28Z</time>
      </trkpt>
      <trkpt lat="43.08449" lon="2.57784">
        <ele>305.206</ele>
        <time>2012-03-08T11:44:34Z</time>
      </trkpt>
      <trkpt lat="43.08448" lon="2.5777">
        <ele>303.945</ele>
        <time>2012-03-08T11:44:42Z</time>
      </trkpt>
      <trkpt lat="43.08449" lon="2.57753">
        <ele>307.136</ele>
        <time>2012-03-08T11:44:50Z</time>
      </trkpt>
      <trkpt lat="43.0845" lon="2.57732">
        <ele>314.587</ele>
        <time>2012-03-08T11:44:59Z</time>
      </trkpt>
      <trkpt lat="43.08452" lon="2.57714">
        <ele>316.677</ele>
        <time>2012-03-08T11:45:09Z</time>
      </trkpt>
      <trkpt lat="43.08455" lon="2.57699">
        <ele>318.326</ele>
        <time>2012-03-08T11:45:19Z</time>
      </trkpt>
      <trkpt lat="43.08457" lon="2.57685">
        <ele>316.354</ele>
        <time>2012-03-08T11:45:25Z</time>
      </trkpt>
      <trkpt lat="43.08459" lon="2.57681">
        <ele>316.055</ele>
        <time>2012-03-08T11:45:27Z</time>
      </trkpt>
      <trkpt lat="43.08461" lon="2.57671">
        <ele>317.696</ele>
        <time>2012-03-08T11:45:32Z</time>
      </trkpt>
      <trkpt lat="43.08464" lon="2.57669">
        <ele>317.756</ele>
        <time>2012-03-08T11:45:34Z</time>
      </trkpt>
      <trkpt lat="43.08477" lon="2.57655">
        <ele>317.915</ele>
        <time>2012-03-08T11:45:47Z</time>
      </trkpt>
      <trkpt lat="43.0848" lon="2.5765">
        <ele>318.405</ele>
        <time>2012-03-08T11:45:53Z</time>
      </trkpt>
      <trkpt lat="43.08485" lon="2.57644">
        <ele>314.494</ele>
        <time>2012-03-08T11:46:00Z</time>
      </trkpt>
      <trkpt lat="43.08492" lon="2.57641">
        <ele>312.573</ele>
        <time>2012-03-08T11:46:07Z</time>
      </trkpt>
      <trkpt lat="43.08495" lon="2.5764">
        <ele>314.766</ele>
        <time>2012-03-08T11:46:20Z</time>
      </trkpt>
      <trkpt lat="43.08491" lon="2.57636">
        <ele>324.795</ele>
        <time>2012-03-08T11:48:30Z</time>
      </trkpt>
      <trkpt lat="43.0849" lon="2.5763">
        <ele>320.604</ele>
        <time>2012-03-08T11:48:35Z</time>
      </trkpt>
      <trkpt lat="43.08495" lon="2.57621">
        <ele>318.555</ele>
        <time>2012-03-08T11:48:41Z</time>
      </trkpt>
      <trkpt lat="43.08495" lon="2.57615">
        <ele>319.365</ele>
        <time>2012-03-08T11:48:45Z</time>
      </trkpt>
      <trkpt lat="43.08493" lon="2.57607">
        <ele>315.764</ele>
        <time>2012-03-08T11:48:51Z</time>
      </trkpt>
      <trkpt lat="43.08487" lon="2.57594">
        <ele>314.115</ele>
        <time>2012-03-08T11:48:59Z</time>
      </trkpt>
      <trkpt lat="43.08481" lon="2.57587">
        <ele>313.545</ele>
        <time>2012-03-08T11:49:06Z</time>
      </trkpt>
      <trkpt lat="43.08476" lon="2.57577">
        <ele>311.705</ele>
        <time>2012-03-08T11:49:13Z</time>
      </trkpt>
      <trkpt lat="43.08477" lon="2.57568">
        <ele>306.853</ele>
        <time>2012-03-08T11:49:20Z</time>
      </trkpt>
      <trkpt lat="43.08479" lon="2.57564">
        <ele>308.024</ele>
        <time>2012-03-08T11:49:23Z</time>
      </trkpt>
      <trkpt lat="43.0849" lon="2.57568">
        <ele>310.306</ele>
        <time>2012-03-08T11:49:31Z</time>
      </trkpt>
      <trkpt lat="43.08497" lon="2.57574">
        <ele>311.096</ele>
        <time>2012-03-08T11:49:38Z</time>
      </trkpt>
      <trkpt lat="43.08505" lon="2.57579">
        <ele>310.145</ele>
        <time>2012-03-08T11:49:45Z</time>
      </trkpt>
      <trkpt lat="43.08512" lon="2.57584">
        <ele>308.325</ele>
        <time>2012-03-08T11:49:52Z</time>
      </trkpt>
      <trkpt lat="43.0852" lon="2.57591">
        <ele>307.335</ele>
        <time>2012-03-08T11:49:59Z</time>
      </trkpt>
      <trkpt lat="43.08524" lon="2.57594">
        <ele>309.255</ele>
        <time>2012-03-08T11:50:04Z</time>
      </trkpt>
      <trkpt lat="43.08532" lon="2.57597">
        <ele>307.265</ele>
        <time>2012-03-08T11:50:11Z</time>
      </trkpt>
      <trkpt lat="43.08543" lon="2.57598">
        <ele>305.514</ele>
        <time>2012-03-08T11:50:18Z</time>
      </trkpt>
      <trkpt lat="43.08551" lon="2.576">
        <ele>305.725</ele>
        <time>2012-03-08T11:50:24Z</time>
      </trkpt>
      <trkpt lat="43.08565" lon="2.57604">
        <ele>297.282</ele>
        <time>2012-03-08T11:50:31Z</time>
      </trkpt>
      <trkpt lat="43.08576" lon="2.57607">
        <ele>296.056</ele>
        <time>2012-03-08T11:50:38Z</time>
      </trkpt>
      <trkpt lat="43.08587" lon="2.57609">
        <ele>296.124</ele>
        <time>2012-03-08T11:50:45Z</time>
      </trkpt>
      <trkpt lat="43.08594" lon="2.57611">
        <ele>297.055</ele>
        <time>2012-03-08T11:50:51Z</time>
      </trkpt>
      <trkpt lat="43.08601" lon="2.57609">
        <ele>305.347</ele>
        <time>2012-03-08T11:50:58Z</time>
      </trkpt>
      <trkpt lat="43.0861" lon="2.5761">
        <ele>307.997</ele>
        <time>2012-03-08T11:51:05Z</time>
      </trkpt>
      <trkpt lat="43.08622" lon="2.57609">
        <ele>306.565</ele>
        <time>2012-03-08T11:51:13Z</time>
      </trkpt>
      <trkpt lat="43.08637" lon="2.5761">
        <ele>307.995</ele>
        <time>2012-03-08T11:51:22Z</time>
      </trkpt>
      <trkpt lat="43.08649" lon="2.57611">
        <ele>304.635</ele>
        <time>2012-03-08T11:51:29Z</time>
      </trkpt>
      <trkpt lat="43.08658" lon="2.57607">
        <ele>299.984</ele>
        <time>2012-03-08T11:51:35Z</time>
      </trkpt>
      <trkpt lat="43.08657" lon="2.57601">
        <ele>297.294</ele>
        <time>2012-03-08T11:51:40Z</time>
      </trkpt>
      <trkpt lat="43.08652" lon="2.57603">
        <ele>292.673</ele>
        <time>2012-03-08T11:51:47Z</time>
      </trkpt>
      <trkpt lat="43.08649" lon="2.57601">
        <ele>292.794</ele>
        <time>2012-03-08T11:51:50Z</time>
      </trkpt>
      <trkpt lat="43.08645" lon="2.57601">
        <ele>288.583</ele>
        <time>2012-03-08T11:51:55Z</time>
      </trkpt>
      <trkpt lat="43.08639" lon="2.57597">
        <ele>289.685</ele>
        <time>2012-03-08T11:52:01Z</time>
      </trkpt>
      <trkpt lat="43.08631" lon="2.57591">
        <ele>290.876</ele>
        <time>2012-03-08T11:52:08Z</time>
      </trkpt>
      <trkpt lat="43.08619" lon="2.5758">
        <ele>293.027</ele>
        <time>2012-03-08T11:52:18Z</time>
      </trkpt>
      <trkpt lat="43.08612" lon="2.57575">
        <ele>290.455</ele>
        <time>2012-03-08T11:52:25Z</time>
      </trkpt>
      <trkpt lat="43.08603" lon="2.57567">
        <ele>290.175</ele>
        <time>2012-03-08T11:52:32Z</time>
      </trkpt>
      <trkpt lat="43.08598" lon="2.57559">
        <ele>294.078</ele>
        <time>2012-03-08T11:52:38Z</time>
      </trkpt>
      <trkpt lat="43.08595" lon="2.57554">
        <ele>291.296</ele>
        <time>2012-03-08T11:52:42Z</time>
      </trkpt>
      <trkpt lat="43.08585" lon="2.57537">
        <ele>286.263</ele>
        <time>2012-03-08T11:52:49Z</time>
      </trkpt>
      <trkpt lat="43.08582" lon="2.5753">
        <ele>284.122</ele>
        <time>2012-03-08T11:52:52Z</time>
      </trkpt>
      <trkpt lat="43.08581" lon="2.57525">
        <ele>282.172</ele>
        <time>2012-03-08T11:52:55Z</time>
      </trkpt>
      <trkpt lat="43.08586" lon="2.57507">
        <ele>284.995</ele>
        <time>2012-03-08T11:53:04Z</time>
      </trkpt>
      <trkpt lat="43.08587" lon="2.57506">
        <ele>285.425</ele>
        <time>2012-03-08T11:53:05Z</time>
      </trkpt>
      <trkpt lat="43.08594" lon="2.57498">
        <ele>285.395</ele>
        <time>2012-03-08T11:53:12Z</time>
      </trkpt>
      <trkpt lat="43.08605" lon="2.57491">
        <ele>283.024</ele>
        <time>2012-03-08T11:53:19Z</time>
      </trkpt>
      <trkpt lat="43.08615" lon="2.57485">
        <ele>282.033</ele>
        <time>2012-03-08T11:53:27Z</time>
      </trkpt>
      <trkpt lat="43.08619" lon="2.57484">
        <ele>281.242</ele>
        <time>2012-03-08T11:53:30Z</time>
      </trkpt>
      <trkpt lat="43.08628" lon="2.57479">
        <ele>279.094</ele>
        <time>2012-03-08T11:53:37Z</time>
      </trkpt>
      <trkpt lat="43.08632" lon="2.57475">
        <ele>279.345</ele>
        <time>2012-03-08T11:53:40Z</time>
      </trkpt>
      <trkpt lat="43.08638" lon="2.57464">
        <ele>278.764</ele>
        <time>2012-03-08T11:53:48Z</time>
      </trkpt>
      <trkpt lat="43.08646" lon="2.57458">
        <ele>282.396</ele>
        <time>2012-03-08T11:53:55Z</time>
      </trkpt>
      <trkpt lat="43.08655" lon="2.57457">
        <ele>285.047</ele>
        <time>2012-03-08T11:54:03Z</time>
      </trkpt>
      <trkpt lat="43.08665" lon="2.57461">
        <ele>290.878</ele>
        <time>2012-03-08T11:54:10Z</time>
      </trkpt>
      <trkpt lat="43.08674" lon="2.57465">
        <ele>287.995</ele>
        <time>2012-03-08T11:54:17Z</time>
      </trkpt>
      <trkpt lat="43.08685" lon="2.57468">
        <ele>283.735</ele>
        <time>2012-03-08T11:54:24Z</time>
      </trkpt>
      <trkpt lat="43.08698" lon="2.57471">
        <ele>279.865</ele>
        <time>2012-03-08T11:54:33Z</time>
      </trkpt>
      <trkpt lat="43.08712" lon="2.57473">
        <ele>278.735</ele>
        <time>2012-03-08T11:54:44Z</time>
      </trkpt>
      <trkpt lat="43.08721" lon="2.57472">
        <ele>280.317</ele>
        <time>2012-03-08T11:54:50Z</time>
      </trkpt>
      <trkpt lat="43.08721" lon="2.5747">
        <ele>277.725</ele>
        <time>2012-03-08T11:54:55Z</time>
      </trkpt>
      <trkpt lat="43.08719" lon="2.57474">
        <ele>268.436</ele>
        <time>2012-03-08T11:55:15Z</time>
      </trkpt>
      <trkpt lat="43.08727" lon="2.57485">
        <ele>270.498</ele>
        <time>2012-03-08T11:55:24Z</time>
      </trkpt>
      <trkpt lat="43.08731" lon="2.57498">
        <ele>271.947</ele>
        <time>2012-03-08T11:55:32Z</time>
      </trkpt>
      <trkpt lat="43.08736" lon="2.57513">
        <ele>272.347</ele>
        <time>2012-03-08T11:55:42Z</time>
      </trkpt>
      <trkpt lat="43.0874" lon="2.57526">
        <ele>272.447</ele>
        <time>2012-03-08T11:55:50Z</time>
      </trkpt>
      <trkpt lat="43.08744" lon="2.57539">
        <ele>274.278</ele>
        <time>2012-03-08T11:55:58Z</time>
      </trkpt>
      <trkpt lat="43.08745" lon="2.57551">
        <ele>273.618</ele>
        <time>2012-03-08T11:56:05Z</time>
      </trkpt>
      <trkpt lat="43.08749" lon="2.57563">
        <ele>268.876</ele>
        <time>2012-03-08T11:56:12Z</time>
      </trkpt>
      <trkpt lat="43.08752" lon="2.57576">
        <ele>258.434</ele>
        <time>2012-03-08T11:56:19Z</time>
      </trkpt>
      <trkpt lat="43.08757" lon="2.57589">
        <ele>255.904</ele>
        <time>2012-03-08T11:56:26Z</time>
      </trkpt>
      <trkpt lat="43.08762" lon="2.57603">
        <ele>259.898</ele>
        <time>2012-03-08T11:56:34Z</time>
      </trkpt>
      <trkpt lat="43.08765" lon="2.57617">
        <ele>265.109</ele>
        <time>2012-03-08T11:56:41Z</time>
      </trkpt>
      <trkpt lat="43.08771" lon="2.5763">
        <ele>263.967</ele>
        <time>2012-03-08T11:56:49Z</time>
      </trkpt>
      <trkpt lat="43.0878" lon="2.57642">
        <ele>262.306</ele>
        <time>2012-03-08T11:56:58Z</time>
      </trkpt>
      <trkpt lat="43.08787" lon="2.5765">
        <ele>262.687</ele>
        <time>2012-03-08T11:57:05Z</time>
      </trkpt>
      <trkpt lat="43.08796" lon="2.57657">
        <ele>259.576</ele>
        <time>2012-03-08T11:57:13Z</time>
      </trkpt>
      <trkpt lat="43.08804" lon="2.57664">
        <ele>255.796</ele>
        <time>2012-03-08T11:57:20Z</time>
      </trkpt>
      <trkpt lat="43.08813" lon="2.57669">
        <ele>254.336</ele>
        <time>2012-03-08T11:57:26Z</time>
      </trkpt>
      <trkpt lat="43.08821" lon="2.57672">
        <ele>253.687</ele>
        <time>2012-03-08T11:57:31Z</time>
      </trkpt>
      <trkpt lat="43.08823" lon="2.57676">
        <ele>253.307</ele>
        <time>2012-03-08T11:57:35Z</time>
      </trkpt>
      <trkpt lat="43.08822" lon="2.57682">
        <ele>253.747</ele>
        <time>2012-03-08T11:57:42Z</time>
      </trkpt>
      <trkpt lat="43.0882" lon="2.57689">
        <ele>253.885</ele>
        <time>2012-03-08T11:57:46Z</time>
      </trkpt>
      <trkpt lat="43.08816" lon="2.57695">
        <ele>255.36</ele>
        <time>2012-03-08T11:57:49Z</time>
      </trkpt>
      <trkpt lat="43.08815" lon="2.577">
        <ele>255.316</ele>
        <time>2012-03-08T11:57:54Z</time>
      </trkpt>
      <trkpt lat="43.08818" lon="2.57693">
        <ele>254.354</ele>
        <time>2012-03-08T11:58:00Z</time>
      </trkpt>
      <trkpt lat="43.08818" lon="2.57693">
        <ele>253.505</ele>
        <time>2012-03-08T11:58:01Z</time>
      </trkpt>
      <trkpt lat="43.08821" lon="2.57687">
        <ele>249.638</ele>
        <time>2012-03-08T11:58:08Z</time>
      </trkpt>
      <trkpt lat="43.08823" lon="2.57688">
        <ele>250.532</ele>
        <time>2012-03-08T11:58:13Z</time>
      </trkpt>
      <trkpt lat="43.08827" lon="2.57686">
        <ele>251.451</ele>
        <time>2012-03-08T11:58:17Z</time>
      </trkpt>
      <trkpt lat="43.08834" lon="2.57682">
        <ele>249.724</ele>
        <time>2012-03-08T11:58:22Z</time>
      </trkpt>
      <trkpt lat="43.08839" lon="2.57682">
        <ele>249.791</ele>
        <time>2012-03-08T11:58:27Z</time>
      </trkpt>
      <trkpt lat="43.08842" lon="2.57687">
        <ele>247.685</ele>
        <time>2012-03-08T11:58:33Z</time>
      </trkpt>
      <trkpt lat="43.08841" lon="2.57685">
        <ele>245.887</ele>
        <time>2012-03-08T11:58:34Z</time>
      </trkpt>
      <trkpt lat="43.08842" lon="2.57679">
        <ele>245.833</ele>
        <time>2012-03-08T11:58:39Z</time>
      </trkpt>
      <trkpt lat="43.08849" lon="2.5767">
        <ele>248.037</ele>
        <time>2012-03-08T11:58:46Z</time>
      </trkpt>
      <trkpt lat="43.08857" lon="2.57658">
        <ele>250.998</ele>
        <time>2012-03-08T11:58:55Z</time>
      </trkpt>
      <trkpt lat="43.08863" lon="2.57646">
        <ele>252.368</ele>
        <time>2012-03-08T11:59:05Z</time>
      </trkpt>
      <trkpt lat="43.08866" lon="2.5764">
        <ele>248.486</ele>
        <time>2012-03-08T11:59:11Z</time>
      </trkpt>
      <trkpt lat="43.08868" lon="2.57633">
        <ele>247.016</ele>
        <time>2012-03-08T11:59:16Z</time>
      </trkpt>
      <trkpt lat="43.0887" lon="2.57626">
        <ele>245.816</ele>
        <time>2012-03-08T11:59:20Z</time>
      </trkpt>
      <trkpt lat="43.08872" lon="2.5762">
        <ele>244.416</ele>
        <time>2012-03-08T11:59:25Z</time>
      </trkpt>
      <trkpt lat="43.08875" lon="2.57609">
        <ele>239.655</ele>
        <time>2012-03-08T11:59:33Z</time>
      </trkpt>
      <trkpt lat="43.08878" lon="2.57606">
        <ele>237.755</ele>
        <time>2012-03-08T11:59:37Z</time>
      </trkpt>
      <trkpt lat="43.08885" lon="2.57597">
        <ele>242.698</ele>
        <time>2012-03-08T11:59:45Z</time>
      </trkpt>
      <trkpt lat="43.0889" lon="2.57587">
        <ele>242.906</ele>
        <time>2012-03-08T11:59:52Z</time>
      </trkpt>
      <trkpt lat="43.08894" lon="2.5758">
        <ele>247.158</ele>
        <time>2012-03-08T11:59:58Z</time>
      </trkpt>
      <trkpt lat="43.08901" lon="2.57572">
        <ele>249.828</ele>
        <time>2012-03-08T12:00:05Z</time>
      </trkpt>
      <trkpt lat="43.08905" lon="2.57567">
        <ele>248.987</ele>
        <time>2012-03-08T12:00:10Z</time>
      </trkpt>
      <trkpt lat="43.08907" lon="2.57557">
        <ele>253.349</ele>
        <time>2012-03-08T12:00:16Z</time>
      </trkpt>
      <trkpt lat="43.08911" lon="2.57551">
        <ele>251.928</ele>
        <time>2012-03-08T12:00:22Z</time>
      </trkpt>
      <trkpt lat="43.08919" lon="2.57542">
        <ele>253.428</ele>
        <time>2012-03-08T12:00:29Z</time>
      </trkpt>
      <trkpt lat="43.08926" lon="2.57531">
        <ele>258.438</ele>
        <time>2012-03-08T12:00:38Z</time>
      </trkpt>
      <trkpt lat="43.08932" lon="2.5752">
        <ele>256.307</ele>
        <time>2012-03-08T12:00:46Z</time>
      </trkpt>
      <trkpt lat="43.08939" lon="2.57513">
        <ele>258.667</ele>
        <time>2012-03-08T12:00:53Z</time>
      </trkpt>
      <trkpt lat="43.08942" lon="2.57511">
        <ele>259.777</ele>
        <time>2012-03-08T12:00:56Z</time>
      </trkpt>
      <trkpt lat="43.08941" lon="2.57512">
        <ele>259.847</ele>
        <time>2012-03-08T12:00:58Z</time>
      </trkpt>
      <trkpt lat="43.08942" lon="2.57514">
        <ele>260.387</ele>
        <time>2012-03-08T12:01:04Z</time>
      </trkpt>
      <trkpt lat="43.08946" lon="2.57517">
        <ele>258.796</ele>
        <time>2012-03-08T12:01:28Z</time>
      </trkpt>
      <trkpt lat="43.08946" lon="2.57507">
        <ele>256.735</ele>
        <time>2012-03-08T12:01:33Z</time>
      </trkpt>
      <trkpt lat="43.08949" lon="2.57494">
        <ele>253.796</ele>
        <time>2012-03-08T12:01:39Z</time>
      </trkpt>
      <trkpt lat="43.08948" lon="2.5749">
        <ele>256.787</ele>
        <time>2012-03-08T12:01:41Z</time>
      </trkpt>
      <trkpt lat="43.08949" lon="2.57473">
        <ele>258.498</ele>
        <time>2012-03-08T12:01:50Z</time>
      </trkpt>
      <trkpt lat="43.0895" lon="2.57459">
        <ele>258.108</ele>
        <time>2012-03-08T12:01:59Z</time>
      </trkpt>
      <trkpt lat="43.0895" lon="2.57459">
        <ele>259.458</ele>
        <time>2012-03-08T12:02:05Z</time>
      </trkpt>
      <trkpt lat="43.08951" lon="2.57457">
        <ele>260.378</ele>
        <time>2012-03-08T12:02:09Z</time>
      </trkpt>
      <trkpt lat="43.08955" lon="2.57449">
        <ele>262.458</ele>
        <time>2012-03-08T12:02:16Z</time>
      </trkpt>
      <trkpt lat="43.08956" lon="2.57451">
        <ele>259.836</ele>
        <time>2012-03-08T12:02:22Z</time>
      </trkpt>
      <trkpt lat="43.08958" lon="2.5745">
        <ele>258.425</ele>
        <time>2012-03-08T12:02:24Z</time>
      </trkpt>
      <trkpt lat="43.08954" lon="2.57451">
        <ele>253.353</ele>
        <time>2012-03-08T12:02:29Z</time>
      </trkpt>
      <trkpt lat="43.08953" lon="2.57449">
        <ele>250.422</ele>
        <time>2012-03-08T12:02:31Z</time>
      </trkpt>
      <trkpt lat="43.08953" lon="2.57448">
        <ele>247.052</ele>
        <time>2012-03-08T12:02:36Z</time>
      </trkpt>
      <trkpt lat="43.08953" lon="2.57445">
        <ele>246.774</ele>
        <time>2012-03-08T12:02:43Z</time>
      </trkpt>
      <trkpt lat="43.08947" lon="2.57445">
        <ele>250.746</ele>
        <time>2012-03-08T12:02:46Z</time>
      </trkpt>
      <trkpt lat="43.08945" lon="2.57444">
        <ele>254.218</ele>
        <time>2012-03-08T12:02:50Z</time>
      </trkpt>
      <trkpt lat="43.08956" lon="2.57445">
        <ele>264.311</ele>
        <time>2012-03-08T12:02:56Z</time>
      </trkpt>
      <trkpt lat="43.08957" lon="2.57444">
        <ele>262.76</ele>
        <time>2012-03-08T12:02:57Z</time>
      </trkpt>
      <trkpt lat="43.08945" lon="2.57437">
        <ele>265.398</ele>
        <time>2012-03-08T12:03:10Z</time>
      </trkpt>
      <trkpt lat="43.08952" lon="2.57445">
        <ele>266.888</ele>
        <time>2012-03-08T12:03:11Z</time>
      </trkpt>
      <trkpt lat="43.08965" lon="2.57458">
        <ele>256.875</ele>
        <time>2012-03-08T12:03:18Z</time>
      </trkpt>
      <trkpt lat="43.08966" lon="2.57462">
        <ele>253.894</ele>
        <time>2012-03-08T12:03:22Z</time>
      </trkpt>
      <trkpt lat="43.08964" lon="2.57465">
        <ele>255.376</ele>
        <time>2012-03-08T12:03:25Z</time>
      </trkpt>
      <trkpt lat="43.08966" lon="2.57472">
        <ele>259.448</ele>
        <time>2012-03-08T12:03:31Z</time>
      </trkpt>
      <trkpt lat="43.08968" lon="2.57475">
        <ele>259.768</ele>
        <time>2012-03-08T12:03:33Z</time>
      </trkpt>
      <trkpt lat="43.0897" lon="2.57486">
        <ele>257.666</ele>
        <time>2012-03-08T12:03:39Z</time>
      </trkpt>
      <trkpt lat="43.08969" lon="2.5749">
        <ele>257.727</ele>
        <time>2012-03-08T12:03:43Z</time>
      </trkpt>
      <trkpt lat="43.08963" lon="2.57493">
        <ele>256.387</ele>
        <time>2012-03-08T12:03:48Z</time>
      </trkpt>
      <trkpt lat="43.08956" lon="2.57493">
        <ele>255.816</ele>
        <time>2012-03-08T12:03:55Z</time>
      </trkpt>
      <trkpt lat="43.08955" lon="2.57493">
        <ele>255.416</ele>
        <time>2012-03-08T12:03:56Z</time>
      </trkpt>
      <trkpt lat="43.08951" lon="2.57492">
        <ele>254.155</ele>
        <time>2012-03-08T12:03:58Z</time>
      </trkpt>
      <trkpt lat="43.08949" lon="2.57484">
        <ele>253.686</ele>
        <time>2012-03-08T12:04:03Z</time>
      </trkpt>
      <trkpt lat="43.08948" lon="2.57476">
        <ele>255.577</ele>
        <time>2012-03-08T12:04:10Z</time>
      </trkpt>
      <trkpt lat="43.08948" lon="2.57478">
        <ele>256.087</ele>
        <time>2012-03-08T12:04:15Z</time>
      </trkpt>
      <trkpt lat="43.08949" lon="2.57479">
        <ele>259.968</ele>
        <time>2012-03-08T12:04:19Z</time>
      </trkpt>
      <trkpt lat="43.0895" lon="2.57485">
        <ele>261.509</ele>
        <time>2012-03-08T12:04:23Z</time>
      </trkpt>
      <trkpt lat="43.08947" lon="2.57476">
        <ele>258.586</ele>
        <time>2012-03-08T12:04:27Z</time>
      </trkpt>
      <trkpt lat="43.08945" lon="2.57457">
        <ele>256.086</ele>
        <time>2012-03-08T12:04:35Z</time>
      </trkpt>
      <trkpt lat="43.08945" lon="2.57453">
        <ele>255.096</ele>
        <time>2012-03-08T12:04:37Z</time>
      </trkpt>
      <trkpt lat="43.08945" lon="2.57441">
        <ele>260.978</ele>
        <time>2012-03-08T12:04:44Z</time>
      </trkpt>
      <trkpt lat="43.08945" lon="2.57432">
        <ele>261.389</ele>
        <time>2012-03-08T12:04:50Z</time>
      </trkpt>
      <trkpt lat="43.08942" lon="2.57437">
        <ele>260.977</ele>
        <time>2012-03-08T12:04:55Z</time>
      </trkpt>
      <trkpt lat="43.08946" lon="2.5744">
        <ele>261.127</ele>
        <time>2012-03-08T12:05:01Z</time>
      </trkpt>
      <trkpt lat="43.08949" lon="2.57445">
        <ele>259.496</ele>
        <time>2012-03-08T12:05:11Z</time>
      </trkpt>
      <trkpt lat="43.08948" lon="2.57438">
        <ele>248.293</ele>
        <time>2012-03-08T12:05:18Z</time>
      </trkpt>
      <trkpt lat="43.08948" lon="2.57435">
        <ele>245.595</ele>
        <time>2012-03-08T12:05:37Z</time>
      </trkpt>
      <trkpt lat="43.08942" lon="2.57435">
        <ele>261.088</ele>
        <time>2012-03-08T12:06:34Z</time>
      </trkpt>
      <trkpt lat="43.08943" lon="2.57442">
        <ele>271.98</ele>
        <time>2012-03-08T12:07:05Z</time>
      </trkpt>
      <trkpt lat="43.08945" lon="2.57442">
        <ele>273.868</ele>
        <time>2012-03-08T12:08:08Z</time>
      </trkpt>
      <trkpt lat="43.08946" lon="2.57447">
        <ele>267.578</ele>
        <time>2012-03-08T12:14:00Z</time>
      </trkpt>
      <trkpt lat="43.08947" lon="2.57443">
        <ele>252.936</ele>
        <time>2012-03-08T12:18:30Z</time>
      </trkpt>
      <trkpt lat="43.08948" lon="2.57447">
        <ele>253.427</ele>
        <time>2012-03-08T12:21:01Z</time>
      </trkpt>
      <trkpt lat="43.08952" lon="2.57443">
        <ele>257.436</ele>
        <time>2012-03-08T12:24:04Z</time>
      </trkpt>
      <trkpt lat="43.08955" lon="2.57439">
        <ele>250.693</ele>
        <time>2012-03-08T12:24:11Z</time>
      </trkpt>
      <trkpt lat="43.08955" lon="2.57441">
        <ele>255.267</ele>
        <time>2012-03-08T12:24:27Z</time>
      </trkpt>
      <trkpt lat="43.08953" lon="2.57447">
        <ele>259.899</ele>
        <time>2012-03-08T12:24:33Z</time>
      </trkpt>
      <trkpt lat="43.08953" lon="2.5745">
        <ele>264.42</ele>
        <time>2012-03-08T12:24:40Z</time>
      </trkpt>
      <trkpt lat="43.0895" lon="2.57446">
        <ele>251.526</ele>
        <time>2012-03-08T12:24:58Z</time>
      </trkpt>
      <trkpt lat="43.08949" lon="2.57442">
        <ele>251.096</ele>
        <time>2012-03-08T12:25:04Z</time>
      </trkpt>
      <trkpt lat="43.08948" lon="2.57435">
        <ele>248.745</ele>
        <time>2012-03-08T12:25:10Z</time>
      </trkpt>
      <trkpt lat="43.0895" lon="2.57427">
        <ele>246.155</ele>
        <time>2012-03-08T12:25:17Z</time>
      </trkpt>
      <trkpt lat="43.08954" lon="2.57422">
        <ele>243.534</ele>
        <time>2012-03-08T12:25:23Z</time>
      </trkpt>
      <trkpt lat="43.08955" lon="2.57421">
        <ele>243.034</ele>
        <time>2012-03-08T12:25:30Z</time>
      </trkpt>
      <trkpt lat="43.08957" lon="2.57422">
        <ele>243.915</ele>
        <time>2012-03-08T12:25:32Z</time>
      </trkpt>
      <trkpt lat="43.08964" lon="2.57428">
        <ele>246.827</ele>
        <time>2012-03-08T12:25:40Z</time>
      </trkpt>
      <trkpt lat="43.08969" lon="2.57438">
        <ele>248.187</ele>
        <time>2012-03-08T12:25:47Z</time>
      </trkpt>
      <trkpt lat="43.08971" lon="2.57445">
        <ele>248.267</ele>
        <time>2012-03-08T12:25:51Z</time>
      </trkpt>
      <trkpt lat="43.08973" lon="2.57453">
        <ele>248.956</ele>
        <time>2012-03-08T12:25:58Z</time>
      </trkpt>
      <trkpt lat="43.08973" lon="2.57456">
        <ele>250.697</ele>
        <time>2012-03-08T12:26:01Z</time>
      </trkpt>
      <trkpt lat="43.08974" lon="2.57465">
        <ele>252.277</ele>
        <time>2012-03-08T12:26:07Z</time>
      </trkpt>
      <trkpt lat="43.08975" lon="2.5747">
        <ele>250.966</ele>
        <time>2012-03-08T12:26:11Z</time>
      </trkpt>
      <trkpt lat="43.08977" lon="2.57474">
        <ele>250.066</ele>
        <time>2012-03-08T12:26:16Z</time>
      </trkpt>
      <trkpt lat="43.08979" lon="2.57475">
        <ele>248.895</ele>
        <time>2012-03-08T12:26:18Z</time>
      </trkpt>
      <trkpt lat="43.0898" lon="2.5748">
        <ele>249.506</ele>
        <time>2012-03-08T12:26:23Z</time>
      </trkpt>
      <trkpt lat="43.08985" lon="2.57486">
        <ele>243.903</ele>
        <time>2012-03-08T12:26:32Z</time>
      </trkpt>
      <trkpt lat="43.08986" lon="2.57486">
        <ele>243.765</ele>
        <time>2012-03-08T12:26:33Z</time>
      </trkpt>
      <trkpt lat="43.08989" lon="2.57485">
        <ele>241.275</ele>
        <time>2012-03-08T12:26:38Z</time>
      </trkpt>
      <trkpt lat="43.08991" lon="2.57483">
        <ele>238.744</ele>
        <time>2012-03-08T12:26:42Z</time>
      </trkpt>
      <trkpt lat="43.08992" lon="2.5748">
        <ele>236.693</ele>
        <time>2012-03-08T12:26:44Z</time>
      </trkpt>
      <trkpt lat="43.08993" lon="2.57474">
        <ele>230.732</ele>
        <time>2012-03-08T12:26:50Z</time>
      </trkpt>
      <trkpt lat="43.08998" lon="2.57465">
        <ele>224.831</ele>
        <time>2012-03-08T12:26:58Z</time>
      </trkpt>
      <trkpt lat="43.09" lon="2.57463">
        <ele>224.912</ele>
        <time>2012-03-08T12:27:00Z</time>
      </trkpt>
      <trkpt lat="43.09007" lon="2.57462">
        <ele>225.133</ele>
        <time>2012-03-08T12:27:07Z</time>
      </trkpt>
      <trkpt lat="43.09014" lon="2.57463">
        <ele>221.923</ele>
        <time>2012-03-08T12:27:12Z</time>
      </trkpt>
      <trkpt lat="43.09015" lon="2.57464">
        <ele>222.434</ele>
        <time>2012-03-08T12:27:14Z</time>
      </trkpt>
      <trkpt lat="43.09021" lon="2.57468">
        <ele>221.784</ele>
        <time>2012-03-08T12:27:19Z</time>
      </trkpt>
      <trkpt lat="43.09028" lon="2.57477">
        <ele>215.154</ele>
        <time>2012-03-08T12:27:28Z</time>
      </trkpt>
      <trkpt lat="43.09036" lon="2.57485">
        <ele>219.716</ele>
        <time>2012-03-08T12:27:35Z</time>
      </trkpt>
      <trkpt lat="43.0904" lon="2.57486">
        <ele>217.134</ele>
        <time>2012-03-08T12:27:39Z</time>
      </trkpt>
      <trkpt lat="43.09046" lon="2.57484">
        <ele>217.375</ele>
        <time>2012-03-08T12:27:46Z</time>
      </trkpt>
      <trkpt lat="43.09048" lon="2.57484">
        <ele>216.505</ele>
        <time>2012-03-08T12:27:48Z</time>
      </trkpt>
      <trkpt lat="43.09051" lon="2.5748">
        <ele>216.345</ele>
        <time>2012-03-08T12:27:52Z</time>
      </trkpt>
      <trkpt lat="43.09058" lon="2.57474">
        <ele>214.024</ele>
        <time>2012-03-08T12:28:00Z</time>
      </trkpt>
      <trkpt lat="43.09069" lon="2.57471">
        <ele>215.454</ele>
        <time>2012-03-08T12:28:07Z</time>
      </trkpt>
      <trkpt lat="43.09076" lon="2.5747">
        <ele>213.074</ele>
        <time>2012-03-08T12:28:13Z</time>
      </trkpt>
      <trkpt lat="43.09085" lon="2.57473">
        <ele>214.657</ele>
        <time>2012-03-08T12:28:21Z</time>
      </trkpt>
      <trkpt lat="43.09094" lon="2.57482">
        <ele>216.718</ele>
        <time>2012-03-08T12:28:29Z</time>
      </trkpt>
      <trkpt lat="43.09097" lon="2.57486">
        <ele>217.357</ele>
        <time>2012-03-08T12:28:32Z</time>
      </trkpt>
      <trkpt lat="43.09098" lon="2.57494">
        <ele>220.548</ele>
        <time>2012-03-08T12:28:36Z</time>
      </trkpt>
      <trkpt lat="43.09096" lon="2.57502">
        <ele>225.7</ele>
        <time>2012-03-08T12:28:40Z</time>
      </trkpt>
      <trkpt lat="43.09094" lon="2.5751">
        <ele>228.029</ele>
        <time>2012-03-08T12:28:45Z</time>
      </trkpt>
      <trkpt lat="43.09091" lon="2.57521">
        <ele>226.217</ele>
        <time>2012-03-08T12:28:52Z</time>
      </trkpt>
      <trkpt lat="43.09091" lon="2.57523">
        <ele>224.777</ele>
        <time>2012-03-08T12:28:53Z</time>
      </trkpt>
      <trkpt lat="43.09094" lon="2.5753">
        <ele>223.426</ele>
        <time>2012-03-08T12:28:59Z</time>
      </trkpt>
      <trkpt lat="43.09097" lon="2.57527">
        <ele>217.764</ele>
        <time>2012-03-08T12:29:04Z</time>
      </trkpt>
      <trkpt lat="43.09105" lon="2.57522">
        <ele>209.702</ele>
        <time>2012-03-08T12:29:12Z</time>
      </trkpt>
      <trkpt lat="43.0911" lon="2.5752">
        <ele>207.392</ele>
        <time>2012-03-08T12:29:18Z</time>
      </trkpt>
      <trkpt lat="43.09116" lon="2.57517">
        <ele>206.434</ele>
        <time>2012-03-08T12:29:23Z</time>
      </trkpt>
      <trkpt lat="43.09127" lon="2.57512">
        <ele>206.205</ele>
        <time>2012-03-08T12:29:31Z</time>
      </trkpt>
      <trkpt lat="43.09134" lon="2.57509">
        <ele>203.173</ele>
        <time>2012-03-08T12:29:37Z</time>
      </trkpt>
      <trkpt lat="43.09143" lon="2.57508">
        <ele>199.113</ele>
        <time>2012-03-08T12:29:43Z</time>
      </trkpt>
      <trkpt lat="43.09155" lon="2.57508">
        <ele>186.342</ele>
        <time>2012-03-08T12:29:52Z</time>
      </trkpt>
      <trkpt lat="43.09162" lon="2.57507">
        <ele>186.994</ele>
        <time>2012-03-08T12:29:57Z</time>
      </trkpt>
      <trkpt lat="43.0917" lon="2.57513">
        <ele>193.417</ele>
        <time>2012-03-08T12:30:04Z</time>
      </trkpt>
      <trkpt lat="43.09171" lon="2.57517">
        <ele>196.468</ele>
        <time>2012-03-08T12:30:07Z</time>
      </trkpt>
      <trkpt lat="43.09166" lon="2.57533">
        <ele>202.999</ele>
        <time>2012-03-08T12:30:17Z</time>
      </trkpt>
      <trkpt lat="43.09162" lon="2.57545">
        <ele>204.429</ele>
        <time>2012-03-08T12:30:24Z</time>
      </trkpt>
      <trkpt lat="43.09158" lon="2.57554">
        <ele>204.238</ele>
        <time>2012-03-08T12:30:30Z</time>
      </trkpt>
      <trkpt lat="43.09152" lon="2.57566">
        <ele>203.777</ele>
        <time>2012-03-08T12:30:38Z</time>
      </trkpt>
      <trkpt lat="43.09146" lon="2.57576">
        <ele>206.288</ele>
        <time>2012-03-08T12:30:46Z</time>
      </trkpt>
      <trkpt lat="43.0914" lon="2.57583">
        <ele>205.747</ele>
        <time>2012-03-08T12:30:52Z</time>
      </trkpt>
      <trkpt lat="43.09138" lon="2.57585">
        <ele>203.836</ele>
        <time>2012-03-08T12:30:54Z</time>
      </trkpt>
      <trkpt lat="43.09133" lon="2.57592">
        <ele>201.887</ele>
        <time>2012-03-08T12:30:59Z</time>
      </trkpt>
      <trkpt lat="43.09128" lon="2.57596">
        <ele>199.846</ele>
        <time>2012-03-08T12:31:05Z</time>
      </trkpt>
      <trkpt lat="43.09123" lon="2.57603">
        <ele>199.456</ele>
        <time>2012-03-08T12:31:10Z</time>
      </trkpt>
      <trkpt lat="43.09115" lon="2.57613">
        <ele>197.725</ele>
        <time>2012-03-08T12:31:17Z</time>
      </trkpt>
      <trkpt lat="43.0911" lon="2.57618">
        <ele>199.768</ele>
        <time>2012-03-08T12:31:21Z</time>
      </trkpt>
      <trkpt lat="43.09105" lon="2.57626">
        <ele>194.486</ele>
        <time>2012-03-08T12:31:28Z</time>
      </trkpt>
      <trkpt lat="43.091" lon="2.57635">
        <ele>197.926</ele>
        <time>2012-03-08T12:31:34Z</time>
      </trkpt>
      <trkpt lat="43.09093" lon="2.5764">
        <ele>194.576</ele>
        <time>2012-03-08T12:31:41Z</time>
      </trkpt>
      <trkpt lat="43.09092" lon="2.57647">
        <ele>193.006</ele>
        <time>2012-03-08T12:31:47Z</time>
      </trkpt>
      <trkpt lat="43.09094" lon="2.57648">
        <ele>190.115</ele>
        <time>2012-03-08T12:31:50Z</time>
      </trkpt>
      <trkpt lat="43.09097" lon="2.57647">
        <ele>183.474</ele>
        <time>2012-03-08T12:31:57Z</time>
      </trkpt>
      <trkpt lat="43.09098" lon="2.57647">
        <ele>179.234</ele>
        <time>2012-03-08T12:32:02Z</time>
      </trkpt>
      <trkpt lat="43.09109" lon="2.5764">
        <ele>166.131</ele>
        <time>2012-03-08T12:32:09Z</time>
      </trkpt>
      <trkpt lat="43.09111" lon="2.57638">
        <ele>165.011</ele>
        <time>2012-03-08T12:32:11Z</time>
      </trkpt>
      <trkpt lat="43.09118" lon="2.57634">
        <ele>162.573</ele>
        <time>2012-03-08T12:32:17Z</time>
      </trkpt>
      <trkpt lat="43.09126" lon="2.57633">
        <ele>161.685</ele>
        <time>2012-03-08T12:32:24Z</time>
      </trkpt>
      <trkpt lat="43.0913" lon="2.5763">
        <ele>159.074</ele>
        <time>2012-03-08T12:32:30Z</time>
      </trkpt>
      <trkpt lat="43.09142" lon="2.57626">
        <ele>155.822</ele>
        <time>2012-03-08T12:32:38Z</time>
      </trkpt>
      <trkpt lat="43.09151" lon="2.57625">
        <ele>151.493</ele>
        <time>2012-03-08T12:32:45Z</time>
      </trkpt>
      <trkpt lat="43.09161" lon="2.57623">
        <ele>148.613</ele>
        <time>2012-03-08T12:32:51Z</time>
      </trkpt>
      <trkpt lat="43.0917" lon="2.57623">
        <ele>143.545</ele>
        <time>2012-03-08T12:32:58Z</time>
      </trkpt>
      <trkpt lat="43.09173" lon="2.57627">
        <ele>150.688</ele>
        <time>2012-03-08T12:33:03Z</time>
      </trkpt>
      <trkpt lat="43.09185" lon="2.57629">
        <ele>163.641</ele>
        <time>2012-03-08T12:33:12Z</time>
      </trkpt>
      <trkpt lat="43.09192" lon="2.57629">
        <ele>161.608</ele>
        <time>2012-03-08T12:33:18Z</time>
      </trkpt>
      <trkpt lat="43.09198" lon="2.57626">
        <ele>158.505</ele>
        <time>2012-03-08T12:33:22Z</time>
      </trkpt>
      <trkpt lat="43.09204" lon="2.57625">
        <ele>154.256</ele>
        <time>2012-03-08T12:33:27Z</time>
      </trkpt>
      <trkpt lat="43.09205" lon="2.57625">
        <ele>155.476</ele>
        <time>2012-03-08T12:33:28Z</time>
      </trkpt>
      <trkpt lat="43.09211" lon="2.57627">
        <ele>157.676</ele>
        <time>2012-03-08T12:33:31Z</time>
      </trkpt>
      <trkpt lat="43.09213" lon="2.57632">
        <ele>151.235</ele>
        <time>2012-03-08T12:33:38Z</time>
      </trkpt>
      <trkpt lat="43.09213" lon="2.57639">
        <ele>152.076</ele>
        <time>2012-03-08T12:33:44Z</time>
      </trkpt>
      <trkpt lat="43.09212" lon="2.57651">
        <ele>156.019</ele>
        <time>2012-03-08T12:33:52Z</time>
      </trkpt>
      <trkpt lat="43.09208" lon="2.57657">
        <ele>164.451</ele>
        <time>2012-03-08T12:33:57Z</time>
      </trkpt>
      <trkpt lat="43.09205" lon="2.57661">
        <ele>167.661</ele>
        <time>2012-03-08T12:34:02Z</time>
      </trkpt>
      <trkpt lat="43.09203" lon="2.57665">
        <ele>167.769</ele>
        <time>2012-03-08T12:34:08Z</time>
      </trkpt>
      <trkpt lat="43.09197" lon="2.57673">
        <ele>165.168</ele>
        <time>2012-03-08T12:34:17Z</time>
      </trkpt>
      <trkpt lat="43.0919" lon="2.57686">
        <ele>160.447</ele>
        <time>2012-03-08T12:34:29Z</time>
      </trkpt>
      <trkpt lat="43.09184" lon="2.57695">
        <ele>157.286</ele>
        <time>2012-03-08T12:34:38Z</time>
      </trkpt>
      <trkpt lat="43.09178" lon="2.577">
        <ele>160.249</ele>
        <time>2012-03-08T12:34:44Z</time>
      </trkpt>
      <trkpt lat="43.09177" lon="2.57701">
        <ele>160.78</ele>
        <time>2012-03-08T12:34:45Z</time>
      </trkpt>
      <trkpt lat="43.09169" lon="2.5771">
        <ele>165.499</ele>
        <time>2012-03-08T12:34:52Z</time>
      </trkpt>
      <trkpt lat="43.09166" lon="2.57714">
        <ele>168.019</ele>
        <time>2012-03-08T12:34:56Z</time>
      </trkpt>
      <trkpt lat="43.09165" lon="2.57714">
        <ele>161.588</ele>
        <time>2012-03-08T12:35:07Z</time>
      </trkpt>
      <trkpt lat="43.09161" lon="2.57717">
        <ele>161.748</ele>
        <time>2012-03-08T12:35:12Z</time>
      </trkpt>
      <trkpt lat="43.09157" lon="2.5772">
        <ele>160.118</ele>
        <time>2012-03-08T12:35:17Z</time>
      </trkpt>
      <trkpt lat="43.09157" lon="2.57721">
        <ele>160.078</ele>
        <time>2012-03-08T12:35:18Z</time>
      </trkpt>
      <trkpt lat="43.09154" lon="2.57724">
        <ele>160.479</ele>
        <time>2012-03-08T12:35:22Z</time>
      </trkpt>
      <trkpt lat="43.09147" lon="2.57732">
        <ele>157.157</ele>
        <time>2012-03-08T12:35:31Z</time>
      </trkpt>
      <trkpt lat="43.09141" lon="2.57738">
        <ele>154.746</ele>
        <time>2012-03-08T12:35:37Z</time>
      </trkpt>
      <trkpt lat="43.09137" lon="2.57742">
        <ele>154.807</ele>
        <time>2012-03-08T12:35:42Z</time>
      </trkpt>
      <trkpt lat="43.09132" lon="2.57746">
        <ele>152.897</ele>
        <time>2012-03-08T12:35:48Z</time>
      </trkpt>
      <trkpt lat="43.09129" lon="2.57748">
        <ele>151.186</ele>
        <time>2012-03-08T12:35:51Z</time>
      </trkpt>
      <trkpt lat="43.0912" lon="2.57755">
        <ele>151.358</ele>
        <time>2012-03-08T12:35:58Z</time>
      </trkpt>
      <trkpt lat="43.09119" lon="2.57757">
        <ele>153.158</ele>
        <time>2012-03-08T12:36:04Z</time>
      </trkpt>
      <trkpt lat="43.09117" lon="2.57758">
        <ele>157.329</ele>
        <time>2012-03-08T12:36:09Z</time>
      </trkpt>
      <trkpt lat="43.09112" lon="2.57762">
        <ele>157.739</ele>
        <time>2012-03-08T12:36:14Z</time>
      </trkpt>
      <trkpt lat="43.09108" lon="2.57763">
        <ele>157.569</ele>
        <time>2012-03-08T12:36:18Z</time>
      </trkpt>
      <trkpt lat="43.09102" lon="2.57762">
        <ele>157.298</ele>
        <time>2012-03-08T12:36:24Z</time>
      </trkpt>
      <trkpt lat="43.091" lon="2.5776">
        <ele>155.018</ele>
        <time>2012-03-08T12:36:28Z</time>
      </trkpt>
      <trkpt lat="43.09095" lon="2.57759">
        <ele>152.677</ele>
        <time>2012-03-08T12:36:36Z</time>
      </trkpt>
      <trkpt lat="43.09085" lon="2.57758">
        <ele>153.578</ele>
        <time>2012-03-08T12:36:47Z</time>
      </trkpt>
      <trkpt lat="43.0908" lon="2.57757">
        <ele>146.847</ele>
        <time>2012-03-08T12:36:56Z</time>
      </trkpt>
      <trkpt lat="43.09075" lon="2.57757">
        <ele>145.417</ele>
        <time>2012-03-08T12:37:02Z</time>
      </trkpt>
      <trkpt lat="43.09067" lon="2.5776">
        <ele>147.658</ele>
        <time>2012-03-08T12:37:09Z</time>
      </trkpt>
      <trkpt lat="43.09059" lon="2.57762">
        <ele>148.968</ele>
        <time>2012-03-08T12:37:16Z</time>
      </trkpt>
      <trkpt lat="43.0905" lon="2.57765">
        <ele>149.238</ele>
        <time>2012-03-08T12:37:24Z</time>
      </trkpt>
      <trkpt lat="43.09039" lon="2.57772">
        <ele>151.791</ele>
        <time>2012-03-08T12:37:32Z</time>
      </trkpt>
      <trkpt lat="43.0903" lon="2.57776">
        <ele>151.878</ele>
        <time>2012-03-08T12:37:40Z</time>
      </trkpt>
      <trkpt lat="43.09021" lon="2.57778">
        <ele>152.159</ele>
        <time>2012-03-08T12:37:48Z</time>
      </trkpt>
      <trkpt lat="43.09011" lon="2.57782">
        <ele>152.919</ele>
        <time>2012-03-08T12:37:57Z</time>
      </trkpt>
      <trkpt lat="43.09002" lon="2.57783">
        <ele>151.637</ele>
        <time>2012-03-08T12:38:05Z</time>
      </trkpt>
      <trkpt lat="43.08994" lon="2.57784">
        <ele>151.988</ele>
        <time>2012-03-08T12:38:12Z</time>
      </trkpt>
      <trkpt lat="43.08987" lon="2.57784">
        <ele>152.318</ele>
        <time>2012-03-08T12:38:19Z</time>
      </trkpt>
      <trkpt lat="43.08977" lon="2.57785">
        <ele>153.228</ele>
        <time>2012-03-08T12:38:26Z</time>
      </trkpt>
      <trkpt lat="43.08963" lon="2.57784">
        <ele>152.578</ele>
        <time>2012-03-08T12:38:34Z</time>
      </trkpt>
      <trkpt lat="43.08954" lon="2.57784">
        <ele>154.138</ele>
        <time>2012-03-08T12:38:40Z</time>
      </trkpt>
      <trkpt lat="43.08945" lon="2.57785">
        <ele>153.088</ele>
        <time>2012-03-08T12:38:48Z</time>
      </trkpt>
      <trkpt lat="43.08939" lon="2.57785">
        <ele>148.527</ele>
        <time>2012-03-08T12:38:53Z</time>
      </trkpt>
      <trkpt lat="43.08931" lon="2.57787">
        <ele>151.418</ele>
        <time>2012-03-08T12:39:01Z</time>
      </trkpt>
      <trkpt lat="43.08924" lon="2.5779">
        <ele>151.159</ele>
        <time>2012-03-08T12:39:08Z</time>
      </trkpt>
      <trkpt lat="43.08924" lon="2.57791">
        <ele>151.539</ele>
        <time>2012-03-08T12:39:09Z</time>
      </trkpt>
      <trkpt lat="43.08922" lon="2.57794">
        <ele>151.599</ele>
        <time>2012-03-08T12:39:11Z</time>
      </trkpt>
      <trkpt lat="43.08918" lon="2.57803">
        <ele>150.817</ele>
        <time>2012-03-08T12:39:18Z</time>
      </trkpt>
      <trkpt lat="43.08916" lon="2.57811">
        <ele>150.646</ele>
        <time>2012-03-08T12:39:24Z</time>
      </trkpt>
      <trkpt lat="43.08914" lon="2.5782">
        <ele>154.998</ele>
        <time>2012-03-08T12:39:30Z</time>
      </trkpt>
      <trkpt lat="43.08912" lon="2.57833">
        <ele>159.918</ele>
        <time>2012-03-08T12:39:38Z</time>
      </trkpt>
      <trkpt lat="43.08911" lon="2.57844">
        <ele>158.928</ele>
        <time>2012-03-08T12:39:45Z</time>
      </trkpt>
      <trkpt lat="43.08911" lon="2.57857">
        <ele>156.977</ele>
        <time>2012-03-08T12:39:52Z</time>
      </trkpt>
      <trkpt lat="43.08911" lon="2.57862">
        <ele>156.556</ele>
        <time>2012-03-08T12:39:55Z</time>
      </trkpt>
      <trkpt lat="43.08906" lon="2.57871">
        <ele>157.277</ele>
        <time>2012-03-08T12:40:04Z</time>
      </trkpt>
      <trkpt lat="43.08902" lon="2.57875">
        <ele>155.547</ele>
        <time>2012-03-08T12:40:10Z</time>
      </trkpt>
      <trkpt lat="43.08898" lon="2.57882">
        <ele>164.33</ele>
        <time>2012-03-08T12:40:15Z</time>
      </trkpt>
      <trkpt lat="43.08893" lon="2.57899">
        <ele>173.699</ele>
        <time>2012-03-08T12:40:24Z</time>
      </trkpt>
      <trkpt lat="43.08892" lon="2.57914">
        <ele>177.973</ele>
        <time>2012-03-08T12:40:32Z</time>
      </trkpt>
      <trkpt lat="43.0889" lon="2.57917">
        <ele>180.821</ele>
        <time>2012-03-08T12:40:35Z</time>
      </trkpt>
      <trkpt lat="43.08887" lon="2.57932">
        <ele>182.989</ele>
        <time>2012-03-08T12:40:44Z</time>
      </trkpt>
      <trkpt lat="43.08883" lon="2.57941">
        <ele>178.677</ele>
        <time>2012-03-08T12:40:51Z</time>
      </trkpt>
      <trkpt lat="43.08881" lon="2.57952">
        <ele>183.087</ele>
        <time>2012-03-08T12:40:59Z</time>
      </trkpt>
      <trkpt lat="43.08881" lon="2.57959">
        <ele>184.057</ele>
        <time>2012-03-08T12:41:04Z</time>
      </trkpt>
      <trkpt lat="43.08882" lon="2.5797">
        <ele>184.897</ele>
        <time>2012-03-08T12:41:10Z</time>
      </trkpt>
      <trkpt lat="43.08879" lon="2.57988">
        <ele>177.996</ele>
        <time>2012-03-08T12:41:20Z</time>
      </trkpt>
      <trkpt lat="43.08879" lon="2.58002">
        <ele>179.127</ele>
        <time>2012-03-08T12:41:28Z</time>
      </trkpt>
      <trkpt lat="43.08879" lon="2.58011">
        <ele>176.616</ele>
        <time>2012-03-08T12:41:34Z</time>
      </trkpt>
      <trkpt lat="43.08879" lon="2.58023">
        <ele>183.759</ele>
        <time>2012-03-08T12:41:42Z</time>
      </trkpt>
      <trkpt lat="43.08876" lon="2.58033">
        <ele>180.197</ele>
        <time>2012-03-08T12:41:48Z</time>
      </trkpt>
      <trkpt lat="43.08875" lon="2.58044">
        <ele>180.628</ele>
        <time>2012-03-08T12:41:54Z</time>
      </trkpt>
      <trkpt lat="43.08874" lon="2.58055">
        <ele>182.478</ele>
        <time>2012-03-08T12:42:01Z</time>
      </trkpt>
      <trkpt lat="43.08873" lon="2.58063">
        <ele>184.979</ele>
        <time>2012-03-08T12:42:07Z</time>
      </trkpt>
      <trkpt lat="43.0887" lon="2.58068">
        <ele>186.379</ele>
        <time>2012-03-08T12:42:11Z</time>
      </trkpt>
      <trkpt lat="43.0886" lon="2.58073">
        <ele>189.089</ele>
        <time>2012-03-08T12:42:22Z</time>
      </trkpt>
      <trkpt lat="43.08854" lon="2.5807">
        <ele>189.949</ele>
        <time>2012-03-08T12:42:28Z</time>
      </trkpt>
      <trkpt lat="43.0885" lon="2.58069">
        <ele>192.15</ele>
        <time>2012-03-08T12:42:33Z</time>
      </trkpt>
      <trkpt lat="43.08846" lon="2.58071">
        <ele>192.439</ele>
        <time>2012-03-08T12:42:36Z</time>
      </trkpt>
      <trkpt lat="43.08839" lon="2.58079">
        <ele>194.279</ele>
        <time>2012-03-08T12:42:46Z</time>
      </trkpt>
      <trkpt lat="43.08836" lon="2.58083">
        <ele>195.099</ele>
        <time>2012-03-08T12:42:50Z</time>
      </trkpt>
      <trkpt lat="43.08832" lon="2.58088">
        <ele>195.559</ele>
        <time>2012-03-08T12:42:54Z</time>
      </trkpt>
      <trkpt lat="43.08827" lon="2.58096">
        <ele>199.589</ele>
        <time>2012-03-08T12:43:02Z</time>
      </trkpt>
      <trkpt lat="43.0882" lon="2.58101">
        <ele>200.54</ele>
        <time>2012-03-08T12:43:07Z</time>
      </trkpt>
      <trkpt lat="43.08817" lon="2.58103">
        <ele>200.139</ele>
        <time>2012-03-08T12:43:10Z</time>
      </trkpt>
      <trkpt lat="43.0881" lon="2.5811">
        <ele>199.538</ele>
        <time>2012-03-08T12:43:18Z</time>
      </trkpt>
      <trkpt lat="43.08803" lon="2.58117">
        <ele>202.369</ele>
        <time>2012-03-08T12:43:26Z</time>
      </trkpt>
      <trkpt lat="43.08799" lon="2.58123">
        <ele>201.519</ele>
        <time>2012-03-08T12:43:32Z</time>
      </trkpt>
      <trkpt lat="43.08789" lon="2.58128">
        <ele>201.919</ele>
        <time>2012-03-08T12:43:41Z</time>
      </trkpt>
      <trkpt lat="43.08783" lon="2.58131">
        <ele>200.638</ele>
        <time>2012-03-08T12:43:48Z</time>
      </trkpt>
      <trkpt lat="43.08779" lon="2.58137">
        <ele>199.578</ele>
        <time>2012-03-08T12:43:52Z</time>
      </trkpt>
      <trkpt lat="43.08774" lon="2.58143">
        <ele>198.708</ele>
        <time>2012-03-08T12:43:58Z</time>
      </trkpt>
      <trkpt lat="43.08767" lon="2.58154">
        <ele>199.908</ele>
        <time>2012-03-08T12:44:05Z</time>
      </trkpt>
      <trkpt lat="43.0876" lon="2.58162">
        <ele>203.89</ele>
        <time>2012-03-08T12:44:11Z</time>
      </trkpt>
      <trkpt lat="43.08753" lon="2.58171">
        <ele>202.948</ele>
        <time>2012-03-08T12:44:21Z</time>
      </trkpt>
      <trkpt lat="43.08746" lon="2.58175">
        <ele>202.968</ele>
        <time>2012-03-08T12:44:28Z</time>
      </trkpt>
      <trkpt lat="43.08738" lon="2.58182">
        <ele>204.089</ele>
        <time>2012-03-08T12:44:35Z</time>
      </trkpt>
      <trkpt lat="43.08732" lon="2.58183">
        <ele>200.077</ele>
        <time>2012-03-08T12:44:42Z</time>
      </trkpt>
      <trkpt lat="43.08723" lon="2.58186">
        <ele>196.568</ele>
        <time>2012-03-08T12:44:52Z</time>
      </trkpt>
      <trkpt lat="43.08714" lon="2.58194">
        <ele>200.82</ele>
        <time>2012-03-08T12:44:58Z</time>
      </trkpt>
      <trkpt lat="43.08708" lon="2.58197">
        <ele>201.529</ele>
        <time>2012-03-08T12:45:05Z</time>
      </trkpt>
      <trkpt lat="43.08703" lon="2.58203">
        <ele>202.589</ele>
        <time>2012-03-08T12:45:10Z</time>
      </trkpt>
      <trkpt lat="43.08698" lon="2.58207">
        <ele>203.819</ele>
        <time>2012-03-08T12:45:16Z</time>
      </trkpt>
      <trkpt lat="43.08693" lon="2.58213">
        <ele>202.958</ele>
        <time>2012-03-08T12:45:23Z</time>
      </trkpt>
      <trkpt lat="43.08683" lon="2.58227">
        <ele>203.659</ele>
        <time>2012-03-08T12:45:32Z</time>
      </trkpt>
      <trkpt lat="43.08678" lon="2.5823">
        <ele>204.999</ele>
        <time>2012-03-08T12:45:37Z</time>
      </trkpt>
      <trkpt lat="43.08671" lon="2.58238">
        <ele>205.329</ele>
        <time>2012-03-08T12:45:46Z</time>
      </trkpt>
      <trkpt lat="43.08668" lon="2.58246">
        <ele>205.748</ele>
        <time>2012-03-08T12:45:52Z</time>
      </trkpt>
      <trkpt lat="43.08666" lon="2.58254">
        <ele>207.729</ele>
        <time>2012-03-08T12:45:56Z</time>
      </trkpt>
      <trkpt lat="43.08663" lon="2.58269">
        <ele>211.078</ele>
        <time>2012-03-08T12:46:04Z</time>
      </trkpt>
      <trkpt lat="43.08661" lon="2.58273">
        <ele>208.997</ele>
        <time>2012-03-08T12:46:09Z</time>
      </trkpt>
      <trkpt lat="43.08659" lon="2.58274">
        <ele>208.684</ele>
        <time>2012-03-08T12:46:12Z</time>
      </trkpt>
      <trkpt lat="43.08652" lon="2.58287">
        <ele>211.269</ele>
        <time>2012-03-08T12:46:21Z</time>
      </trkpt>
      <trkpt lat="43.08647" lon="2.58299">
        <ele>209.81</ele>
        <time>2012-03-08T12:46:29Z</time>
      </trkpt>
      <trkpt lat="43.08642" lon="2.58308">
        <ele>208.707</ele>
        <time>2012-03-08T12:46:36Z</time>
      </trkpt>
      <trkpt lat="43.0864" lon="2.58316">
        <ele>211.131</ele>
        <time>2012-03-08T12:46:41Z</time>
      </trkpt>
      <trkpt lat="43.0864" lon="2.5833">
        <ele>214.509</ele>
        <time>2012-03-08T12:46:49Z</time>
      </trkpt>
      <trkpt lat="43.08641" lon="2.5834">
        <ele>216.599</ele>
        <time>2012-03-08T12:46:54Z</time>
      </trkpt>
      <trkpt lat="43.08645" lon="2.58347">
        <ele>215.197</ele>
        <time>2012-03-08T12:47:00Z</time>
      </trkpt>
      <trkpt lat="43.08647" lon="2.58352">
        <ele>213.523</ele>
        <time>2012-03-08T12:47:04Z</time>
      </trkpt>
      <trkpt lat="43.08653" lon="2.58359">
        <ele>211.882</ele>
        <time>2012-03-08T12:47:11Z</time>
      </trkpt>
      <trkpt lat="43.08654" lon="2.58361">
        <ele>209.866</ele>
        <time>2012-03-08T12:47:14Z</time>
      </trkpt>
      <trkpt lat="43.08658" lon="2.58368">
        <ele>208.286</ele>
        <time>2012-03-08T12:47:21Z</time>
      </trkpt>
      <trkpt lat="43.08664" lon="2.58379">
        <ele>208.038</ele>
        <time>2012-03-08T12:47:30Z</time>
      </trkpt>
      <trkpt lat="43.08667" lon="2.58385">
        <ele>211.96</ele>
        <time>2012-03-08T12:47:34Z</time>
      </trkpt>
      <trkpt lat="43.08672" lon="2.58402">
        <ele>220.766</ele>
        <time>2012-03-08T12:47:43Z</time>
      </trkpt>
      <trkpt lat="43.08677" lon="2.5841">
        <ele>222.489</ele>
        <time>2012-03-08T12:47:50Z</time>
      </trkpt>
      <trkpt lat="43.0868" lon="2.58425">
        <ele>222.413</ele>
        <time>2012-03-08T12:47:59Z</time>
      </trkpt>
      <trkpt lat="43.08681" lon="2.58437">
        <ele>222.638</ele>
        <time>2012-03-08T12:48:06Z</time>
      </trkpt>
      <trkpt lat="43.08682" lon="2.58453">
        <ele>222.658</ele>
        <time>2012-03-08T12:48:15Z</time>
      </trkpt>
      <trkpt lat="43.08683" lon="2.58465">
        <ele>224.944</ele>
        <time>2012-03-08T12:48:22Z</time>
      </trkpt>
      <trkpt lat="43.08686" lon="2.58475">
        <ele>223.948</ele>
        <time>2012-03-08T12:48:30Z</time>
      </trkpt>
      <trkpt lat="43.08687" lon="2.58476">
        <ele>223.788</ele>
        <time>2012-03-08T12:48:31Z</time>
      </trkpt>
      <trkpt lat="43.08691" lon="2.5849">
        <ele>225.966</ele>
        <time>2012-03-08T12:48:39Z</time>
      </trkpt>
      <trkpt lat="43.08695" lon="2.585">
        <ele>224.041</ele>
        <time>2012-03-08T12:48:47Z</time>
      </trkpt>
      <trkpt lat="43.087" lon="2.58513">
        <ele>225.257</ele>
        <time>2012-03-08T12:48:56Z</time>
      </trkpt>
      <trkpt lat="43.08701" lon="2.58515">
        <ele>224.187</ele>
        <time>2012-03-08T12:48:58Z</time>
      </trkpt>
      <trkpt lat="43.08705" lon="2.58524">
        <ele>221.767</ele>
        <time>2012-03-08T12:49:06Z</time>
      </trkpt>
      <trkpt lat="43.08709" lon="2.58528">
        <ele>220.537</ele>
        <time>2012-03-08T12:49:10Z</time>
      </trkpt>
      <trkpt lat="43.08717" lon="2.58536">
        <ele>220.393</ele>
        <time>2012-03-08T12:49:18Z</time>
      </trkpt>
      <trkpt lat="43.0872" lon="2.58538">
        <ele>220.688</ele>
        <time>2012-03-08T12:49:20Z</time>
      </trkpt>
      <trkpt lat="43.08726" lon="2.58553">
        <ele>224.929</ele>
        <time>2012-03-08T12:49:29Z</time>
      </trkpt>
      <trkpt lat="43.0873" lon="2.58567">
        <ele>227.831</ele>
        <time>2012-03-08T12:49:37Z</time>
      </trkpt>
      <trkpt lat="43.08736" lon="2.58581">
        <ele>231.95</ele>
        <time>2012-03-08T12:49:44Z</time>
      </trkpt>
      <trkpt lat="43.08738" lon="2.5859">
        <ele>231.859</ele>
        <time>2012-03-08T12:49:50Z</time>
      </trkpt>
      <trkpt lat="43.08741" lon="2.58604">
        <ele>230.968</ele>
        <time>2012-03-08T12:49:58Z</time>
      </trkpt>
      <trkpt lat="43.08743" lon="2.58614">
        <ele>222.476</ele>
        <time>2012-03-08T12:50:07Z</time>
      </trkpt>
      <trkpt lat="43.08744" lon="2.58627">
        <ele>225.347</ele>
        <time>2012-03-08T12:50:13Z</time>
      </trkpt>
      <trkpt lat="43.08744" lon="2.5863">
        <ele>226.361</ele>
        <time>2012-03-08T12:50:14Z</time>
      </trkpt>
      <trkpt lat="43.08745" lon="2.58643">
        <ele>229.2</ele>
        <time>2012-03-08T12:50:22Z</time>
      </trkpt>
      <trkpt lat="43.08747" lon="2.58655">
        <ele>232.983</ele>
        <time>2012-03-08T12:50:28Z</time>
      </trkpt>
      <trkpt lat="43.08747" lon="2.5866">
        <ele>233.682</ele>
        <time>2012-03-08T12:50:30Z</time>
      </trkpt>
      <trkpt lat="43.08749" lon="2.58667">
        <ele>230.214</ele>
        <time>2012-03-08T12:50:36Z</time>
      </trkpt>
      <trkpt lat="43.08751" lon="2.58671">
        <ele>225.698</ele>
        <time>2012-03-08T12:50:41Z</time>
      </trkpt>
      <trkpt lat="43.08753" lon="2.58676">
        <ele>222.896</ele>
        <time>2012-03-08T12:50:45Z</time>
      </trkpt>
      <trkpt lat="43.08756" lon="2.58682">
        <ele>218.232</ele>
        <time>2012-03-08T12:50:51Z</time>
      </trkpt>
      <trkpt lat="43.08757" lon="2.58684">
        <ele>216.445</ele>
        <time>2012-03-08T12:50:53Z</time>
      </trkpt>
      <trkpt lat="43.08757" lon="2.58688">
        <ele>216.216</ele>
        <time>2012-03-08T12:50:55Z</time>
      </trkpt>
      <trkpt lat="43.08758" lon="2.58698">
        <ele>213.367</ele>
        <time>2012-03-08T12:51:03Z</time>
      </trkpt>
      <trkpt lat="43.08761" lon="2.5871">
        <ele>220.907</ele>
        <time>2012-03-08T12:51:09Z</time>
      </trkpt>
      <trkpt lat="43.08765" lon="2.58717">
        <ele>217.718</ele>
        <time>2012-03-08T12:51:16Z</time>
      </trkpt>
      <trkpt lat="43.08768" lon="2.58727">
        <ele>217.48</ele>
        <time>2012-03-08T12:51:24Z</time>
      </trkpt>
      <trkpt lat="43.08774" lon="2.58733">
        <ele>217.239</ele>
        <time>2012-03-08T12:51:30Z</time>
      </trkpt>
      <trkpt lat="43.08776" lon="2.58735">
        <ele>216.906</ele>
        <time>2012-03-08T12:51:32Z</time>
      </trkpt>
      <trkpt lat="43.08782" lon="2.58744">
        <ele>218.469</ele>
        <time>2012-03-08T12:51:40Z</time>
      </trkpt>
      <trkpt lat="43.08791" lon="2.58749">
        <ele>217.717</ele>
        <time>2012-03-08T12:51:47Z</time>
      </trkpt>
      <trkpt lat="43.08803" lon="2.58755">
        <ele>224.599</ele>
        <time>2012-03-08T12:51:53Z</time>
      </trkpt>
      <trkpt lat="43.08814" lon="2.58761">
        <ele>232.016</ele>
        <time>2012-03-08T12:52:02Z</time>
      </trkpt>
      <trkpt lat="43.08817" lon="2.58763">
        <ele>232.361</ele>
        <time>2012-03-08T12:52:05Z</time>
      </trkpt>
      <trkpt lat="43.08825" lon="2.58765">
        <ele>232.98</ele>
        <time>2012-03-08T12:52:12Z</time>
      </trkpt>
      <trkpt lat="43.08835" lon="2.58769">
        <ele>232.26</ele>
        <time>2012-03-08T12:52:20Z</time>
      </trkpt>
      <trkpt lat="43.08844" lon="2.58769">
        <ele>233.72</ele>
        <time>2012-03-08T12:52:27Z</time>
      </trkpt>
      <trkpt lat="43.08858" lon="2.58771">
        <ele>240.691</ele>
        <time>2012-03-08T12:52:39Z</time>
      </trkpt>
      <trkpt lat="43.08865" lon="2.58772">
        <ele>240.76</ele>
        <time>2012-03-08T12:52:44Z</time>
      </trkpt>
      <trkpt lat="43.0887" lon="2.58772">
        <ele>241.06</ele>
        <time>2012-03-08T12:52:48Z</time>
      </trkpt>
      <trkpt lat="43.0888" lon="2.58781">
        <ele>240.566</ele>
        <time>2012-03-08T12:52:56Z</time>
      </trkpt>
      <trkpt lat="43.08881" lon="2.58782">
        <ele>240.11</ele>
        <time>2012-03-08T12:52:57Z</time>
      </trkpt>
      <trkpt lat="43.08885" lon="2.58794">
        <ele>238.98</ele>
        <time>2012-03-08T12:53:04Z</time>
      </trkpt>
      <trkpt lat="43.08889" lon="2.588">
        <ele>240.699</ele>
        <time>2012-03-08T12:53:08Z</time>
      </trkpt>
      <trkpt lat="43.08891" lon="2.58802">
        <ele>241.579</ele>
        <time>2012-03-08T12:53:10Z</time>
      </trkpt>
      <trkpt lat="43.08895" lon="2.58814">
        <ele>242.831</ele>
        <time>2012-03-08T12:53:18Z</time>
      </trkpt>
      <trkpt lat="43.089" lon="2.58824">
        <ele>242.92</ele>
        <time>2012-03-08T12:53:26Z</time>
      </trkpt>
      <trkpt lat="43.08902" lon="2.58831">
        <ele>240.419</ele>
        <time>2012-03-08T12:53:32Z</time>
      </trkpt>
      <trkpt lat="43.08905" lon="2.5884">
        <ele>236.228</ele>
        <time>2012-03-08T12:53:40Z</time>
      </trkpt>
      <trkpt lat="43.08908" lon="2.58847">
        <ele>234.879</ele>
        <time>2012-03-08T12:53:45Z</time>
      </trkpt>
      <trkpt lat="43.08912" lon="2.58856">
        <ele>232.99</ele>
        <time>2012-03-08T12:53:52Z</time>
      </trkpt>
      <trkpt lat="43.08915" lon="2.58861">
        <ele>233.44</ele>
        <time>2012-03-08T12:53:56Z</time>
      </trkpt>
      <trkpt lat="43.08924" lon="2.58875">
        <ele>237.192</ele>
        <time>2012-03-08T12:54:06Z</time>
      </trkpt>
      <trkpt lat="43.08932" lon="2.58893">
        <ele>243.575</ele>
        <time>2012-03-08T12:54:16Z</time>
      </trkpt>
      <trkpt lat="43.08932" lon="2.58905">
        <ele>245.088</ele>
        <time>2012-03-08T12:54:23Z</time>
      </trkpt>
      <trkpt lat="43.08929" lon="2.58916">
        <ele>246.882</ele>
        <time>2012-03-08T12:54:30Z</time>
      </trkpt>
      <trkpt lat="43.08925" lon="2.58925">
        <ele>250.352</ele>
        <time>2012-03-08T12:54:37Z</time>
      </trkpt>
      <trkpt lat="43.08925" lon="2.58927">
        <ele>249.542</ele>
        <time>2012-03-08T12:54:38Z</time>
      </trkpt>
      <trkpt lat="43.08918" lon="2.58936">
        <ele>247.526</ele>
        <time>2012-03-08T12:54:46Z</time>
      </trkpt>
      <trkpt lat="43.08914" lon="2.5894">
        <ele>243.64</ele>
        <time>2012-03-08T12:54:53Z</time>
      </trkpt>
      <trkpt lat="43.08906" lon="2.58946">
        <ele>241.837</ele>
        <time>2012-03-08T12:55:02Z</time>
      </trkpt>
      <trkpt lat="43.08905" lon="2.58946">
        <ele>242.01</ele>
        <time>2012-03-08T12:55:03Z</time>
      </trkpt>
      <trkpt lat="43.08904" lon="2.58947">
        <ele>242.693</ele>
        <time>2012-03-08T12:55:05Z</time>
      </trkpt>
      <trkpt lat="43.08896" lon="2.58951">
        <ele>241.244</ele>
        <time>2012-03-08T12:55:14Z</time>
      </trkpt>
      <trkpt lat="43.0888" lon="2.58965">
        <ele>245.268</ele>
        <time>2012-03-08T12:55:24Z</time>
      </trkpt>
      <trkpt lat="43.08879" lon="2.58966">
        <ele>245.307</ele>
        <time>2012-03-08T12:55:25Z</time>
      </trkpt>
      <trkpt lat="43.08866" lon="2.58967">
        <ele>244.95</ele>
        <time>2012-03-08T12:55:35Z</time>
      </trkpt>
      <trkpt lat="43.08857" lon="2.5897">
        <ele>247.004</ele>
        <time>2012-03-08T12:55:41Z</time>
      </trkpt>
      <trkpt lat="43.08848" lon="2.58971">
        <ele>249.001</ele>
        <time>2012-03-08T12:55:48Z</time>
      </trkpt>
      <trkpt lat="43.08842" lon="2.58971">
        <ele>249.375</ele>
        <time>2012-03-08T12:55:53Z</time>
      </trkpt>
      <trkpt lat="43.08833" lon="2.58973">
        <ele>251.792</ele>
        <time>2012-03-08T12:56:01Z</time>
      </trkpt>
      <trkpt lat="43.08825" lon="2.58974">
        <ele>254.75</ele>
        <time>2012-03-08T12:56:08Z</time>
      </trkpt>
      <trkpt lat="43.08815" lon="2.58977">
        <ele>256.473</ele>
        <time>2012-03-08T12:56:16Z</time>
      </trkpt>
      <trkpt lat="43.08806" lon="2.5898">
        <ele>254.572</ele>
        <time>2012-03-08T12:56:24Z</time>
      </trkpt>
      <trkpt lat="43.08801" lon="2.58979">
        <ele>255.388</ele>
        <time>2012-03-08T12:56:29Z</time>
      </trkpt>
      <trkpt lat="43.08791" lon="2.58986">
        <ele>250.507</ele>
        <time>2012-03-08T12:56:37Z</time>
      </trkpt>
      <trkpt lat="43.08783" lon="2.58993">
        <ele>251.418</ele>
        <time>2012-03-08T12:56:44Z</time>
      </trkpt>
      <trkpt lat="43.08773" lon="2.58998">
        <ele>252.854</ele>
        <time>2012-03-08T12:56:53Z</time>
      </trkpt>
      <trkpt lat="43.08765" lon="2.59001">
        <ele>250.177</ele>
        <time>2012-03-08T12:57:00Z</time>
      </trkpt>
      <trkpt lat="43.08757" lon="2.59002">
        <ele>247.747</ele>
        <time>2012-03-08T12:57:08Z</time>
      </trkpt>
      <trkpt lat="43.08748" lon="2.59012">
        <ele>248.038</ele>
        <time>2012-03-08T12:57:17Z</time>
      </trkpt>
      <trkpt lat="43.08743" lon="2.59019">
        <ele>253.529</ele>
        <time>2012-03-08T12:57:23Z</time>
      </trkpt>
      <trkpt lat="43.08741" lon="2.59022">
        <ele>255.729</ele>
        <time>2012-03-08T12:57:26Z</time>
      </trkpt>
      <trkpt lat="43.08738" lon="2.59029">
        <ele>255.649</ele>
        <time>2012-03-08T12:57:32Z</time>
      </trkpt>
      <trkpt lat="43.08736" lon="2.59042">
        <ele>262.091</ele>
        <time>2012-03-08T12:57:38Z</time>
      </trkpt>
      <trkpt lat="43.08735" lon="2.59046">
        <ele>261.755</ele>
        <time>2012-03-08T12:57:40Z</time>
      </trkpt>
      <trkpt lat="43.08737" lon="2.59054">
        <ele>264.311</ele>
        <time>2012-03-08T12:57:48Z</time>
      </trkpt>
      <trkpt lat="43.08739" lon="2.59056">
        <ele>265.05</ele>
        <time>2012-03-08T12:57:50Z</time>
      </trkpt>
      <trkpt lat="43.0874" lon="2.59075">
        <ele>265.96</ele>
        <time>2012-03-08T12:58:01Z</time>
      </trkpt>
      <trkpt lat="43.08742" lon="2.59083">
        <ele>264.797</ele>
        <time>2012-03-08T12:58:08Z</time>
      </trkpt>
      <trkpt lat="43.08744" lon="2.59087">
        <ele>264.079</ele>
        <time>2012-03-08T12:58:11Z</time>
      </trkpt>
      <trkpt lat="43.08748" lon="2.591">
        <ele>265.934</ele>
        <time>2012-03-08T12:58:20Z</time>
      </trkpt>
      <trkpt lat="43.0875" lon="2.59104">
        <ele>268.234</ele>
        <time>2012-03-08T12:58:23Z</time>
      </trkpt>
      <trkpt lat="43.08752" lon="2.59112">
        <ele>270.866</ele>
        <time>2012-03-08T12:58:27Z</time>
      </trkpt>
      <trkpt lat="43.08754" lon="2.59116">
        <ele>271.925</ele>
        <time>2012-03-08T12:58:30Z</time>
      </trkpt>
      <trkpt lat="43.0876" lon="2.59132">
        <ele>272.28</ele>
        <time>2012-03-08T12:58:39Z</time>
      </trkpt>
      <trkpt lat="43.08766" lon="2.59141">
        <ele>270.95</ele>
        <time>2012-03-08T12:58:48Z</time>
      </trkpt>
      <trkpt lat="43.08768" lon="2.59147">
        <ele>266.23</ele>
        <time>2012-03-08T12:58:55Z</time>
      </trkpt>
      <trkpt lat="43.08772" lon="2.59159">
        <ele>264.255</ele>
        <time>2012-03-08T12:59:04Z</time>
      </trkpt>
      <trkpt lat="43.08772" lon="2.59161">
        <ele>264.149</ele>
        <time>2012-03-08T12:59:05Z</time>
      </trkpt>
      <trkpt lat="43.08776" lon="2.59174">
        <ele>265.409</ele>
        <time>2012-03-08T12:59:14Z</time>
      </trkpt>
      <trkpt lat="43.0878" lon="2.59182">
        <ele>263.289</ele>
        <time>2012-03-08T12:59:21Z</time>
      </trkpt>
      <trkpt lat="43.08787" lon="2.59191">
        <ele>262.846</ele>
        <time>2012-03-08T12:59:30Z</time>
      </trkpt>
      <trkpt lat="43.08793" lon="2.59198">
        <ele>262.21</ele>
        <time>2012-03-08T12:59:36Z</time>
      </trkpt>
      <trkpt lat="43.08799" lon="2.59205">
        <ele>260.659</ele>
        <time>2012-03-08T12:59:43Z</time>
      </trkpt>
      <trkpt lat="43.08805" lon="2.59211">
        <ele>261.449</ele>
        <time>2012-03-08T12:59:49Z</time>
      </trkpt>
      <trkpt lat="43.08808" lon="2.59212">
        <ele>260.76</ele>
        <time>2012-03-08T12:59:52Z</time>
      </trkpt>
      <trkpt lat="43.08814" lon="2.59218">
        <ele>264.371</ele>
        <time>2012-03-08T12:59:59Z</time>
      </trkpt>
      <trkpt lat="43.08822" lon="2.59226">
        <ele>265.121</ele>
        <time>2012-03-08T13:00:07Z</time>
      </trkpt>
      <trkpt lat="43.08827" lon="2.59232">
        <ele>261.68</ele>
        <time>2012-03-08T13:00:15Z</time>
      </trkpt>
      <trkpt lat="43.08829" lon="2.59235">
        <ele>259.789</ele>
        <time>2012-03-08T13:00:18Z</time>
      </trkpt>
      <trkpt lat="43.08842" lon="2.59241">
        <ele>266.139</ele>
        <time>2012-03-08T13:00:25Z</time>
      </trkpt>
      <trkpt lat="43.0886" lon="2.59256">
        <ele>279.192</ele>
        <time>2012-03-08T13:00:36Z</time>
      </trkpt>
      <trkpt lat="43.08864" lon="2.59262">
        <ele>280.892</ele>
        <time>2012-03-08T13:00:40Z</time>
      </trkpt>
      <trkpt lat="43.08867" lon="2.59276">
        <ele>283.203</ele>
        <time>2012-03-08T13:00:48Z</time>
      </trkpt>
      <trkpt lat="43.08868" lon="2.59293">
        <ele>286.312</ele>
        <time>2012-03-08T13:00:58Z</time>
      </trkpt>
      <trkpt lat="43.08866" lon="2.59303">
        <ele>286.041</ele>
        <time>2012-03-08T13:01:07Z</time>
      </trkpt>
      <trkpt lat="43.08863" lon="2.59312">
        <ele>285.572</ele>
        <time>2012-03-08T13:01:15Z</time>
      </trkpt>
      <trkpt lat="43.08861" lon="2.59317">
        <ele>284.412</ele>
        <time>2012-03-08T13:01:22Z</time>
      </trkpt>
      <trkpt lat="43.08857" lon="2.59322">
        <ele>283.302</ele>
        <time>2012-03-08T13:01:29Z</time>
      </trkpt>
      <trkpt lat="43.08848" lon="2.59334">
        <ele>281.841</ele>
        <time>2012-03-08T13:01:38Z</time>
      </trkpt>
      <trkpt lat="43.0884" lon="2.59337">
        <ele>281.841</ele>
        <time>2012-03-08T13:01:47Z</time>
      </trkpt>
      <trkpt lat="43.08832" lon="2.59343">
        <ele>281.891</ele>
        <time>2012-03-08T13:01:55Z</time>
      </trkpt>
      <trkpt lat="43.0882" lon="2.59354">
        <ele>279.24</ele>
        <time>2012-03-08T13:02:05Z</time>
      </trkpt>
      <trkpt lat="43.08813" lon="2.59359">
        <ele>279.301</ele>
        <time>2012-03-08T13:02:12Z</time>
      </trkpt>
      <trkpt lat="43.08806" lon="2.59365">
        <ele>280.281</ele>
        <time>2012-03-08T13:02:20Z</time>
      </trkpt>
      <trkpt lat="43.08798" lon="2.59372">
        <ele>282.421</ele>
        <time>2012-03-08T13:02:28Z</time>
      </trkpt>
      <trkpt lat="43.08789" lon="2.59379">
        <ele>281.631</ele>
        <time>2012-03-08T13:02:37Z</time>
      </trkpt>
      <trkpt lat="43.08779" lon="2.59387">
        <ele>285.332</ele>
        <time>2012-03-08T13:02:46Z</time>
      </trkpt>
      <trkpt lat="43.08772" lon="2.59394">
        <ele>288.142</ele>
        <time>2012-03-08T13:02:52Z</time>
      </trkpt>
      <trkpt lat="43.08762" lon="2.59401">
        <ele>288.932</ele>
        <time>2012-03-08T13:03:01Z</time>
      </trkpt>
      <trkpt lat="43.08754" lon="2.5941">
        <ele>290.471</ele>
        <time>2012-03-08T13:03:08Z</time>
      </trkpt>
      <trkpt lat="43.08744" lon="2.59416">
        <ele>285.91</ele>
        <time>2012-03-08T13:03:16Z</time>
      </trkpt>
      <trkpt lat="43.08736" lon="2.59424">
        <ele>286.291</ele>
        <time>2012-03-08T13:03:24Z</time>
      </trkpt>
      <trkpt lat="43.08727" lon="2.59429">
        <ele>284.79</ele>
        <time>2012-03-08T13:03:31Z</time>
      </trkpt>
      <trkpt lat="43.08716" lon="2.59438">
        <ele>285.861</ele>
        <time>2012-03-08T13:03:41Z</time>
      </trkpt>
      <trkpt lat="43.08707" lon="2.59446">
        <ele>284.631</ele>
        <time>2012-03-08T13:03:49Z</time>
      </trkpt>
      <trkpt lat="43.08695" lon="2.59458">
        <ele>293.322</ele>
        <time>2012-03-08T13:03:58Z</time>
      </trkpt>
      <trkpt lat="43.08685" lon="2.59469">
        <ele>290.201</ele>
        <time>2012-03-08T13:04:07Z</time>
      </trkpt>
      <trkpt lat="43.08676" lon="2.59477">
        <ele>289.401</ele>
        <time>2012-03-08T13:04:15Z</time>
      </trkpt>
      <trkpt lat="43.08668" lon="2.59482">
        <ele>288.04</ele>
        <time>2012-03-08T13:04:22Z</time>
      </trkpt>
      <trkpt lat="43.08654" lon="2.59495">
        <ele>294.592</ele>
        <time>2012-03-08T13:04:32Z</time>
      </trkpt>
      <trkpt lat="43.0864" lon="2.59506">
        <ele>295.36</ele>
        <time>2012-03-08T13:04:43Z</time>
      </trkpt>
      <trkpt lat="43.08631" lon="2.59513">
        <ele>293.42</ele>
        <time>2012-03-08T13:04:51Z</time>
      </trkpt>
      <trkpt lat="43.08622" lon="2.59522">
        <ele>297.052</ele>
        <time>2012-03-08T13:04:59Z</time>
      </trkpt>
      <trkpt lat="43.08616" lon="2.59529">
        <ele>298.502</ele>
        <time>2012-03-08T13:05:06Z</time>
      </trkpt>
      <trkpt lat="43.08612" lon="2.59538">
        <ele>298.402</ele>
        <time>2012-03-08T13:05:12Z</time>
      </trkpt>
      <trkpt lat="43.08608" lon="2.5955">
        <ele>295.52</ele>
        <time>2012-03-08T13:05:20Z</time>
      </trkpt>
      <trkpt lat="43.08608" lon="2.5956">
        <ele>295.471</ele>
        <time>2012-03-08T13:05:27Z</time>
      </trkpt>
      <trkpt lat="43.08608" lon="2.5957">
        <ele>292.66</ele>
        <time>2012-03-08T13:05:34Z</time>
      </trkpt>
      <trkpt lat="43.08606" lon="2.5958">
        <ele>291.1</ele>
        <time>2012-03-08T13:05:40Z</time>
      </trkpt>
      <trkpt lat="43.08607" lon="2.59595">
        <ele>292.201</ele>
        <time>2012-03-08T13:05:48Z</time>
      </trkpt>
      <trkpt lat="43.08607" lon="2.59611">
        <ele>292.231</ele>
        <time>2012-03-08T13:05:57Z</time>
      </trkpt>
      <trkpt lat="43.08605" lon="2.5963">
        <ele>293.471</ele>
        <time>2012-03-08T13:06:05Z</time>
      </trkpt>
      <trkpt lat="43.08606" lon="2.59635">
        <ele>292.98</ele>
        <time>2012-03-08T13:06:08Z</time>
      </trkpt>
      <trkpt lat="43.08606" lon="2.59652">
        <ele>289.16</ele>
        <time>2012-03-08T13:06:18Z</time>
      </trkpt>
      <trkpt lat="43.08607" lon="2.59667">
        <ele>286.12</ele>
        <time>2012-03-08T13:06:26Z</time>
      </trkpt>
      <trkpt lat="43.08609" lon="2.5968">
        <ele>287.131</ele>
        <time>2012-03-08T13:06:33Z</time>
      </trkpt>
      <trkpt lat="43.08609" lon="2.59695">
        <ele>289.611</ele>
        <time>2012-03-08T13:06:40Z</time>
      </trkpt>
      <trkpt lat="43.0861" lon="2.59717">
        <ele>290.156</ele>
        <time>2012-03-08T13:06:51Z</time>
      </trkpt>
      <trkpt lat="43.08611" lon="2.5973">
        <ele>284.448</ele>
        <time>2012-03-08T13:06:59Z</time>
      </trkpt>
      <trkpt lat="43.08612" lon="2.5974">
        <ele>279.439</ele>
        <time>2012-03-08T13:07:06Z</time>
      </trkpt>
      <trkpt lat="43.0861" lon="2.59757">
        <ele>280.221</ele>
        <time>2012-03-08T13:07:14Z</time>
      </trkpt>
      <trkpt lat="43.0861" lon="2.59773">
        <ele>280.453</ele>
        <time>2012-03-08T13:07:22Z</time>
      </trkpt>
      <trkpt lat="43.0861" lon="2.59792">
        <ele>281.261</ele>
        <time>2012-03-08T13:07:32Z</time>
      </trkpt>
      <trkpt lat="43.08615" lon="2.59804">
        <ele>280.801</ele>
        <time>2012-03-08T13:07:39Z</time>
      </trkpt>
      <trkpt lat="43.08615" lon="2.59805">
        <ele>281.224</ele>
        <time>2012-03-08T13:07:40Z</time>
      </trkpt>
      <trkpt lat="43.08625" lon="2.59805">
        <ele>284.092</ele>
        <time>2012-03-08T13:07:49Z</time>
      </trkpt>
      <trkpt lat="43.08635" lon="2.59798">
        <ele>285.672</ele>
        <time>2012-03-08T13:07:59Z</time>
      </trkpt>
      <trkpt lat="43.08637" lon="2.59797">
        <ele>285.421</ele>
        <time>2012-03-08T13:08:01Z</time>
      </trkpt>
      <trkpt lat="43.08647" lon="2.5979">
        <ele>284.502</ele>
        <time>2012-03-08T13:08:10Z</time>
      </trkpt>
      <trkpt lat="43.08655" lon="2.59791">
        <ele>286.373</ele>
        <time>2012-03-08T13:08:17Z</time>
      </trkpt>
      <trkpt lat="43.08658" lon="2.59798">
        <ele>287.192</ele>
        <time>2012-03-08T13:08:23Z</time>
      </trkpt>
      <trkpt lat="43.08662" lon="2.59807">
        <ele>286.091</ele>
        <time>2012-03-08T13:08:29Z</time>
      </trkpt>
      <trkpt lat="43.08666" lon="2.59818">
        <ele>284.321</ele>
        <time>2012-03-08T13:08:35Z</time>
      </trkpt>
      <trkpt lat="43.08671" lon="2.59829">
        <ele>284.891</ele>
        <time>2012-03-08T13:08:42Z</time>
      </trkpt>
      <trkpt lat="43.08678" lon="2.59834">
        <ele>286.252</ele>
        <time>2012-03-08T13:08:48Z</time>
      </trkpt>
      <trkpt lat="43.08681" lon="2.59842">
        <ele>284.751</ele>
        <time>2012-03-08T13:08:53Z</time>
      </trkpt>
      <trkpt lat="43.08686" lon="2.59856">
        <ele>286.179</ele>
        <time>2012-03-08T13:09:00Z</time>
      </trkpt>
      <trkpt lat="43.08689" lon="2.59866">
        <ele>285.231</ele>
        <time>2012-03-08T13:09:06Z</time>
      </trkpt>
      <trkpt lat="43.0869" lon="2.59877">
        <ele>284.973</ele>
        <time>2012-03-08T13:09:12Z</time>
      </trkpt>
      <trkpt lat="43.08691" lon="2.59881">
        <ele>285.592</ele>
        <time>2012-03-08T13:09:14Z</time>
      </trkpt>
      <trkpt lat="43.08694" lon="2.59897">
        <ele>285.511</ele>
        <time>2012-03-08T13:09:23Z</time>
      </trkpt>
      <trkpt lat="43.08696" lon="2.59906">
        <ele>281.96</ele>
        <time>2012-03-08T13:09:29Z</time>
      </trkpt>
      <trkpt lat="43.08697" lon="2.5991">
        <ele>281.11</ele>
        <time>2012-03-08T13:09:31Z</time>
      </trkpt>
      <trkpt lat="43.08698" lon="2.59914">
        <ele>280.821</ele>
        <time>2012-03-08T13:09:34Z</time>
      </trkpt>
      <trkpt lat="43.08701" lon="2.59927">
        <ele>281.191</ele>
        <time>2012-03-08T13:09:41Z</time>
      </trkpt>
      <trkpt lat="43.08703" lon="2.5994">
        <ele>279.441</ele>
        <time>2012-03-08T13:09:48Z</time>
      </trkpt>
      <trkpt lat="43.08704" lon="2.59956">
        <ele>282.273</ele>
        <time>2012-03-08T13:09:55Z</time>
      </trkpt>
      <trkpt lat="43.0871" lon="2.59973">
        <ele>282.891</ele>
        <time>2012-03-08T13:10:05Z</time>
      </trkpt>
      <trkpt lat="43.08715" lon="2.59983">
        <ele>277.889</ele>
        <time>2012-03-08T13:10:12Z</time>
      </trkpt>
      <trkpt lat="43.0872" lon="2.5999">
        <ele>273.218</ele>
        <time>2012-03-08T13:10:17Z</time>
      </trkpt>
      <trkpt lat="43.08722" lon="2.60002">
        <ele>271.509</ele>
        <time>2012-03-08T13:10:23Z</time>
      </trkpt>
      <trkpt lat="43.08724" lon="2.60009">
        <ele>274.212</ele>
        <time>2012-03-08T13:10:28Z</time>
      </trkpt>
      <trkpt lat="43.08724" lon="2.60013">
        <ele>274.322</ele>
        <time>2012-03-08T13:10:30Z</time>
      </trkpt>
      <trkpt lat="43.08724" lon="2.60025">
        <ele>274.812</ele>
        <time>2012-03-08T13:10:37Z</time>
      </trkpt>
      <trkpt lat="43.08725" lon="2.60037">
        <ele>277.883</ele>
        <time>2012-03-08T13:10:43Z</time>
      </trkpt>
      <trkpt lat="43.08726" lon="2.60043">
        <ele>277.792</ele>
        <time>2012-03-08T13:10:46Z</time>
      </trkpt>
      <trkpt lat="43.0873" lon="2.6006">
        <ele>274.331</ele>
        <time>2012-03-08T13:10:55Z</time>
      </trkpt>
      <trkpt lat="43.08734" lon="2.60072">
        <ele>273.161</ele>
        <time>2012-03-08T13:11:02Z</time>
      </trkpt>
      <trkpt lat="43.08738" lon="2.60082">
        <ele>273.782</ele>
        <time>2012-03-08T13:11:09Z</time>
      </trkpt>
      <trkpt lat="43.08741" lon="2.60089">
        <ele>275.193</ele>
        <time>2012-03-08T13:11:14Z</time>
      </trkpt>
      <trkpt lat="43.08743" lon="2.60106">
        <ele>276.473</ele>
        <time>2012-03-08T13:11:23Z</time>
      </trkpt>
      <trkpt lat="43.08745" lon="2.6012">
        <ele>276.762</ele>
        <time>2012-03-08T13:11:32Z</time>
      </trkpt>
      <trkpt lat="43.08747" lon="2.60127">
        <ele>270.92</ele>
        <time>2012-03-08T13:11:38Z</time>
      </trkpt>
      <trkpt lat="43.08751" lon="2.60136">
        <ele>268.171</ele>
        <time>2012-03-08T13:11:45Z</time>
      </trkpt>
      <trkpt lat="43.08755" lon="2.60142">
        <ele>267.371</ele>
        <time>2012-03-08T13:11:50Z</time>
      </trkpt>
      <trkpt lat="43.08762" lon="2.60153">
        <ele>264.191</ele>
        <time>2012-03-08T13:11:59Z</time>
      </trkpt>
      <trkpt lat="43.08768" lon="2.60165">
        <ele>264.823</ele>
        <time>2012-03-08T13:12:07Z</time>
      </trkpt>
      <trkpt lat="43.08776" lon="2.60179">
        <ele>267.053</ele>
        <time>2012-03-08T13:12:16Z</time>
      </trkpt>
      <trkpt lat="43.08782" lon="2.60198">
        <ele>268.154</ele>
        <time>2012-03-08T13:12:26Z</time>
      </trkpt>
      <trkpt lat="43.08783" lon="2.60201">
        <ele>268.494</ele>
        <time>2012-03-08T13:12:28Z</time>
      </trkpt>
      <trkpt lat="43.08787" lon="2.60214">
        <ele>271.134</ele>
        <time>2012-03-08T13:12:36Z</time>
      </trkpt>
      <trkpt lat="43.08792" lon="2.6022">
        <ele>272.614</ele>
        <time>2012-03-08T13:12:42Z</time>
      </trkpt>
      <trkpt lat="43.08799" lon="2.60229">
        <ele>267.041</ele>
        <time>2012-03-08T13:12:51Z</time>
      </trkpt>
      <trkpt lat="43.08805" lon="2.60236">
        <ele>265.131</ele>
        <time>2012-03-08T13:12:58Z</time>
      </trkpt>
      <trkpt lat="43.08811" lon="2.60238">
        <ele>269.924</ele>
        <time>2012-03-08T13:13:04Z</time>
      </trkpt>
      <trkpt lat="43.08811" lon="2.6024">
        <ele>271.784</ele>
        <time>2012-03-08T13:13:09Z</time>
      </trkpt>
      <trkpt lat="43.08811" lon="2.60242">
        <ele>273.695</ele>
        <time>2012-03-08T13:13:11Z</time>
      </trkpt>
      <trkpt lat="43.08814" lon="2.60247">
        <ele>279.186</ele>
        <time>2012-03-08T13:13:15Z</time>
      </trkpt>
      <trkpt lat="43.08817" lon="2.60254">
        <ele>280.534</ele>
        <time>2012-03-08T13:13:22Z</time>
      </trkpt>
      <trkpt lat="43.08818" lon="2.6026">
        <ele>279.333</ele>
        <time>2012-03-08T13:13:27Z</time>
      </trkpt>
      <trkpt lat="43.08818" lon="2.60265">
        <ele>277.342</ele>
        <time>2012-03-08T13:13:30Z</time>
      </trkpt>
      <trkpt lat="43.08818" lon="2.60273">
        <ele>273.522</ele>
        <time>2012-03-08T13:13:37Z</time>
      </trkpt>
      <trkpt lat="43.08817" lon="2.60283">
        <ele>272.133</ele>
        <time>2012-03-08T13:13:44Z</time>
      </trkpt>
      <trkpt lat="43.08819" lon="2.60293">
        <ele>272.373</ele>
        <time>2012-03-08T13:13:50Z</time>
      </trkpt>
      <trkpt lat="43.0882" lon="2.60296">
        <ele>272.223</ele>
        <time>2012-03-08T13:13:53Z</time>
      </trkpt>
      <trkpt lat="43.08825" lon="2.60308">
        <ele>272.843</ele>
        <time>2012-03-08T13:14:02Z</time>
      </trkpt>
      <trkpt lat="43.08832" lon="2.60318">
        <ele>271.793</ele>
        <time>2012-03-08T13:14:10Z</time>
      </trkpt>
      <trkpt lat="43.08837" lon="2.60327">
        <ele>269.382</ele>
        <time>2012-03-08T13:14:17Z</time>
      </trkpt>
      <trkpt lat="43.08838" lon="2.60333">
        <ele>268.713</ele>
        <time>2012-03-08T13:14:20Z</time>
      </trkpt>
      <trkpt lat="43.08845" lon="2.60344">
        <ele>268.163</ele>
        <time>2012-03-08T13:14:28Z</time>
      </trkpt>
      <trkpt lat="43.08846" lon="2.60345">
        <ele>268.484</ele>
        <time>2012-03-08T13:14:29Z</time>
      </trkpt>
      <trkpt lat="43.08852" lon="2.6036">
        <ele>270.494</ele>
        <time>2012-03-08T13:14:38Z</time>
      </trkpt>
      <trkpt lat="43.08855" lon="2.60374">
        <ele>272.994</ele>
        <time>2012-03-08T13:14:45Z</time>
      </trkpt>
      <trkpt lat="43.08861" lon="2.60385">
        <ele>273.034</ele>
        <time>2012-03-08T13:14:53Z</time>
      </trkpt>
      <trkpt lat="43.08866" lon="2.604">
        <ele>269.543</ele>
        <time>2012-03-08T13:15:02Z</time>
      </trkpt>
      <trkpt lat="43.0887" lon="2.6042">
        <ele>271.294</ele>
        <time>2012-03-08T13:15:13Z</time>
      </trkpt>
      <trkpt lat="43.08873" lon="2.60429">
        <ele>270.893</ele>
        <time>2012-03-08T13:15:19Z</time>
      </trkpt>
      <trkpt lat="43.08876" lon="2.60441">
        <ele>271.884</ele>
        <time>2012-03-08T13:15:27Z</time>
      </trkpt>
      <trkpt lat="43.08878" lon="2.60457">
        <ele>273.074</ele>
        <time>2012-03-08T13:15:34Z</time>
      </trkpt>
      <trkpt lat="43.08882" lon="2.60474">
        <ele>270.383</ele>
        <time>2012-03-08T13:15:43Z</time>
      </trkpt>
      <trkpt lat="43.08885" lon="2.60489">
        <ele>271.534</ele>
        <time>2012-03-08T13:15:51Z</time>
      </trkpt>
      <trkpt lat="43.08889" lon="2.60506">
        <ele>269.473</ele>
        <time>2012-03-08T13:16:01Z</time>
      </trkpt>
      <trkpt lat="43.08891" lon="2.6052">
        <ele>269.884</ele>
        <time>2012-03-08T13:16:09Z</time>
      </trkpt>
      <trkpt lat="43.08892" lon="2.60534">
        <ele>268.964</ele>
        <time>2012-03-08T13:16:17Z</time>
      </trkpt>
      <trkpt lat="43.08892" lon="2.6055">
        <ele>269.645</ele>
        <time>2012-03-08T13:16:24Z</time>
      </trkpt>
      <trkpt lat="43.08892" lon="2.60563">
        <ele>268.464</ele>
        <time>2012-03-08T13:16:31Z</time>
      </trkpt>
      <trkpt lat="43.08892" lon="2.60577">
        <ele>267.294</ele>
        <time>2012-03-08T13:16:39Z</time>
      </trkpt>
      <trkpt lat="43.08893" lon="2.60579">
        <ele>267.044</ele>
        <time>2012-03-08T13:16:40Z</time>
      </trkpt>
      <trkpt lat="43.0889" lon="2.60593">
        <ele>266.124</ele>
        <time>2012-03-08T13:16:47Z</time>
      </trkpt>
      <trkpt lat="43.08891" lon="2.60606">
        <ele>265.794</ele>
        <time>2012-03-08T13:16:55Z</time>
      </trkpt>
      <trkpt lat="43.08892" lon="2.60617">
        <ele>268.566</ele>
        <time>2012-03-08T13:17:02Z</time>
      </trkpt>
      <trkpt lat="43.08892" lon="2.60629">
        <ele>269.425</ele>
        <time>2012-03-08T13:17:08Z</time>
      </trkpt>
      <trkpt lat="43.08891" lon="2.60634">
        <ele>271.475</ele>
        <time>2012-03-08T13:17:15Z</time>
      </trkpt>
      <trkpt lat="43.08892" lon="2.60639">
        <ele>271.424</ele>
        <time>2012-03-08T13:17:52Z</time>
      </trkpt>
      <trkpt lat="43.08893" lon="2.60645">
        <ele>270.204</ele>
        <time>2012-03-08T13:18:01Z</time>
      </trkpt>
      <trkpt lat="43.0889" lon="2.60652">
        <ele>267.023</ele>
        <time>2012-03-08T13:18:21Z</time>
      </trkpt>
      <trkpt lat="43.0889" lon="2.60657">
        <ele>265.773</ele>
        <time>2012-03-08T13:18:26Z</time>
      </trkpt>
      <trkpt lat="43.08891" lon="2.60667">
        <ele>265.714</ele>
        <time>2012-03-08T13:18:33Z</time>
      </trkpt>
      <trkpt lat="43.0889" lon="2.6068">
        <ele>267.245</ele>
        <time>2012-03-08T13:18:40Z</time>
      </trkpt>
      <trkpt lat="43.08891" lon="2.60692">
        <ele>263.853</ele>
        <time>2012-03-08T13:18:48Z</time>
      </trkpt>
      <trkpt lat="43.08893" lon="2.60704">
        <ele>263.283</ele>
        <time>2012-03-08T13:18:56Z</time>
      </trkpt>
      <trkpt lat="43.08894" lon="2.60716">
        <ele>265.336</ele>
        <time>2012-03-08T13:19:03Z</time>
      </trkpt>
      <trkpt lat="43.08896" lon="2.60725">
        <ele>264.505</ele>
        <time>2012-03-08T13:19:09Z</time>
      </trkpt>
      <trkpt lat="43.08897" lon="2.6073">
        <ele>266.486</ele>
        <time>2012-03-08T13:19:11Z</time>
      </trkpt>
      <trkpt lat="43.089" lon="2.60744">
        <ele>265.955</ele>
        <time>2012-03-08T13:19:20Z</time>
      </trkpt>
      <trkpt lat="43.089" lon="2.60749">
        <ele>265.424</ele>
        <time>2012-03-08T13:19:22Z</time>
      </trkpt>
      <trkpt lat="43.08899" lon="2.60769">
        <ele>260.522</ele>
        <time>2012-03-08T13:19:32Z</time>
      </trkpt>
      <trkpt lat="43.08899" lon="2.60775">
        <ele>257.583</ele>
        <time>2012-03-08T13:19:36Z</time>
      </trkpt>
      <trkpt lat="43.089" lon="2.60793">
        <ele>254.373</ele>
        <time>2012-03-08T13:19:45Z</time>
      </trkpt>
      <trkpt lat="43.08901" lon="2.60798">
        <ele>253.303</ele>
        <time>2012-03-08T13:19:48Z</time>
      </trkpt>
      <trkpt lat="43.08905" lon="2.60812">
        <ele>254.494</ele>
        <time>2012-03-08T13:19:56Z</time>
      </trkpt>
      <trkpt lat="43.08907" lon="2.60828">
        <ele>253.564</ele>
        <time>2012-03-08T13:20:04Z</time>
      </trkpt>
      <trkpt lat="43.0891" lon="2.6084">
        <ele>253.934</ele>
        <time>2012-03-08T13:20:12Z</time>
      </trkpt>
      <trkpt lat="43.08913" lon="2.60852">
        <ele>251.282</ele>
        <time>2012-03-08T13:20:20Z</time>
      </trkpt>
      <trkpt lat="43.08912" lon="2.60866">
        <ele>250.945</ele>
        <time>2012-03-08T13:20:28Z</time>
      </trkpt>
      <trkpt lat="43.08911" lon="2.60879">
        <ele>248.344</ele>
        <time>2012-03-08T13:20:37Z</time>
      </trkpt>
      <trkpt lat="43.0891" lon="2.60893">
        <ele>247.175</ele>
        <time>2012-03-08T13:20:44Z</time>
      </trkpt>
      <trkpt lat="43.08911" lon="2.60902">
        <ele>246.775</ele>
        <time>2012-03-08T13:20:50Z</time>
      </trkpt>
      <trkpt lat="43.08909" lon="2.60912">
        <ele>246.195</ele>
        <time>2012-03-08T13:20:57Z</time>
      </trkpt>
      <trkpt lat="43.08904" lon="2.60922">
        <ele>242.165</ele>
        <time>2012-03-08T13:21:05Z</time>
      </trkpt>
      <trkpt lat="43.08903" lon="2.6093">
        <ele>239.205</ele>
        <time>2012-03-08T13:21:11Z</time>
      </trkpt>
      <trkpt lat="43.08898" lon="2.60947">
        <ele>235.592</ele>
        <time>2012-03-08T13:21:20Z</time>
      </trkpt>
      <trkpt lat="43.08891" lon="2.60969">
        <ele>235.436</ele>
        <time>2012-03-08T13:21:28Z</time>
      </trkpt>
      <trkpt lat="43.08885" lon="2.60989">
        <ele>237.385</ele>
        <time>2012-03-08T13:21:36Z</time>
      </trkpt>
      <trkpt lat="43.08884" lon="2.61002">
        <ele>237.935</ele>
        <time>2012-03-08T13:21:44Z</time>
      </trkpt>
      <trkpt lat="43.08883" lon="2.61004">
        <ele>236.505</ele>
        <time>2012-03-08T13:21:50Z</time>
      </trkpt>
      <trkpt lat="43.08883" lon="2.61005">
        <ele>234.824</ele>
        <time>2012-03-08T13:21:58Z</time>
      </trkpt>
      <trkpt lat="43.08885" lon="2.61009">
        <ele>232.224</ele>
        <time>2012-03-08T13:22:04Z</time>
      </trkpt>
      <trkpt lat="43.08886" lon="2.61011">
        <ele>231.474</ele>
        <time>2012-03-08T13:22:06Z</time>
      </trkpt>
      <trkpt lat="43.08884" lon="2.61027">
        <ele>234.466</ele>
        <time>2012-03-08T13:22:14Z</time>
      </trkpt>
      <trkpt lat="43.08885" lon="2.61043">
        <ele>236.846</ele>
        <time>2012-03-08T13:22:23Z</time>
      </trkpt>
      <trkpt lat="43.08888" lon="2.61056">
        <ele>237.406</ele>
        <time>2012-03-08T13:22:31Z</time>
      </trkpt>
      <trkpt lat="43.0889" lon="2.61061">
        <ele>237.526</ele>
        <time>2012-03-08T13:22:35Z</time>
      </trkpt>
      <trkpt lat="43.08891" lon="2.61069">
        <ele>237.775</ele>
        <time>2012-03-08T13:22:40Z</time>
      </trkpt>
      <trkpt lat="43.08893" lon="2.61078">
        <ele>236.475</ele>
        <time>2012-03-08T13:22:48Z</time>
      </trkpt>
      <trkpt lat="43.08894" lon="2.61088">
        <ele>229.163</ele>
        <time>2012-03-08T13:22:56Z</time>
      </trkpt>
      <trkpt lat="43.08898" lon="2.61095">
        <ele>225.783</ele>
        <time>2012-03-08T13:23:03Z</time>
      </trkpt>
      <trkpt lat="43.08902" lon="2.61103">
        <ele>226.875</ele>
        <time>2012-03-08T13:23:08Z</time>
      </trkpt>
      <trkpt lat="43.08901" lon="2.61121">
        <ele>225.393</ele>
        <time>2012-03-08T13:23:16Z</time>
      </trkpt>
      <trkpt lat="43.089" lon="2.61128">
        <ele>223.153</ele>
        <time>2012-03-08T13:23:20Z</time>
      </trkpt>
      <trkpt lat="43.08909" lon="2.6114">
        <ele>228.726</ele>
        <time>2012-03-08T13:23:28Z</time>
      </trkpt>
      <trkpt lat="43.08911" lon="2.6115">
        <ele>228.125</ele>
        <time>2012-03-08T13:23:34Z</time>
      </trkpt>
      <trkpt lat="43.08913" lon="2.61161">
        <ele>221.953</ele>
        <time>2012-03-08T13:23:41Z</time>
      </trkpt>
      <trkpt lat="43.08914" lon="2.61167">
        <ele>222.945</ele>
        <time>2012-03-08T13:23:45Z</time>
      </trkpt>
      <trkpt lat="43.08918" lon="2.61182">
        <ele>226.167</ele>
        <time>2012-03-08T13:23:52Z</time>
      </trkpt>
      <trkpt lat="43.08918" lon="2.61187">
        <ele>226.686</ele>
        <time>2012-03-08T13:23:54Z</time>
      </trkpt>
      <trkpt lat="43.08923" lon="2.61195">
        <ele>226.666</ele>
        <time>2012-03-08T13:24:00Z</time>
      </trkpt>
      <trkpt lat="43.08928" lon="2.61203">
        <ele>226.456</ele>
        <time>2012-03-08T13:24:05Z</time>
      </trkpt>
      <trkpt lat="43.0893" lon="2.61209">
        <ele>224.405</ele>
        <time>2012-03-08T13:24:08Z</time>
      </trkpt>
      <trkpt lat="43.08937" lon="2.6122">
        <ele>221.244</ele>
        <time>2012-03-08T13:24:15Z</time>
      </trkpt>
      <trkpt lat="43.08939" lon="2.61236">
        <ele>220.775</ele>
        <time>2012-03-08T13:24:24Z</time>
      </trkpt>
      <trkpt lat="43.08941" lon="2.61242">
        <ele>222.217</ele>
        <time>2012-03-08T13:24:27Z</time>
      </trkpt>
      <trkpt lat="43.08943" lon="2.61244">
        <ele>223.297</ele>
        <time>2012-03-08T13:24:29Z</time>
      </trkpt>
      <trkpt lat="43.08944" lon="2.61258">
        <ele>220.345</ele>
        <time>2012-03-08T13:24:37Z</time>
      </trkpt>
      <trkpt lat="43.08947" lon="2.61264">
        <ele>220.016</ele>
        <time>2012-03-08T13:24:41Z</time>
      </trkpt>
      <trkpt lat="43.08953" lon="2.61276">
        <ele>214.003</ele>
        <time>2012-03-08T13:24:50Z</time>
      </trkpt>
      <trkpt lat="43.08957" lon="2.61284">
        <ele>206.902</ele>
        <time>2012-03-08T13:24:58Z</time>
      </trkpt>
      <trkpt lat="43.08966" lon="2.61292">
        <ele>209.354</ele>
        <time>2012-03-08T13:25:05Z</time>
      </trkpt>
      <trkpt lat="43.0897" lon="2.613">
        <ele>208.304</ele>
        <time>2012-03-08T13:25:11Z</time>
      </trkpt>
      <trkpt lat="43.08972" lon="2.61309">
        <ele>196.762</ele>
        <time>2012-03-08T13:25:19Z</time>
      </trkpt>
      <trkpt lat="43.08974" lon="2.61313">
        <ele>196.183</ele>
        <time>2012-03-08T13:25:22Z</time>
      </trkpt>
      <trkpt lat="43.08979" lon="2.61319">
        <ele>197.634</ele>
        <time>2012-03-08T13:25:26Z</time>
      </trkpt>
      <trkpt lat="43.08987" lon="2.61329">
        <ele>197.685</ele>
        <time>2012-03-08T13:25:33Z</time>
      </trkpt>
      <trkpt lat="43.08987" lon="2.61334">
        <ele>194.284</ele>
        <time>2012-03-08T13:25:38Z</time>
      </trkpt>
      <trkpt lat="43.08992" lon="2.61341">
        <ele>192.954</ele>
        <time>2012-03-08T13:25:44Z</time>
      </trkpt>
      <trkpt lat="43.08997" lon="2.61349">
        <ele>194.816</ele>
        <time>2012-03-08T13:25:50Z</time>
      </trkpt>
      <trkpt lat="43.09002" lon="2.61356">
        <ele>196.026</ele>
        <time>2012-03-08T13:26:00Z</time>
      </trkpt>
      <trkpt lat="43.09007" lon="2.61363">
        <ele>198.626</ele>
        <time>2012-03-08T13:26:06Z</time>
      </trkpt>
      <trkpt lat="43.0901" lon="2.61369">
        <ele>193.964</ele>
        <time>2012-03-08T13:26:13Z</time>
      </trkpt>
      <trkpt lat="43.09016" lon="2.61376">
        <ele>191.796</ele>
        <time>2012-03-08T13:26:20Z</time>
      </trkpt>
      <trkpt lat="43.09019" lon="2.61378">
        <ele>194.798</ele>
        <time>2012-03-08T13:26:22Z</time>
      </trkpt>
      <trkpt lat="43.09023" lon="2.61385">
        <ele>200.789</ele>
        <time>2012-03-08T13:26:29Z</time>
      </trkpt>
      <trkpt lat="43.0902" lon="2.61392">
        <ele>197.136</ele>
        <time>2012-03-08T13:26:43Z</time>
      </trkpt>
      <trkpt lat="43.0902" lon="2.61392">
        <ele>197.577</ele>
        <time>2012-03-08T13:26:49Z</time>
      </trkpt>
      <trkpt lat="43.09022" lon="2.61385">
        <ele>194.286</ele>
        <time>2012-03-08T13:26:57Z</time>
      </trkpt>
      <trkpt lat="43.09023" lon="2.61385">
        <ele>193.145</ele>
        <time>2012-03-08T13:26:59Z</time>
      </trkpt>
      <trkpt lat="43.09028" lon="2.61387">
        <ele>191.075</ele>
        <time>2012-03-08T13:27:04Z</time>
      </trkpt>
      <trkpt lat="43.09035" lon="2.6139">
        <ele>191.275</ele>
        <time>2012-03-08T13:27:11Z</time>
      </trkpt>
      <trkpt lat="43.09038" lon="2.61393">
        <ele>189.065</ele>
        <time>2012-03-08T13:27:16Z</time>
      </trkpt>
      <trkpt lat="43.09039" lon="2.61396">
        <ele>184.673</ele>
        <time>2012-03-08T13:27:19Z</time>
      </trkpt>
      <trkpt lat="43.09044" lon="2.61406">
        <ele>181.153</ele>
        <time>2012-03-08T13:27:27Z</time>
      </trkpt>
      <trkpt lat="43.0905" lon="2.61416">
        <ele>180.145</ele>
        <time>2012-03-08T13:27:33Z</time>
      </trkpt>
      <trkpt lat="43.09059" lon="2.61427">
        <ele>181.465</ele>
        <time>2012-03-08T13:27:41Z</time>
      </trkpt>
      <trkpt lat="43.09065" lon="2.61435">
        <ele>182.936</ele>
        <time>2012-03-08T13:27:48Z</time>
      </trkpt>
      <trkpt lat="43.09069" lon="2.6144">
        <ele>177.174</ele>
        <time>2012-03-08T13:27:55Z</time>
      </trkpt>
      <trkpt lat="43.09075" lon="2.61447">
        <ele>180.246</ele>
        <time>2012-03-08T13:28:00Z</time>
      </trkpt>
      <trkpt lat="43.09077" lon="2.61456">
        <ele>171.423</ele>
        <time>2012-03-08T13:28:08Z</time>
      </trkpt>
      <trkpt lat="43.09081" lon="2.61457">
        <ele>171.913</ele>
        <time>2012-03-08T13:28:10Z</time>
      </trkpt>
      <trkpt lat="43.09084" lon="2.61467">
        <ele>167.905</ele>
        <time>2012-03-08T13:28:17Z</time>
      </trkpt>
      <trkpt lat="43.09088" lon="2.61472">
        <ele>169.596</ele>
        <time>2012-03-08T13:28:21Z</time>
      </trkpt>
      <trkpt lat="43.09093" lon="2.61478">
        <ele>167.976</ele>
        <time>2012-03-08T13:28:28Z</time>
      </trkpt>
      <trkpt lat="43.09096" lon="2.61486">
        <ele>165.355</ele>
        <time>2012-03-08T13:28:35Z</time>
      </trkpt>
      <trkpt lat="43.09103" lon="2.61494">
        <ele>165.136</ele>
        <time>2012-03-08T13:28:42Z</time>
      </trkpt>
      <trkpt lat="43.09108" lon="2.615">
        <ele>163.214</ele>
        <time>2012-03-08T13:28:49Z</time>
      </trkpt>
      <trkpt lat="43.09111" lon="2.61506">
        <ele>164.086</ele>
        <time>2012-03-08T13:28:56Z</time>
      </trkpt>
      <trkpt lat="43.09117" lon="2.61514">
        <ele>161.826</ele>
        <time>2012-03-08T13:29:02Z</time>
      </trkpt>
      <trkpt lat="43.09124" lon="2.6152">
        <ele>162.436</ele>
        <time>2012-03-08T13:29:07Z</time>
      </trkpt>
      <trkpt lat="43.09129" lon="2.6153">
        <ele>161.026</ele>
        <time>2012-03-08T13:29:14Z</time>
      </trkpt>
      <trkpt lat="43.09132" lon="2.61533">
        <ele>163.227</ele>
        <time>2012-03-08T13:29:16Z</time>
      </trkpt>
      <trkpt lat="43.09141" lon="2.61544">
        <ele>161.887</ele>
        <time>2012-03-08T13:29:25Z</time>
      </trkpt>
      <trkpt lat="43.09145" lon="2.6155">
        <ele>159.446</ele>
        <time>2012-03-08T13:29:31Z</time>
      </trkpt>
      <trkpt lat="43.09151" lon="2.61558">
        <ele>158.426</ele>
        <time>2012-03-08T13:29:37Z</time>
      </trkpt>
      <trkpt lat="43.09155" lon="2.61565">
        <ele>160.007</ele>
        <time>2012-03-08T13:29:43Z</time>
      </trkpt>
      <trkpt lat="43.09154" lon="2.61568">
        <ele>160.077</ele>
        <time>2012-03-08T13:29:45Z</time>
      </trkpt>
      <trkpt lat="43.09158" lon="2.61581">
        <ele>157.487</ele>
        <time>2012-03-08T13:29:53Z</time>
      </trkpt>
      <trkpt lat="43.09163" lon="2.61591">
        <ele>155.586</ele>
        <time>2012-03-08T13:30:00Z</time>
      </trkpt>
      <trkpt lat="43.09164" lon="2.61594">
        <ele>154.046</ele>
        <time>2012-03-08T13:30:02Z</time>
      </trkpt>
      <trkpt lat="43.0917" lon="2.61605">
        <ele>150.586</ele>
        <time>2012-03-08T13:30:10Z</time>
      </trkpt>
      <trkpt lat="43.0917" lon="2.61609">
        <ele>150.777</ele>
        <time>2012-03-08T13:30:12Z</time>
      </trkpt>
      <trkpt lat="43.09173" lon="2.61614">
        <ele>148.406</ele>
        <time>2012-03-08T13:30:16Z</time>
      </trkpt>
      <trkpt lat="43.09174" lon="2.61616">
        <ele>148.076</ele>
        <time>2012-03-08T13:30:18Z</time>
      </trkpt>
      <trkpt lat="43.09182" lon="2.61628">
        <ele>148.777</ele>
        <time>2012-03-08T13:30:27Z</time>
      </trkpt>
      <trkpt lat="43.09183" lon="2.61638">
        <ele>144.045</ele>
        <time>2012-03-08T13:30:33Z</time>
      </trkpt>
      <trkpt lat="43.09185" lon="2.61644">
        <ele>142.576</ele>
        <time>2012-03-08T13:30:38Z</time>
      </trkpt>
      <trkpt lat="43.09191" lon="2.61652">
        <ele>140.807</ele>
        <time>2012-03-08T13:30:45Z</time>
      </trkpt>
      <trkpt lat="43.09193" lon="2.61664">
        <ele>139.997</ele>
        <time>2012-03-08T13:30:52Z</time>
      </trkpt>
      <trkpt lat="43.09195" lon="2.61668">
        <ele>139.097</ele>
        <time>2012-03-08T13:30:56Z</time>
      </trkpt>
      <trkpt lat="43.09201" lon="2.61678">
        <ele>137.937</ele>
        <time>2012-03-08T13:31:04Z</time>
      </trkpt>
      <trkpt lat="43.09208" lon="2.61687">
        <ele>133.637</ele>
        <time>2012-03-08T13:31:13Z</time>
      </trkpt>
      <trkpt lat="43.09216" lon="2.61692">
        <ele>130.347</ele>
        <time>2012-03-08T13:31:21Z</time>
      </trkpt>
      <trkpt lat="43.09219" lon="2.61698">
        <ele>126.846</ele>
        <time>2012-03-08T13:31:26Z</time>
      </trkpt>
      <trkpt lat="43.09224" lon="2.61706">
        <ele>131.139</ele>
        <time>2012-03-08T13:31:31Z</time>
      </trkpt>
      <trkpt lat="43.09228" lon="2.61717">
        <ele>134.969</ele>
        <time>2012-03-08T13:31:38Z</time>
      </trkpt>
      <trkpt lat="43.09231" lon="2.61723">
        <ele>135.559</ele>
        <time>2012-03-08T13:31:44Z</time>
      </trkpt>
      <trkpt lat="43.0923" lon="2.61724">
        <ele>135.509</ele>
        <time>2012-03-08T13:31:45Z</time>
      </trkpt>
      <trkpt lat="43.09235" lon="2.61729">
        <ele>133.968</ele>
        <time>2012-03-08T13:31:50Z</time>
      </trkpt>
      <trkpt lat="43.09237" lon="2.61731">
        <ele>132.878</ele>
        <time>2012-03-08T13:31:55Z</time>
      </trkpt>
      <trkpt lat="43.09243" lon="2.61735">
        <ele>133.238</ele>
        <time>2012-03-08T13:32:00Z</time>
      </trkpt>
      <trkpt lat="43.09248" lon="2.61741">
        <ele>132.307</ele>
        <time>2012-03-08T13:32:06Z</time>
      </trkpt>
      <trkpt lat="43.09251" lon="2.61744">
        <ele>131.971</ele>
        <time>2012-03-08T13:32:09Z</time>
      </trkpt>
      <trkpt lat="43.09255" lon="2.61749">
        <ele>129.041</ele>
        <time>2012-03-08T13:32:15Z</time>
      </trkpt>
      <trkpt lat="43.09257" lon="2.61752">
        <ele>127.206</ele>
        <time>2012-03-08T13:32:18Z</time>
      </trkpt>
      <trkpt lat="43.09263" lon="2.6176">
        <ele>125.952</ele>
        <time>2012-03-08T13:32:25Z</time>
      </trkpt>
      <trkpt lat="43.09268" lon="2.61767">
        <ele>123.701</ele>
        <time>2012-03-08T13:32:31Z</time>
      </trkpt>
      <trkpt lat="43.09276" lon="2.61772">
        <ele>122.176</ele>
        <time>2012-03-08T13:32:37Z</time>
      </trkpt>
      <trkpt lat="43.09282" lon="2.61775">
        <ele>122.714</ele>
        <time>2012-03-08T13:32:41Z</time>
      </trkpt>
      <trkpt lat="43.09291" lon="2.61781">
        <ele>120.55</ele>
        <time>2012-03-08T13:32:48Z</time>
      </trkpt>
      <trkpt lat="43.09291" lon="2.61782">
        <ele>119.894</ele>
        <time>2012-03-08T13:32:49Z</time>
      </trkpt>
      <trkpt lat="43.0929" lon="2.61783">
        <ele>118.189</ele>
        <time>2012-03-08T13:32:55Z</time>
      </trkpt>
      <trkpt lat="43.09289" lon="2.61787">
        <ele>115.51</ele>
        <time>2012-03-08T13:33:06Z</time>
      </trkpt>
      <trkpt lat="43.09286" lon="2.61799">
        <ele>117.623</ele>
        <time>2012-03-08T13:33:11Z</time>
      </trkpt>
      <trkpt lat="43.09275" lon="2.61807">
        <ele>118.656</ele>
        <time>2012-03-08T13:33:19Z</time>
      </trkpt>
      <trkpt lat="43.09265" lon="2.61807">
        <ele>125.995</ele>
        <time>2012-03-08T13:33:26Z</time>
      </trkpt>
      <trkpt lat="43.09262" lon="2.61808">
        <ele>127.307</ele>
        <time>2012-03-08T13:33:31Z</time>
      </trkpt>
      <trkpt lat="43.09255" lon="2.6181">
        <ele>118.988</ele>
        <time>2012-03-08T13:33:39Z</time>
      </trkpt>
      <trkpt lat="43.09249" lon="2.61809">
        <ele>115.363</ele>
        <time>2012-03-08T13:33:46Z</time>
      </trkpt>
      <trkpt lat="43.09243" lon="2.61807">
        <ele>112.529</ele>
        <time>2012-03-08T13:33:52Z</time>
      </trkpt>
      <trkpt lat="43.09233" lon="2.61802">
        <ele>112.691</ele>
        <time>2012-03-08T13:34:00Z</time>
      </trkpt>
      <trkpt lat="43.09226" lon="2.61794">
        <ele>107.625</ele>
        <time>2012-03-08T13:34:09Z</time>
      </trkpt>
      <trkpt lat="43.09221" lon="2.61785">
        <ele>109.389</ele>
        <time>2012-03-08T13:34:17Z</time>
      </trkpt>
      <trkpt lat="43.09216" lon="2.61777">
        <ele>109.533</ele>
        <time>2012-03-08T13:34:23Z</time>
      </trkpt>
      <trkpt lat="43.09214" lon="2.61767">
        <ele>108.728</ele>
        <time>2012-03-08T13:34:30Z</time>
      </trkpt>
      <trkpt lat="43.09206" lon="2.61756">
        <ele>108.713</ele>
        <time>2012-03-08T13:34:39Z</time>
      </trkpt>
      <trkpt lat="43.09198" lon="2.61746">
        <ele>111.989</ele>
        <time>2012-03-08T13:34:47Z</time>
      </trkpt>
      <trkpt lat="43.0919" lon="2.6174">
        <ele>113.921</ele>
        <time>2012-03-08T13:34:54Z</time>
      </trkpt>
      <trkpt lat="43.0918" lon="2.61736">
        <ele>112.905</ele>
        <time>2012-03-08T13:35:02Z</time>
      </trkpt>
      <trkpt lat="43.09168" lon="2.61732">
        <ele>112.239</ele>
        <time>2012-03-08T13:35:10Z</time>
      </trkpt>
      <trkpt lat="43.09162" lon="2.61731">
        <ele>111.821</ele>
        <time>2012-03-08T13:35:16Z</time>
      </trkpt>
      <trkpt lat="43.09153" lon="2.61733">
        <ele>108.473</ele>
        <time>2012-03-08T13:35:22Z</time>
      </trkpt>
      <trkpt lat="43.09148" lon="2.61731">
        <ele>110.533</ele>
        <time>2012-03-08T13:35:27Z</time>
      </trkpt>
      <trkpt lat="43.09148" lon="2.61729">
        <ele>110.948</ele>
        <time>2012-03-08T13:35:29Z</time>
      </trkpt>
      <trkpt lat="43.09149" lon="2.61726">
        <ele>109.814</ele>
        <time>2012-03-08T13:35:33Z</time>
      </trkpt>
      <trkpt lat="43.09149" lon="2.61723">
        <ele>113.763</ele>
        <time>2012-03-08T13:35:39Z</time>
      </trkpt>
      <trkpt lat="43.09148" lon="2.61725">
        <ele>113.002</ele>
        <time>2012-03-08T13:35:41Z</time>
      </trkpt>
      <trkpt lat="43.09146" lon="2.61724">
        <ele>112.595</ele>
        <time>2012-03-08T13:35:46Z</time>
      </trkpt>
      <trkpt lat="43.09135" lon="2.61722">
        <ele>110.612</ele>
        <time>2012-03-08T13:35:53Z</time>
      </trkpt>
      <trkpt lat="43.0913" lon="2.6172">
        <ele>112.512</ele>
        <time>2012-03-08T13:35:58Z</time>
      </trkpt>
      <trkpt lat="43.09127" lon="2.61715">
        <ele>113.779</ele>
        <time>2012-03-08T13:36:05Z</time>
      </trkpt>
      <trkpt lat="43.09124" lon="2.61709">
        <ele>116.734</ele>
        <time>2012-03-08T13:36:11Z</time>
      </trkpt>
      <trkpt lat="43.09119" lon="2.61709">
        <ele>119.311</ele>
        <time>2012-03-08T13:36:15Z</time>
      </trkpt>
      <trkpt lat="43.09114" lon="2.61711">
        <ele>114.061</ele>
        <time>2012-03-08T13:36:20Z</time>
      </trkpt>
      <trkpt lat="43.09108" lon="2.61712">
        <ele>112.583</ele>
        <time>2012-03-08T13:36:27Z</time>
      </trkpt>
      <trkpt lat="43.091" lon="2.61711">
        <ele>113.584</ele>
        <time>2012-03-08T13:36:35Z</time>
      </trkpt>
      <trkpt lat="43.09095" lon="2.6171">
        <ele>116.243</ele>
        <time>2012-03-08T13:36:40Z</time>
      </trkpt>
      <trkpt lat="43.09093" lon="2.61705">
        <ele>122.374</ele>
        <time>2012-03-08T13:36:59Z</time>
      </trkpt>
      <trkpt lat="43.09095" lon="2.61705">
        <ele>120.332</ele>
        <time>2012-03-08T13:37:19Z</time>
      </trkpt>
      <trkpt lat="43.09093" lon="2.61701">
        <ele>135.164</ele>
        <time>2012-03-08T13:40:07Z</time>
      </trkpt>
      <trkpt lat="43.09089" lon="2.61709">
        <ele>123.719</ele>
        <time>2012-03-08T13:40:15Z</time>
      </trkpt>
      <trkpt lat="43.09048" lon="2.61712">
        <ele>118.315</ele>
        <time>2012-03-08T13:41:38Z</time>
      </trkpt>
      <trkpt lat="43.09081" lon="2.61718">
        <ele>128.306</ele>
        <time>2012-03-08T13:41:40Z</time>
      </trkpt>
      <trkpt lat="43.09092" lon="2.61719">
        <ele>122.026</ele>
        <time>2012-03-08T13:41:48Z</time>
      </trkpt>
      <trkpt lat="43.09094" lon="2.61718">
        <ele>119.051</ele>
        <time>2012-03-08T13:41:52Z</time>
      </trkpt>
      <trkpt lat="43.09082" lon="2.61714">
        <ele>120.876</ele>
        <time>2012-03-08T13:41:58Z</time>
      </trkpt>
      <trkpt lat="43.09087" lon="2.61713">
        <ele>121.311</ele>
        <time>2012-03-08T13:42:00Z</time>
      </trkpt>
      <trkpt lat="43.09106" lon="2.61711">
        <ele>125.519</ele>
        <time>2012-03-08T13:42:08Z</time>
      </trkpt>
      <trkpt lat="43.09107" lon="2.61706">
        <ele>126.023</ele>
        <time>2012-03-08T13:42:15Z</time>
      </trkpt>
      <trkpt lat="43.091" lon="2.61706">
        <ele>127.261</ele>
        <time>2012-03-08T13:42:22Z</time>
      </trkpt>
      <trkpt lat="43.09103" lon="2.61708">
        <ele>132.585</ele>
        <time>2012-03-08T13:42:32Z</time>
      </trkpt>
      <trkpt lat="43.09097" lon="2.61708">
        <ele>130.611</ele>
        <time>2012-03-08T13:42:40Z</time>
      </trkpt>
      <trkpt lat="43.09096" lon="2.61708">
        <ele>124.845</ele>
        <time>2012-03-08T13:42:47Z</time>
      </trkpt>
      <trkpt lat="43.09104" lon="2.61704">
        <ele>122.414</ele>
        <time>2012-03-08T13:42:53Z</time>
      </trkpt>
      <trkpt lat="43.09105" lon="2.61706">
        <ele>112.658</ele>
        <time>2012-03-08T13:43:01Z</time>
      </trkpt>
      <trkpt lat="43.09119" lon="2.6171">
        <ele>108.214</ele>
        <time>2012-03-08T13:43:10Z</time>
      </trkpt>
      <trkpt lat="43.09131" lon="2.61716">
        <ele>113.353</ele>
        <time>2012-03-08T13:43:17Z</time>
      </trkpt>
      <trkpt lat="43.0914" lon="2.61721">
        <ele>113.049</ele>
        <time>2012-03-08T13:43:24Z</time>
      </trkpt>
      <trkpt lat="43.09147" lon="2.61723">
        <ele>112.724</ele>
        <time>2012-03-08T13:43:31Z</time>
      </trkpt>
      <trkpt lat="43.0915" lon="2.61725">
        <ele>107.893</ele>
        <time>2012-03-08T13:43:37Z</time>
      </trkpt>
      <trkpt lat="43.09155" lon="2.61729">
        <ele>103.828</ele>
        <time>2012-03-08T13:43:43Z</time>
      </trkpt>
      <trkpt lat="43.0917" lon="2.61734">
        <ele>113.843</ele>
        <time>2012-03-08T13:43:50Z</time>
      </trkpt>
      <trkpt lat="43.09172" lon="2.61735">
        <ele>115.144</ele>
        <time>2012-03-08T13:43:51Z</time>
      </trkpt>
      <trkpt lat="43.09182" lon="2.61739">
        <ele>112.594</ele>
        <time>2012-03-08T13:43:58Z</time>
      </trkpt>
      <trkpt lat="43.09184" lon="2.6174">
        <ele>112.477</ele>
        <time>2012-03-08T13:43:59Z</time>
      </trkpt>
      <trkpt lat="43.09193" lon="2.61749">
        <ele>110.7</ele>
        <time>2012-03-08T13:44:07Z</time>
      </trkpt>
      <trkpt lat="43.09205" lon="2.61753">
        <ele>109.063</ele>
        <time>2012-03-08T13:44:14Z</time>
      </trkpt>
      <trkpt lat="43.09207" lon="2.61754">
        <ele>108.811</ele>
        <time>2012-03-08T13:44:15Z</time>
      </trkpt>
      <trkpt lat="43.09214" lon="2.61765">
        <ele>108.673</ele>
        <time>2012-03-08T13:44:23Z</time>
      </trkpt>
      <trkpt lat="43.09215" lon="2.61768">
        <ele>108.03</ele>
        <time>2012-03-08T13:44:25Z</time>
      </trkpt>
      <trkpt lat="43.09222" lon="2.61771">
        <ele>111.388</ele>
        <time>2012-03-08T13:44:29Z</time>
      </trkpt>
      <trkpt lat="43.09225" lon="2.61775">
        <ele>113.043</ele>
        <time>2012-03-08T13:44:32Z</time>
      </trkpt>
      <trkpt lat="43.09227" lon="2.61784">
        <ele>113.405</ele>
        <time>2012-03-08T13:44:37Z</time>
      </trkpt>
      <trkpt lat="43.09231" lon="2.61791">
        <ele>112.82</ele>
        <time>2012-03-08T13:44:42Z</time>
      </trkpt>
      <trkpt lat="43.09235" lon="2.61803">
        <ele>111.476</ele>
        <time>2012-03-08T13:44:51Z</time>
      </trkpt>
      <trkpt lat="43.09236" lon="2.61805">
        <ele>111.528</ele>
        <time>2012-03-08T13:44:52Z</time>
      </trkpt>
      <trkpt lat="43.09236" lon="2.61814">
        <ele>113.595</ele>
        <time>2012-03-08T13:44:57Z</time>
      </trkpt>
      <trkpt lat="43.09235" lon="2.61826">
        <ele>115.784</ele>
        <time>2012-03-08T13:45:07Z</time>
      </trkpt>
      <trkpt lat="43.09231" lon="2.61831">
        <ele>113.564</ele>
        <time>2012-03-08T13:45:14Z</time>
      </trkpt>
      <trkpt lat="43.09229" lon="2.61843">
        <ele>109.892</ele>
        <time>2012-03-08T13:45:22Z</time>
      </trkpt>
      <trkpt lat="43.09222" lon="2.61856">
        <ele>108.579</ele>
        <time>2012-03-08T13:45:28Z</time>
      </trkpt>
      <trkpt lat="43.09215" lon="2.61864">
        <ele>110.547</ele>
        <time>2012-03-08T13:45:34Z</time>
      </trkpt>
      <trkpt lat="43.09212" lon="2.61872">
        <ele>107.064</ele>
        <time>2012-03-08T13:45:37Z</time>
      </trkpt>
      <trkpt lat="43.09211" lon="2.61876">
        <ele>104.017</ele>
        <time>2012-03-08T13:45:39Z</time>
      </trkpt>
      <trkpt lat="43.09207" lon="2.61881">
        <ele>110.372</ele>
        <time>2012-03-08T13:45:46Z</time>
      </trkpt>
      <trkpt lat="43.09206" lon="2.61878">
        <ele>113.428</ele>
        <time>2012-03-08T13:45:48Z</time>
      </trkpt>
      <trkpt lat="43.09206" lon="2.61874">
        <ele>112.211</ele>
        <time>2012-03-08T13:45:51Z</time>
      </trkpt>
      <trkpt lat="43.09198" lon="2.61873">
        <ele>115.763</ele>
        <time>2012-03-08T13:45:56Z</time>
      </trkpt>
      <trkpt lat="43.09191" lon="2.61868">
        <ele>119.848</ele>
        <time>2012-03-08T13:46:01Z</time>
      </trkpt>
      <trkpt lat="43.09186" lon="2.61868">
        <ele>117.58</ele>
        <time>2012-03-08T13:46:08Z</time>
      </trkpt>
      <trkpt lat="43.09187" lon="2.61869">
        <ele>111.477</ele>
        <time>2012-03-08T13:46:11Z</time>
      </trkpt>
      <trkpt lat="43.09186" lon="2.61864">
        <ele>114.14</ele>
        <time>2012-03-08T13:46:13Z</time>
      </trkpt>
      <trkpt lat="43.09179" lon="2.61866">
        <ele>112.758</ele>
        <time>2012-03-08T13:46:18Z</time>
      </trkpt>
      <trkpt lat="43.0918" lon="2.61863">
        <ele>126.016</ele>
        <time>2012-03-08T13:46:25Z</time>
      </trkpt>
      <trkpt lat="43.09178" lon="2.61864">
        <ele>126.113</ele>
        <time>2012-03-08T13:46:32Z</time>
      </trkpt>
      <trkpt lat="43.09173" lon="2.61874">
        <ele>125.794</ele>
        <time>2012-03-08T13:46:39Z</time>
      </trkpt>
      <trkpt lat="43.09174" lon="2.61864">
        <ele>134.11</ele>
        <time>2012-03-08T13:46:52Z</time>
      </trkpt>
      <trkpt lat="43.09169" lon="2.6187">
        <ele>128.68</ele>
        <time>2012-03-08T13:46:57Z</time>
      </trkpt>
      <trkpt lat="43.09168" lon="2.61872">
        <ele>121.858</ele>
        <time>2012-03-08T13:46:59Z</time>
      </trkpt>
      <trkpt lat="43.09164" lon="2.61878">
        <ele>124.244</ele>
        <time>2012-03-08T13:47:05Z</time>
      </trkpt>
      <trkpt lat="43.09165" lon="2.61877">
        <ele>126.158</ele>
        <time>2012-03-08T13:47:08Z</time>
      </trkpt>
      <trkpt lat="43.09166" lon="2.61875">
        <ele>120.871</ele>
        <time>2012-03-08T13:47:17Z</time>
      </trkpt>
      <trkpt lat="43.09167" lon="2.61869">
        <ele>124.118</ele>
        <time>2012-03-08T13:47:22Z</time>
      </trkpt>
      <trkpt lat="43.09158" lon="2.61874">
        <ele>122.02</ele>
        <time>2012-03-08T13:47:47Z</time>
      </trkpt>
      <trkpt lat="43.09158" lon="2.61875">
        <ele>122.464</ele>
        <time>2012-03-08T13:47:48Z</time>
      </trkpt>
      <trkpt lat="43.09153" lon="2.61888">
        <ele>119.813</ele>
        <time>2012-03-08T13:47:54Z</time>
      </trkpt>
      <trkpt lat="43.09155" lon="2.6189">
        <ele>118.634</ele>
        <time>2012-03-08T13:47:56Z</time>
      </trkpt>
      <trkpt lat="43.09158" lon="2.61884">
        <ele>118.936</ele>
        <time>2012-03-08T13:48:02Z</time>
      </trkpt>
      <trkpt lat="43.09159" lon="2.61882">
        <ele>118.818</ele>
        <time>2012-03-08T13:48:03Z</time>
      </trkpt>
      <trkpt lat="43.09165" lon="2.61884">
        <ele>113.601</ele>
        <time>2012-03-08T13:48:09Z</time>
      </trkpt>
      <trkpt lat="43.0917" lon="2.61877">
        <ele>113.971</ele>
        <time>2012-03-08T13:48:16Z</time>
      </trkpt>
      <trkpt lat="43.09162" lon="2.61861">
        <ele>117.638</ele>
        <time>2012-03-08T13:48:45Z</time>
      </trkpt>
      <trkpt lat="43.09171" lon="2.61856">
        <ele>126.325</ele>
        <time>2012-03-08T13:49:19Z</time>
      </trkpt>
      <trkpt lat="43.09163" lon="2.61867">
        <ele>127.409</ele>
        <time>2012-03-08T13:49:26Z</time>
      </trkpt>
      <trkpt lat="43.09161" lon="2.61868">
        <ele>127.787</ele>
        <time>2012-03-08T13:49:28Z</time>
      </trkpt>
      <trkpt lat="43.0916" lon="2.61868">
        <ele>127.797</ele>
        <time>2012-03-08T13:49:30Z</time>
      </trkpt>
      <trkpt lat="43.09153" lon="2.61872">
        <ele>125.878</ele>
        <time>2012-03-08T13:49:40Z</time>
      </trkpt>
      <trkpt lat="43.09144" lon="2.61871">
        <ele>124.658</ele>
        <time>2012-03-08T13:49:49Z</time>
      </trkpt>
      <trkpt lat="43.0914" lon="2.61871">
        <ele>125.098</ele>
        <time>2012-03-08T13:49:53Z</time>
      </trkpt>
      <trkpt lat="43.09136" lon="2.6187">
        <ele>128.239</ele>
        <time>2012-03-08T13:49:57Z</time>
      </trkpt>
      <trkpt lat="43.09138" lon="2.6187">
        <ele>129.46</ele>
        <time>2012-03-08T13:50:06Z</time>
      </trkpt>
      <trkpt lat="43.09141" lon="2.61868">
        <ele>130.249</ele>
        <time>2012-03-08T13:50:11Z</time>
      </trkpt>
      <trkpt lat="43.09142" lon="2.61872">
        <ele>118.486</ele>
        <time>2012-03-08T13:50:22Z</time>
      </trkpt>
      <trkpt lat="43.09145" lon="2.61875">
        <ele>121.858</ele>
        <time>2012-03-08T13:50:29Z</time>
      </trkpt>
      <trkpt lat="43.09141" lon="2.61865">
        <ele>125.377</ele>
        <time>2012-03-08T13:50:48Z</time>
      </trkpt>
      <trkpt lat="43.09131" lon="2.61875">
        <ele>119.052</ele>
        <time>2012-03-08T13:50:53Z</time>
      </trkpt>
      <trkpt lat="43.09134" lon="2.61874">
        <ele>116.664</ele>
        <time>2012-03-08T13:50:57Z</time>
      </trkpt>
      <trkpt lat="43.09139" lon="2.6187">
        <ele>115.805</ele>
        <time>2012-03-08T13:51:04Z</time>
      </trkpt>
      <trkpt lat="43.09137" lon="2.61871">
        <ele>114.696</ele>
        <time>2012-03-08T13:51:09Z</time>
      </trkpt>
      <trkpt lat="43.09138" lon="2.61874">
        <ele>116.219</ele>
        <time>2012-03-08T13:51:19Z</time>
      </trkpt>
      <trkpt lat="43.09134" lon="2.61879">
        <ele>111.657</ele>
        <time>2012-03-08T13:51:24Z</time>
      </trkpt>
      <trkpt lat="43.09132" lon="2.61887">
        <ele>109.796</ele>
        <time>2012-03-08T13:51:29Z</time>
      </trkpt>
      <trkpt lat="43.09126" lon="2.61894">
        <ele>115.909</ele>
        <time>2012-03-08T13:51:37Z</time>
      </trkpt>
      <trkpt lat="43.09124" lon="2.61893">
        <ele>114.858</ele>
        <time>2012-03-08T13:51:39Z</time>
      </trkpt>
      <trkpt lat="43.0912" lon="2.61898">
        <ele>119.821</ele>
        <time>2012-03-08T13:51:45Z</time>
      </trkpt>
      <trkpt lat="43.09116" lon="2.61905">
        <ele>118.519</ele>
        <time>2012-03-08T13:51:50Z</time>
      </trkpt>
      <trkpt lat="43.09114" lon="2.61906">
        <ele>112.186</ele>
        <time>2012-03-08T13:51:56Z</time>
      </trkpt>
      <trkpt lat="43.09105" lon="2.61903">
        <ele>110.207</ele>
        <time>2012-03-08T13:52:02Z</time>
      </trkpt>
      <trkpt lat="43.09099" lon="2.61906">
        <ele>113.329</ele>
        <time>2012-03-08T13:52:07Z</time>
      </trkpt>
      <trkpt lat="43.09101" lon="2.61902">
        <ele>118.96</ele>
        <time>2012-03-08T13:52:14Z</time>
      </trkpt>
      <trkpt lat="43.09104" lon="2.61899">
        <ele>125.851</ele>
        <time>2012-03-08T13:52:21Z</time>
      </trkpt>
      <trkpt lat="43.09107" lon="2.61903">
        <ele>128.371</ele>
        <time>2012-03-08T13:52:26Z</time>
      </trkpt>
      <trkpt lat="43.09115" lon="2.61907">
        <ele>128.231</ele>
        <time>2012-03-08T13:52:31Z</time>
      </trkpt>
      <trkpt lat="43.09122" lon="2.61903">
        <ele>131.461</ele>
        <time>2012-03-08T13:52:34Z</time>
      </trkpt>
      <trkpt lat="43.09124" lon="2.61899">
        <ele>131.39</ele>
        <time>2012-03-08T13:52:39Z</time>
      </trkpt>
      <trkpt lat="43.09124" lon="2.61898">
        <ele>128.228</ele>
        <time>2012-03-08T13:52:43Z</time>
      </trkpt>
      <trkpt lat="43.09127" lon="2.61891">
        <ele>136.071</ele>
        <time>2012-03-08T13:52:50Z</time>
      </trkpt>
      <trkpt lat="43.09126" lon="2.61891">
        <ele>138.752</ele>
        <time>2012-03-08T13:52:51Z</time>
      </trkpt>
      <trkpt lat="43.09126" lon="2.61895">
        <ele>136.82</ele>
        <time>2012-03-08T13:52:58Z</time>
      </trkpt>
      <trkpt lat="43.09117" lon="2.619">
        <ele>141.701</ele>
        <time>2012-03-08T13:53:17Z</time>
      </trkpt>
      <trkpt lat="43.09121" lon="2.61895">
        <ele>138.628</ele>
        <time>2012-03-08T13:53:22Z</time>
      </trkpt>
      <trkpt lat="43.09124" lon="2.61895">
        <ele>137.258</ele>
        <time>2012-03-08T13:53:25Z</time>
      </trkpt>
      <trkpt lat="43.0913" lon="2.61896">
        <ele>139.039</ele>
        <time>2012-03-08T13:53:29Z</time>
      </trkpt>
      <trkpt lat="43.0913" lon="2.61902">
        <ele>134.046</ele>
        <time>2012-03-08T13:53:35Z</time>
      </trkpt>
      <trkpt lat="43.09118" lon="2.61906">
        <ele>97.614</ele>
        <time>2012-03-08T14:01:10Z</time>
      </trkpt>
      <trkpt lat="43.09113" lon="2.61911">
        <ele>94.725</ele>
        <time>2012-03-08T14:01:14Z</time>
      </trkpt>
      <trkpt lat="43.09114" lon="2.6191">
        <ele>97.048</ele>
        <time>2012-03-08T14:01:16Z</time>
      </trkpt>
      <trkpt lat="43.09107" lon="2.61912">
        <ele>102.929</ele>
        <time>2012-03-08T14:01:21Z</time>
      </trkpt>
      <trkpt lat="43.09101" lon="2.61906">
        <ele>126.322</ele>
        <time>2012-03-08T14:01:40Z</time>
      </trkpt>
      <trkpt lat="43.09099" lon="2.61903">
        <ele>137.743</ele>
        <time>2012-03-08T14:01:46Z</time>
      </trkpt>
      <trkpt lat="43.09091" lon="2.61901">
        <ele>130.539</ele>
        <time>2012-03-08T14:01:51Z</time>
      </trkpt>
      <trkpt lat="43.09088" lon="2.619">
        <ele>126.217</ele>
        <time>2012-03-08T14:01:53Z</time>
      </trkpt>
      <trkpt lat="43.09085" lon="2.619">
        <ele>126.727</ele>
        <time>2012-03-08T14:01:58Z</time>
      </trkpt>
      <trkpt lat="43.09085" lon="2.619">
        <ele>125.176</ele>
        <time>2012-03-08T14:02:00Z</time>
      </trkpt>
      <trkpt lat="43.09077" lon="2.61906">
        <ele>116.031</ele>
        <time>2012-03-08T14:02:06Z</time>
      </trkpt>
      <trkpt lat="43.09076" lon="2.61909">
        <ele>113.001</ele>
        <time>2012-03-08T14:02:11Z</time>
      </trkpt>
      <trkpt lat="43.09062" lon="2.61909">
        <ele>106.735</ele>
        <time>2012-03-08T14:02:19Z</time>
      </trkpt>
      <trkpt lat="43.09059" lon="2.61909">
        <ele>101.373</ele>
        <time>2012-03-08T14:02:21Z</time>
      </trkpt>
      <trkpt lat="43.09057" lon="2.61909">
        <ele>102.955</ele>
        <time>2012-03-08T14:02:23Z</time>
      </trkpt>
      <trkpt lat="43.09051" lon="2.61913">
        <ele>108.139</ele>
        <time>2012-03-08T14:02:30Z</time>
      </trkpt>
      <trkpt lat="43.0905" lon="2.61915">
        <ele>125.195</ele>
        <time>2012-03-08T14:02:36Z</time>
      </trkpt>
      <trkpt lat="43.09048" lon="2.61916">
        <ele>130.725</ele>
        <time>2012-03-08T14:02:40Z</time>
      </trkpt>
      <trkpt lat="43.09048" lon="2.61919">
        <ele>129.075</ele>
        <time>2012-03-08T14:02:42Z</time>
      </trkpt>
      <trkpt lat="43.09049" lon="2.61936">
        <ele>114.226</ele>
        <time>2012-03-08T14:02:49Z</time>
      </trkpt>
      <trkpt lat="43.09048" lon="2.61947">
        <ele>111.737</ele>
        <time>2012-03-08T14:02:56Z</time>
      </trkpt>
      <trkpt lat="43.09044" lon="2.61955">
        <ele>116.56</ele>
        <time>2012-03-08T14:03:01Z</time>
      </trkpt>
      <trkpt lat="43.09039" lon="2.61961">
        <ele>117.36</ele>
        <time>2012-03-08T14:03:04Z</time>
      </trkpt>
      <trkpt lat="43.09033" lon="2.61965">
        <ele>124.123</ele>
        <time>2012-03-08T14:03:09Z</time>
      </trkpt>
      <trkpt lat="43.09036" lon="2.61977">
        <ele>123.602</ele>
        <time>2012-03-08T14:03:16Z</time>
      </trkpt>
      <trkpt lat="43.09028" lon="2.61984">
        <ele>122.559</ele>
        <time>2012-03-08T14:03:21Z</time>
      </trkpt>
      <trkpt lat="43.09024" lon="2.61985">
        <ele>126.411</ele>
        <time>2012-03-08T14:03:28Z</time>
      </trkpt>
      <trkpt lat="43.09023" lon="2.61982">
        <ele>128.141</ele>
        <time>2012-03-08T14:03:31Z</time>
      </trkpt>
      <trkpt lat="43.09027" lon="2.61981">
        <ele>129.451</ele>
        <time>2012-03-08T14:03:37Z</time>
      </trkpt>
      <trkpt lat="43.09031" lon="2.61984">
        <ele>127.999</ele>
        <time>2012-03-08T14:03:41Z</time>
      </trkpt>
      <trkpt lat="43.09036" lon="2.61993">
        <ele>128.549</ele>
        <time>2012-03-08T14:03:47Z</time>
      </trkpt>
      <trkpt lat="43.09039" lon="2.61992">
        <ele>126.908</ele>
        <time>2012-03-08T14:03:52Z</time>
      </trkpt>
      <trkpt lat="43.09051" lon="2.62001">
        <ele>120.466</ele>
        <time>2012-03-08T14:03:59Z</time>
      </trkpt>
      <trkpt lat="43.09052" lon="2.62003">
        <ele>119.376</ele>
        <time>2012-03-08T14:04:00Z</time>
      </trkpt>
      <trkpt lat="43.09049" lon="2.62012">
        <ele>115.005</ele>
        <time>2012-03-08T14:04:06Z</time>
      </trkpt>
      <trkpt lat="43.09048" lon="2.62014">
        <ele>108.975</ele>
        <time>2012-03-08T14:04:21Z</time>
      </trkpt>
      <trkpt lat="43.09047" lon="2.62019">
        <ele>111.757</ele>
        <time>2012-03-08T14:04:26Z</time>
      </trkpt>
      <trkpt lat="43.09047" lon="2.62024">
        <ele>114.478</ele>
        <time>2012-03-08T14:04:33Z</time>
      </trkpt>
      <trkpt lat="43.09043" lon="2.62039">
        <ele>121.76</ele>
        <time>2012-03-08T14:04:40Z</time>
      </trkpt>
      <trkpt lat="43.09039" lon="2.62042">
        <ele>120.7</ele>
        <time>2012-03-08T14:04:41Z</time>
      </trkpt>
      <trkpt lat="43.09036" lon="2.62044">
        <ele>117.738</ele>
        <time>2012-03-08T14:04:48Z</time>
      </trkpt>
      <trkpt lat="43.09026" lon="2.62047">
        <ele>127.902</ele>
        <time>2012-03-08T14:05:32Z</time>
      </trkpt>
      <trkpt lat="43.09027" lon="2.62048">
        <ele>125.629</ele>
        <time>2012-03-08T14:05:38Z</time>
      </trkpt>
    </trkseg>
  </trk>
</gpx>